Wetterdaten: Dienstag, 12.05.2020
Datum Zeit Temp. 2m Temp +5 cm Feuchte A. Luftdruck Regen Wind Richtung Richtung Sonnenschein UV Solar Taupunkt Windchill Windben
12.05.2020 00:00 2,5 C 0,6 C 63 % 1018,8 hPa 0,0 l/m 16,1 km/h (3 Bft) N 360 0 min 0,0 UV-I 0 W/m -3,8 C -4,5 C 20,9 km/h (4 Bft)
12.05.2020 00:01 2,5 C 0,6 C 63 % 1018,7 hPa 0,0 l/m 16,1 km/h (3 Bft) N-NW 337 0 min 0,0 UV-I 0 W/m -3,8 C -4,5 C 19,3 km/h (3 Bft)
12.05.2020 00:02 2,4 C 0,6 C 63 % 1018,8 hPa 0,0 l/m 17,7 km/h (3 Bft) N 360 0 min 0,0 UV-I 0 W/m -3,9 C -5,5 C 24,1 km/h (4 Bft)
12.05.2020 00:03 2,5 C 1,1 C 63 % 1018,8 hPa 0,0 l/m 14,5 km/h (3 Bft) N 360 0 min 0,0 UV-I 0 W/m -3,8 C -3,7 C 17,7 km/h (3 Bft)
12.05.2020 00:04 2,5 C 1,1 C 63 % 1018,7 hPa 0,0 l/m 16,1 km/h (3 Bft) N-NW 337 0 min 0,0 UV-I 0 W/m -3,8 C -4,5 C 19,3 km/h (3 Bft)
12.05.2020 00:05 2,5 C 1,1 C 63 % 1018,8 hPa 0,0 l/m 12,9 km/h (3 Bft) N-NW 337 0 min 0,0 UV-I 0 W/m -3,8 C -2,7 C 17,7 km/h (3 Bft)
12.05.2020 00:06 2,5 C 0,6 C 63 % 1018,7 hPa 0,0 l/m 9,7 km/h (2 Bft) N 360 0 min 0,0 UV-I 0 W/m -3,8 C -0,5 C 14,5 km/h (3 Bft)
12.05.2020 00:07 2,4 C 0,6 C 63 % 1018,7 hPa 0,0 l/m 14,5 km/h (3 Bft) N 360 0 min 0,0 UV-I 0 W/m -3,9 C -3,8 C 20,9 km/h (4 Bft)
12.05.2020 00:08 2,4 C 0,6 C 64 % 1018,8 hPa 0,0 l/m 11,3 km/h (2 Bft) N 360 0 min 0,0 UV-I 0 W/m -3,7 C -1,8 C 16,1 km/h (3 Bft)
12.05.2020 00:09 2,4 C 0,6 C 64 % 1018,9 hPa 0,0 l/m 9,7 km/h (2 Bft) N 360 0 min 0,0 UV-I 0 W/m -3,7 C -0,6 C 17,7 km/h (3 Bft)
12.05.2020 00:10 2,4 C 0,6 C 64 % 1018,9 hPa 0,0 l/m 12,9 km/h (3 Bft) N 360 0 min 0,0 UV-I 0 W/m -3,7 C -2,8 C 20,9 km/h (4 Bft)
12.05.2020 00:11 2,3 C 0,6 C 64 % 1018,9 hPa 0,0 l/m 12,9 km/h (3 Bft) N 360 0 min 0,0 UV-I 0 W/m -3,8 C -2,9 C 17,7 km/h (3 Bft)
12.05.2020 00:12 2,3 C 0,6 C 63 % 1018,8 hPa 0,0 l/m 14,5 km/h (3 Bft) N 360 0 min 0,0 UV-I 0 W/m -4,0 C -3,9 C 20,9 km/h (4 Bft)
12.05.2020 00:13 2,3 C 0,6 C 63 % 1018,9 hPa 0,0 l/m 14,5 km/h (3 Bft) N-NW 337 0 min 0,0 UV-I 0 W/m -4,0 C -3,9 C 19,3 km/h (3 Bft)
12.05.2020 00:14 2,3 C 0,6 C 63 % 1018,9 hPa 0,0 l/m 14,5 km/h (3 Bft) N 360 0 min 0,0 UV-I 0 W/m -4,0 C -3,9 C 19,3 km/h (3 Bft)
12.05.2020 00:15 2,3 C 0,6 C 63 % 1018,9 hPa 0,0 l/m 16,1 km/h (3 Bft) N 360 0 min 0,0 UV-I 0 W/m -4,0 C -4,8 C 22,5 km/h (4 Bft)
12.05.2020 00:16 2,3 C 0,6 C 63 % 1018,9 hPa 0,0 l/m 12,9 km/h (3 Bft) N 360 0 min 0,0 UV-I 0 W/m -4,0 C -2,9 C 14,5 km/h (3 Bft)
12.05.2020 00:17 2,3 C 0,6 C 64 % 1018,8 hPa 0,0 l/m 12,9 km/h (3 Bft) N 360 0 min 0,0 UV-I 0 W/m -3,8 C -2,9 C 16,1 km/h (3 Bft)
12.05.2020 00:18 2,3 C 0,6 C 63 % 1018,9 hPa 0,0 l/m 16,1 km/h (3 Bft) N 360 0 min 0,0 UV-I 0 W/m -4,0 C -4,8 C 17,7 km/h (3 Bft)
12.05.2020 00:19 2,3 C 0,6 C 63 % 1018,9 hPa 0,0 l/m 14,5 km/h (3 Bft) N 360 0 min 0,0 UV-I 0 W/m -4,0 C -3,9 C 17,7 km/h (3 Bft)
12.05.2020 00:20 2,3 C 0,6 C 63 % 1018,9 hPa 0,0 l/m 14,5 km/h (3 Bft) N-NW 337 0 min 0,0 UV-I 0 W/m -4,0 C -3,9 C 19,3 km/h (3 Bft)
12.05.2020 00:21 2,3 C 0,6 C 63 % 1019,0 hPa 0,0 l/m 17,7 km/h (3 Bft) N 360 0 min 0,0 UV-I 0 W/m -4,0 C -5,6 C 22,5 km/h (4 Bft)
12.05.2020 00:22 2,3 C 0,6 C 63 % 1018,9 hPa 0,0 l/m 14,5 km/h (3 Bft) N 360 0 min 0,0 UV-I 0 W/m -4,0 C -3,9 C 17,7 km/h (3 Bft)
12.05.2020 00:23 2,3 C 0,6 C 63 % 1018,9 hPa 0,0 l/m 16,1 km/h (3 Bft) N 360 0 min 0,0 UV-I 0 W/m -4,0 C -4,8 C 20,9 km/h (4 Bft)
12.05.2020 00:24 2,2 C 0,6 C 63 % 1019,0 hPa 0,0 l/m 17,7 km/h (3 Bft) N 360 0 min 0,0 UV-I 0 W/m -4,1 C -5,7 C 20,9 km/h (4 Bft)
12.05.2020 00:25 2,2 C 0,6 C 63 % 1019,0 hPa 0,0 l/m 12,9 km/h (3 Bft) N 360 0 min 0,0 UV-I 0 W/m -4,1 C -3,1 C 17,7 km/h (3 Bft)
12.05.2020 00:26 2,3 C 0,6 C 63 % 1019,0 hPa 0,0 l/m 14,5 km/h (3 Bft) N 360 0 min 0,0 UV-I 0 W/m -4,0 C -3,9 C 17,7 km/h (3 Bft)
12.05.2020 00:27 2,2 C 0,6 C 63 % 1019,0 hPa 0,0 l/m 11,3 km/h (2 Bft) N 360 0 min 0,0 UV-I 0 W/m -4,1 C -2,0 C 14,5 km/h (3 Bft)
12.05.2020 00:28 2,2 C 0,6 C 63 % 1019,0 hPa 0,0 l/m 14,5 km/h (3 Bft) N-NW 337 0 min 0,0 UV-I 0 W/m -4,1 C -4,0 C 17,7 km/h (3 Bft)
12.05.2020 00:29 2,2 C 0,6 C 64 % 1019,1 hPa 0,0 l/m 12,9 km/h (3 Bft) N 360 0 min 0,0 UV-I 0 W/m -3,9 C -3,1 C 17,7 km/h (3 Bft)
12.05.2020 00:30 2,2 C 0,6 C 63 % 1019,0 hPa 0,0 l/m 16,1 km/h (3 Bft) N-NW 337 0 min 0,0 UV-I 0 W/m -4,1 C -4,9 C 22,5 km/h (4 Bft)
12.05.2020 00:31 2,2 C 0,6 C 63 % 1019,1 hPa 0,0 l/m 14,5 km/h (3 Bft) N 360 0 min 0,0 UV-I 0 W/m -4,1 C -4,0 C 20,9 km/h (4 Bft)
12.05.2020 00:32 2,2 C 0,6 C 63 % 1019,0 hPa 0,0 l/m 16,1 km/h (3 Bft) N 360 0 min 0,0 UV-I 0 W/m -4,1 C -4,9 C 22,5 km/h (4 Bft)
12.05.2020 00:33 2,2 C 0,6 C 63 % 1019,1 hPa 0,0 l/m 8,0 km/h (2 Bft) N-NW 337 0 min 0,0 UV-I 0 W/m -4,1 C 0,7 C 12,9 km/h (3 Bft)
12.05.2020 00:34 2,2 C 0,6 C 63 % 1019,0 hPa 0,0 l/m 12,9 km/h (3 Bft) N-NW 337 0 min 0,0 UV-I 0 W/m -4,1 C -3,1 C 17,7 km/h (3 Bft)
12.05.2020 00:35 2,1 C 0,6 C 63 % 1019,1 hPa 0,0 l/m 12,9 km/h (3 Bft) N 360 0 min 0,0 UV-I 0 W/m -4,2 C -3,2 C 16,1 km/h (3 Bft)
12.05.2020 00:36 2,1 C 0,6 C 63 % 1019,0 hPa 0,0 l/m 17,7 km/h (3 Bft) N 360 0 min 0,0 UV-I 0 W/m -4,2 C -5,9 C 20,9 km/h (4 Bft)
12.05.2020 00:37 2,1 C 0,6 C 63 % 1019,1 hPa 0,0 l/m 16,1 km/h (3 Bft) N 360 0 min 0,0 UV-I 0 W/m -4,2 C -5,0 C 19,3 km/h (3 Bft)
12.05.2020 00:38 2,1 C 0,6 C 63 % 1019,1 hPa 0,0 l/m 11,3 km/h (2 Bft) N 360 0 min 0,0 UV-I 0 W/m -4,2 C -2,1 C 16,1 km/h (3 Bft)
12.05.2020 00:39 2,1 C 0,6 C 64 % 1019,1 hPa 0,0 l/m 14,5 km/h (3 Bft) N 360 0 min 0,0 UV-I 0 W/m -4,0 C -4,2 C 17,7 km/h (3 Bft)
12.05.2020 00:40 2,1 C 0,6 C 63 % 1019,1 hPa 0,0 l/m 14,5 km/h (3 Bft) N 360 0 min 0,0 UV-I 0 W/m -4,2 C -4,2 C 17,7 km/h (3 Bft)
12.05.2020 00:41 2,0 C 0,6 C 63 % 1019,1 hPa 0,0 l/m 11,3 km/h (2 Bft) N-NW 337 0 min 0,0 UV-I 0 W/m -4,3 C -2,2 C 14,5 km/h (3 Bft)
12.05.2020 00:42 1,9 C 0,6 C 64 % 1019,1 hPa 0,0 l/m 8,0 km/h (2 Bft) N-NO 22 0 min 0,0 UV-I 0 W/m -4,2 C 0,3 C 12,9 km/h (3 Bft)
12.05.2020 00:43 1,9 C 0,0 C 64 % 1019,0 hPa 0,0 l/m 11,3 km/h (2 Bft) N-NW 337 0 min 0,0 UV-I 0 W/m -4,2 C -2,3 C 14,5 km/h (3 Bft)
12.05.2020 00:44 1,8 C 0,0 C 64 % 1019,1 hPa 0,0 l/m 9,7 km/h (2 Bft) N 360 0 min 0,0 UV-I 0 W/m -4,3 C -1,2 C 12,9 km/h (3 Bft)
12.05.2020 00:45 1,8 C 0,0 C 64 % 1019,2 hPa 0,0 l/m 11,3 km/h (2 Bft) N 360 0 min 0,0 UV-I 0 W/m -4,3 C -2,4 C 16,1 km/h (3 Bft)
12.05.2020 00:46 1,8 C 0,0 C 64 % 1019,2 hPa 0,0 l/m 16,1 km/h (3 Bft) N 360 0 min 0,0 UV-I 0 W/m -4,3 C -5,4 C 22,5 km/h (4 Bft)
12.05.2020 00:47 1,8 C 0,0 C 64 % 1019,1 hPa 0,0 l/m 14,5 km/h (3 Bft) N 360 0 min 0,0 UV-I 0 W/m -4,3 C -4,5 C 19,3 km/h (3 Bft)
12.05.2020 00:48 1,8 C 0,0 C 64 % 1019,2 hPa 0,0 l/m 12,9 km/h (3 Bft) N-NW 337 0 min 0,0 UV-I 0 W/m -4,3 C -3,5 C 16,1 km/h (3 Bft)
12.05.2020 00:49 1,8 C 0,0 C 64 % 1019,3 hPa 0,0 l/m 11,3 km/h (2 Bft) N 360 0 min 0,0 UV-I 0 W/m -4,3 C -2,4 C 16,1 km/h (3 Bft)
12.05.2020 00:50 1,8 C 0,0 C 64 % 1019,2 hPa 0,0 l/m 11,3 km/h (2 Bft) N 360 0 min 0,0 UV-I 0 W/m -4,3 C -2,4 C 16,1 km/h (3 Bft)
12.05.2020 00:51 1,8 C 0,0 C 64 % 1019,3 hPa 0,0 l/m 9,7 km/h (2 Bft) N 360 0 min 0,0 UV-I 0 W/m -4,3 C -1,2 C 14,5 km/h (3 Bft)
12.05.2020 00:52 1,8 C 0,0 C 64 % 1019,3 hPa 0,0 l/m 11,3 km/h (2 Bft) N 360 0 min 0,0 UV-I 0 W/m -4,3 C -2,4 C 14,5 km/h (3 Bft)
12.05.2020 00:53 1,7 C 0,0 C 65 % 1019,2 hPa 0,0 l/m 12,9 km/h (3 Bft) N 360 0 min 0,0 UV-I 0 W/m -4,2 C -3,6 C 16,1 km/h (3 Bft)
12.05.2020 00:54 1,7 C 0,0 C 65 % 1019,3 hPa 0,0 l/m 9,7 km/h (2 Bft) N 360 0 min 0,0 UV-I 0 W/m -4,2 C -1,3 C 16,1 km/h (3 Bft)
12.05.2020 00:55 1,7 C 0,0 C 65 % 1019,4 hPa 0,0 l/m 12,9 km/h (3 Bft) N 360 0 min 0,0 UV-I 0 W/m -4,2 C -3,6 C 17,7 km/h (3 Bft)
12.05.2020 00:56 1,6 C 0,0 C 65 % 1019,3 hPa 0,0 l/m 12,9 km/h (3 Bft) N 360 0 min 0,0 UV-I 0 W/m -4,3 C -3,8 C 16,1 km/h (3 Bft)
12.05.2020 00:57 1,7 C 0,0 C 65 % 1019,4 hPa 0,0 l/m 11,3 km/h (2 Bft) N 360 0 min 0,0 UV-I 0 W/m -4,2 C -2,6 C 19,3 km/h (3 Bft)
12.05.2020 00:58 1,7 C 0,0 C 65 % 1019,3 hPa 0,0 l/m 12,9 km/h (3 Bft) N 360 0 min 0,0 UV-I 0 W/m -4,2 C -3,6 C 17,7 km/h (3 Bft)
12.05.2020 00:59 1,6 C 0,0 C 65 % 1019,5 hPa 0,0 l/m 11,3 km/h (2 Bft) N 360 0 min 0,0 UV-I 0 W/m -4,3 C -2,7 C 17,7 km/h (3 Bft)
12.05.2020 01:00 1,6 C 0,0 C 65 % 1019,4 hPa 0,0 l/m 16,1 km/h (3 Bft) N 360 0 min 0,0 UV-I 0 W/m -4,3 C -5,7 C 24,1 km/h (4 Bft)
12.05.2020 01:01 1,7 C 0,0 C 64 % 1019,4 hPa 0,0 l/m 14,5 km/h (3 Bft) N 360 0 min 0,0 UV-I 0 W/m -4,4 C -4,6 C 20,9 km/h (4 Bft)
12.05.2020 01:02 1,7 C 0,0 C 64 % 1019,5 hPa 0,0 l/m 11,3 km/h (2 Bft) N 360 0 min 0,0 UV-I 0 W/m -4,4 C -2,6 C 16,1 km/h (3 Bft)
12.05.2020 01:03 1,6 C 0,0 C 65 % 1019,5 hPa 0,0 l/m 9,7 km/h (2 Bft) N 360 0 min 0,0 UV-I 0 W/m -4,3 C -1,4 C 12,9 km/h (3 Bft)
12.05.2020 01:04 1,6 C -0,6 C 65 % 1019,5 hPa 0,0 l/m 9,7 km/h (2 Bft) N 360 0 min 0,0 UV-I 0 W/m -4,3 C -1,4 C 14,5 km/h (3 Bft)
12.05.2020 01:05 1,6 C 0,0 C 65 % 1019,5 hPa 0,0 l/m 14,5 km/h (3 Bft) N 360 0 min 0,0 UV-I 0 W/m -4,3 C -4,8 C 22,5 km/h (4 Bft)
12.05.2020 01:06 1,6 C 0,0 C 65 % 1019,5 hPa 0,0 l/m 14,5 km/h (3 Bft) N 360 0 min 0,0 UV-I 0 W/m -4,3 C -4,8 C 19,3 km/h (3 Bft)
12.05.2020 01:07 1,6 C -0,6 C 65 % 1019,5 hPa 0,0 l/m 11,3 km/h (2 Bft) N 360 0 min 0,0 UV-I 0 W/m -4,3 C -2,7 C 16,1 km/h (3 Bft)
12.05.2020 01:08 1,6 C -0,6 C 65 % 1019,6 hPa 0,0 l/m 11,3 km/h (2 Bft) N 360 0 min 0,0 UV-I 0 W/m -4,3 C -2,7 C 19,3 km/h (3 Bft)
12.05.2020 01:09 1,5 C -0,6 C 65 % 1019,6 hPa 0,0 l/m 14,5 km/h (3 Bft) N 360 0 min 0,0 UV-I 0 W/m -4,3 C -4,9 C 17,7 km/h (3 Bft)
12.05.2020 01:10 1,5 C -0,6 C 65 % 1019,6 hPa 0,0 l/m 12,9 km/h (3 Bft) N 360 0 min 0,0 UV-I 0 W/m -4,3 C -3,9 C 17,7 km/h (3 Bft)
12.05.2020 01:11 1,4 C -0,6 C 65 % 1019,7 hPa 0,0 l/m 12,9 km/h (3 Bft) N 360 0 min 0,0 UV-I 0 W/m -4,4 C -4,0 C 17,7 km/h (3 Bft)
12.05.2020 01:12 1,4 C -0,6 C 66 % 1019,7 hPa 0,0 l/m 12,9 km/h (3 Bft) N 360 0 min 0,0 UV-I 0 W/m -4,2 C -4,0 C 16,1 km/h (3 Bft)
12.05.2020 01:13 1,4 C -0,6 C 65 % 1019,7 hPa 0,0 l/m 12,9 km/h (3 Bft) N 360 0 min 0,0 UV-I 0 W/m -4,4 C -4,0 C 16,1 km/h (3 Bft)
12.05.2020 01:14 1,5 C -0,6 C 65 % 1019,6 hPa 0,0 l/m 14,5 km/h (3 Bft) N 360 0 min 0,0 UV-I 0 W/m -4,3 C -4,9 C 19,3 km/h (3 Bft)
12.05.2020 01:15 1,5 C -0,6 C 65 % 1019,8 hPa 0,0 l/m 12,9 km/h (3 Bft) N 360 0 min 0,0 UV-I 0 W/m -4,3 C -3,9 C 16,1 km/h (3 Bft)
12.05.2020 01:16 1,5 C -0,6 C 65 % 1019,7 hPa 0,0 l/m 12,9 km/h (3 Bft) N 360 0 min 0,0 UV-I 0 W/m -4,3 C -3,9 C 14,5 km/h (3 Bft)
12.05.2020 01:17 1,4 C -0,6 C 65 % 1019,7 hPa 0,0 l/m 11,3 km/h (2 Bft) N 360 0 min 0,0 UV-I 0 W/m -4,4 C -2,9 C 14,5 km/h (3 Bft)
12.05.2020 01:18 1,4 C -0,6 C 66 % 1019,8 hPa 0,0 l/m 9,7 km/h (2 Bft) N 360 0 min 0,0 UV-I 0 W/m -4,2 C -1,7 C 14,5 km/h (3 Bft)
12.05.2020 01:19 1,4 C -0,6 C 66 % 1019,7 hPa 0,0 l/m 11,3 km/h (2 Bft) N 360 0 min 0,0 UV-I 0 W/m -4,2 C -2,9 C 16,1 km/h (3 Bft)
12.05.2020 01:20 1,4 C -0,6 C 66 % 1019,8 hPa 0,0 l/m 11,3 km/h (2 Bft) N 360 0 min 0,0 UV-I 0 W/m -4,2 C -2,9 C 16,1 km/h (3 Bft)
12.05.2020 01:21 1,4 C -0,6 C 66 % 1019,7 hPa 0,0 l/m 11,3 km/h (2 Bft) N 360 0 min 0,0 UV-I 0 W/m -4,2 C -2,9 C 14,5 km/h (3 Bft)
12.05.2020 01:22 1,4 C -0,6 C 66 % 1019,8 hPa 0,0 l/m 9,7 km/h (2 Bft) N 360 0 min 0,0 UV-I 0 W/m -4,2 C -1,7 C 14,5 km/h (3 Bft)
12.05.2020 01:23 1,4 C -0,6 C 66 % 1019,9 hPa 0,0 l/m 8,0 km/h (2 Bft) N 360 0 min 0,0 UV-I 0 W/m -4,2 C -0,2 C 12,9 km/h (3 Bft)
12.05.2020 01:24 1,3 C -0,6 C 66 % 1019,9 hPa 0,0 l/m 8,0 km/h (2 Bft) N 360 0 min 0,0 UV-I 0 W/m -4,3 C -0,3 C 12,9 km/h (3 Bft)
12.05.2020 01:25 1,3 C -0,6 C 66 % 1019,9 hPa 0,0 l/m 9,7 km/h (2 Bft) N 360 0 min 0,0 UV-I 0 W/m -4,3 C -1,8 C 14,5 km/h (3 Bft)
12.05.2020 01:26 1,3 C -0,6 C 67 % 1019,9 hPa 0,0 l/m 8,0 km/h (2 Bft) N 360 0 min 0,0 UV-I 0 W/m -4,1 C -0,3 C 12,9 km/h (3 Bft)
12.05.2020 01:27 1,2 C -0,6 C 67 % 1019,9 hPa 0,0 l/m 8,0 km/h (2 Bft) N 360 0 min 0,0 UV-I 0 W/m -4,2 C -0,4 C 9,7 km/h (2 Bft)
12.05.2020 01:28 1,2 C -1,1 C 67 % 1019,9 hPa 0,0 l/m 6,4 km/h (2 Bft) N 360 0 min 0,0 UV-I 0 W/m -4,2 C 1,2 C 9,7 km/h (2 Bft)
12.05.2020 01:29 1,2 C -1,1 C 67 % 1020,0 hPa 0,0 l/m 9,7 km/h (2 Bft) N 360 0 min 0,0 UV-I 0 W/m -4,2 C -1,9 C 12,9 km/h (3 Bft)
12.05.2020 01:30 1,1 C -1,1 C 67 % 1020,0 hPa 0,0 l/m 12,9 km/h (3 Bft) N 360 0 min 0,0 UV-I 0 W/m -4,3 C -4,3 C 19,3 km/h (3 Bft)
12.05.2020 01:31 1,2 C -1,1 C 67 % 1020,0 hPa 0,0 l/m 9,7 km/h (2 Bft) N 360 0 min 0,0 UV-I 0 W/m -4,2 C -1,9 C 14,5 km/h (3 Bft)
12.05.2020 01:32 1,2 C -1,1 C 67 % 1020,1 hPa 0,0 l/m 4,8 km/h (1 Bft) N 360 0 min 0,0 UV-I 0 W/m -4,2 C 1,2 C 8,0 km/h (2 Bft)
12.05.2020 01:33 1,1 C -1,1 C 67 % 1020,1 hPa 0,0 l/m 6,4 km/h (2 Bft) N-NW 337 0 min 0,0 UV-I 0 W/m -4,3 C 1,1 C 9,7 km/h (2 Bft)
12.05.2020 01:34 1,1 C -1,1 C 67 % 1020,1 hPa 0,0 l/m 6,4 km/h (2 Bft) N 360 0 min 0,0 UV-I 0 W/m -4,3 C 1,1 C 9,7 km/h (2 Bft)
12.05.2020 01:35 1,1 C -1,1 C 67 % 1020,1 hPa 0,0 l/m 8,0 km/h (2 Bft) N-NW 337 0 min 0,0 UV-I 0 W/m -4,3 C -0,5 C 12,9 km/h (3 Bft)
12.05.2020 01:36 1,1 C -1,1 C 67 % 1020,1 hPa 0,0 l/m 6,4 km/h (2 Bft) N-NW 337 0 min 0,0 UV-I 0 W/m -4,3 C 1,1 C 9,7 km/h (2 Bft)
12.05.2020 01:37 1,1 C -1,1 C 67 % 1020,1 hPa 0,0 l/m 4,8 km/h (1 Bft) N 360 0 min 0,0 UV-I 0 W/m -4,3 C 1,1 C 8,0 km/h (2 Bft)
12.05.2020 01:38 1,1 C -1,1 C 67 % 1020,2 hPa 0,0 l/m 8,0 km/h (2 Bft) N-NW 337 0 min 0,0 UV-I 0 W/m -4,3 C -0,5 C 14,5 km/h (3 Bft)
12.05.2020 01:39 1,1 C -1,1 C 67 % 1020,3 hPa 0,0 l/m 9,7 km/h (2 Bft) N 360 0 min 0,0 UV-I 0 W/m -4,3 C -2,0 C 16,1 km/h (3 Bft)
12.05.2020 01:40 1,1 C -1,1 C 67 % 1020,1 hPa 0,0 l/m 6,4 km/h (2 Bft) N 360 0 min 0,0 UV-I 0 W/m -4,3 C 1,1 C 8,0 km/h (2 Bft)
12.05.2020 01:41 1,1 C -1,1 C 67 % 1020,1 hPa 0,0 l/m 3,2 km/h (1 Bft) N 360 0 min 0,0 UV-I 0 W/m -4,3 C 1,1 C 8,0 km/h (2 Bft)
12.05.2020 01:42 1,0 C -1,1 C 67 % 1020,3 hPa 0,0 l/m 4,8 km/h (1 Bft) N-NW 337 0 min 0,0 UV-I 0 W/m -4,4 C 1,0 C 9,7 km/h (2 Bft)
12.05.2020 01:43 1,0 C -1,1 C 67 % 1020,2 hPa 0,0 l/m 4,8 km/h (1 Bft) N-NW 337 0 min 0,0 UV-I 0 W/m -4,4 C 1,0 C 9,7 km/h (2 Bft)
12.05.2020 01:44 0,9 C -1,1 C 67 % 1020,1 hPa 0,0 l/m 6,4 km/h (2 Bft) N 360 0 min 0,0 UV-I 0 W/m -4,5 C 0,9 C 9,7 km/h (2 Bft)
12.05.2020 01:45 1,0 C -1,1 C 67 % 1020,2 hPa 0,0 l/m 6,4 km/h (2 Bft) N 360 0 min 0,0 UV-I 0 W/m -4,4 C 1,0 C 8,0 km/h (2 Bft)
12.05.2020 01:46 0,9 C -1,1 C 68 % 1020,2 hPa 0,0 l/m 6,4 km/h (2 Bft) N-NO 22 0 min 0,0 UV-I 0 W/m -4,3 C 0,9 C 9,7 km/h (2 Bft)
12.05.2020 01:47 0,9 C -1,1 C 68 % 1020,2 hPa 0,0 l/m 9,7 km/h (2 Bft) N 360 0 min 0,0 UV-I 0 W/m -4,3 C -2,2 C 12,9 km/h (3 Bft)
12.05.2020 01:48 0,9 C -1,1 C 68 % 1020,3 hPa 0,0 l/m 8,0 km/h (2 Bft) N 360 0 min 0,0 UV-I 0 W/m -4,3 C -0,7 C 9,7 km/h (2 Bft)
12.05.2020 01:49 0,9 C -1,1 C 68 % 1020,3 hPa 0,0 l/m 6,4 km/h (2 Bft) N-NW 337 0 min 0,0 UV-I 0 W/m -4,3 C 0,9 C 8,0 km/h (2 Bft)
12.05.2020 01:50 0,9 C -1,1 C 68 % 1020,3 hPa 0,0 l/m 6,4 km/h (2 Bft) N 360 0 min 0,0 UV-I 0 W/m -4,3 C 0,9 C 9,7 km/h (2 Bft)
12.05.2020 01:51 0,8 C -1,1 C 69 % 1020,2 hPa 0,0 l/m 6,4 km/h (2 Bft) N-NW 337 0 min 0,0 UV-I 0 W/m -4,2 C 0,8 C 8,0 km/h (2 Bft)
12.05.2020 01:52 0,8 C -1,1 C 69 % 1020,3 hPa 0,0 l/m 4,8 km/h (1 Bft) N-NW 337 0 min 0,0 UV-I 0 W/m -4,2 C 0,8 C 8,0 km/h (2 Bft)
12.05.2020 01:53 0,8 C -1,1 C 69 % 1020,3 hPa 0,0 l/m 6,4 km/h (2 Bft) N-NW 337 0 min 0,0 UV-I 0 W/m -4,2 C 0,8 C 9,7 km/h (2 Bft)
12.05.2020 01:54 0,8 C -1,1 C 69 % 1020,4 hPa 0,0 l/m 3,2 km/h (1 Bft) N-NW 337 0 min 0,0 UV-I 0 W/m -4,2 C 0,8 C 6,4 km/h (2 Bft)
12.05.2020 01:55 0,7 C -1,7 C 69 % 1020,4 hPa 0,0 l/m 6,4 km/h (2 Bft) N-NW 337 0 min 0,0 UV-I 0 W/m -4,3 C 0,7 C 9,7 km/h (2 Bft)
12.05.2020 01:56 0,7 C -1,7 C 69 % 1020,3 hPa 0,0 l/m 4,8 km/h (1 Bft) N-NW 337 0 min 0,0 UV-I 0 W/m -4,3 C 0,7 C 8,0 km/h (2 Bft)
12.05.2020 01:57 0,7 C -1,7 C 69 % 1020,3 hPa 0,0 l/m 6,4 km/h (2 Bft) N 360 0 min 0,0 UV-I 0 W/m -4,3 C 0,7 C 12,9 km/h (3 Bft)
12.05.2020 01:58 0,7 C -1,7 C 69 % 1020,3 hPa 0,0 l/m 9,7 km/h (2 Bft) N-NW 337 0 min 0,0 UV-I 0 W/m -4,3 C -2,4 C 14,5 km/h (3 Bft)
12.05.2020 01:59 0,7 C -1,7 C 69 % 1020,4 hPa 0,0 l/m 6,4 km/h (2 Bft) N-NW 337 0 min 0,0 UV-I 0 W/m -4,3 C 0,7 C 9,7 km/h (2 Bft)
12.05.2020 02:00 0,7 C -1,7 C 70 % 1020,4 hPa 0,0 l/m 6,4 km/h (2 Bft) N-NW 337 0 min 0,0 UV-I 0 W/m -4,1 C 0,7 C 9,7 km/h (2 Bft)
12.05.2020 02:01 0,7 C -1,7 C 70 % 1020,4 hPa 0,0 l/m 6,4 km/h (2 Bft) N 360 0 min 0,0 UV-I 0 W/m -4,1 C 0,7 C 8,0 km/h (2 Bft)
12.05.2020 02:02 0,7 C -1,7 C 70 % 1020,4 hPa 0,0 l/m 6,4 km/h (2 Bft) N 360 0 min 0,0 UV-I 0 W/m -4,1 C 0,7 C 8,0 km/h (2 Bft)
12.05.2020 02:03 0,6 C -1,7 C 70 % 1020,4 hPa 0,0 l/m 8,0 km/h (2 Bft) N 360 0 min 0,0 UV-I 0 W/m -4,2 C -1,0 C 11,3 km/h (2 Bft)
12.05.2020 02:04 0,6 C -1,7 C 70 % 1020,4 hPa 0,0 l/m 8,0 km/h (2 Bft) N 360 0 min 0,0 UV-I 0 W/m -4,2 C -1,0 C 11,3 km/h (2 Bft)
12.05.2020 02:05 0,6 C -1,7 C 71 % 1020,4 hPa 0,0 l/m 8,0 km/h (2 Bft) N 360 0 min 0,0 UV-I 0 W/m -4,0 C -1,0 C 12,9 km/h (3 Bft)
12.05.2020 02:06 0,7 C -1,7 C 70 % 1020,4 hPa 0,0 l/m 6,4 km/h (2 Bft) N-NW 337 0 min 0,0 UV-I 0 W/m -4,1 C 0,7 C 8,0 km/h (2 Bft)
12.05.2020 02:07 0,6 C -1,7 C 71 % 1020,4 hPa 0,0 l/m 6,4 km/h (2 Bft) N 360 0 min 0,0 UV-I 0 W/m -4,0 C 0,6 C 9,7 km/h (2 Bft)
12.05.2020 02:08 0,6 C -1,7 C 71 % 1020,3 hPa 0,0 l/m 8,0 km/h (2 Bft) N 360 0 min 0,0 UV-I 0 W/m -4,0 C -1,0 C 12,9 km/h (3 Bft)
12.05.2020 02:09 0,6 C -1,7 C 71 % 1020,3 hPa 0,0 l/m 9,7 km/h (2 Bft) N-NW 337 0 min 0,0 UV-I 0 W/m -4,0 C -2,5 C 14,5 km/h (3 Bft)
12.05.2020 02:10 0,6 C -1,7 C 71 % 1020,2 hPa 0,0 l/m 11,3 km/h (2 Bft) N 360 0 min 0,0 UV-I 0 W/m -4,0 C -3,8 C 14,5 km/h (3 Bft)
12.05.2020 02:11 0,6 C -1,7 C 71 % 1020,2 hPa 0,0 l/m 9,7 km/h (2 Bft) N 360 0 min 0,0 UV-I 0 W/m -4,0 C -2,5 C 14,5 km/h (3 Bft)
12.05.2020 02:12 0,6 C -1,7 C 72 % 1020,3 hPa 0,0 l/m 8,0 km/h (2 Bft) N 360 0 min 0,0 UV-I 0 W/m -3,9 C -1,0 C 8,0 km/h (2 Bft)
12.05.2020 02:13 0,6 C -1,7 C 72 % 1020,2 hPa 0,0 l/m 8,0 km/h (2 Bft) N 360 0 min 0,0 UV-I 0 W/m -3,9 C -1,0 C 11,3 km/h (2 Bft)
12.05.2020 02:14 0,6 C -1,7 C 72 % 1020,3 hPa 0,0 l/m 6,4 km/h (2 Bft) N 360 0 min 0,0 UV-I 0 W/m -3,9 C 0,6 C 8,0 km/h (2 Bft)
12.05.2020 02:15 0,6 C -1,7 C 72 % 1020,3 hPa 0,0 l/m 6,4 km/h (2 Bft) N 360 0 min 0,0 UV-I 0 W/m -3,9 C 0,6 C 8,0 km/h (2 Bft)
12.05.2020 02:16 0,6 C -1,7 C 72 % 1020,4 hPa 0,0 l/m 6,4 km/h (2 Bft) N 360 0 min 0,0 UV-I 0 W/m -3,9 C 0,6 C 8,0 km/h (2 Bft)
12.05.2020 02:17 0,5 C -1,7 C 72 % 1020,3 hPa 0,0 l/m 8,0 km/h (2 Bft) N 360 0 min 0,0 UV-I 0 W/m -3,9 C -1,1 C 9,7 km/h (2 Bft)
12.05.2020 02:18 0,5 C -1,7 C 72 % 1020,3 hPa 0,0 l/m 9,7 km/h (2 Bft) N 360 0 min 0,0 UV-I 0 W/m -3,9 C -2,6 C 14,5 km/h (3 Bft)
12.05.2020 02:19 0,4 C -1,7 C 72 % 1020,3 hPa 0,0 l/m 8,0 km/h (2 Bft) N 360 0 min 0,0 UV-I 0 W/m -4,0 C -1,2 C 8,0 km/h (2 Bft)
12.05.2020 02:20 0,4 C -1,7 C 73 % 1020,3 hPa 0,0 l/m 8,0 km/h (2 Bft) N 360 0 min 0,0 UV-I 0 W/m -3,9 C -1,2 C 9,7 km/h (2 Bft)
12.05.2020 02:21 0,4 C -1,7 C 73 % 1020,3 hPa 0,0 l/m 8,0 km/h (2 Bft) N 360 0 min 0,0 UV-I 0 W/m -3,9 C -1,2 C 9,7 km/h (2 Bft)
12.05.2020 02:22 0,4 C -1,7 C 73 % 1020,1 hPa 0,0 l/m 8,0 km/h (2 Bft) N 360 0 min 0,0 UV-I 0 W/m -3,9 C -1,2 C 9,7 km/h (2 Bft)
12.05.2020 02:23 0,4 C -1,7 C 73 % 1020,2 hPa 0,0 l/m 6,4 km/h (2 Bft) N 360 0 min 0,0 UV-I 0 W/m -3,9 C 0,4 C 9,7 km/h (2 Bft)
12.05.2020 02:24 0,4 C -1,7 C 73 % 1020,2 hPa 0,0 l/m 8,0 km/h (2 Bft) N 360 0 min 0,0 UV-I 0 W/m -3,9 C -1,2 C 12,9 km/h (3 Bft)
12.05.2020 02:25 0,4 C -1,7 C 73 % 1020,2 hPa 0,0 l/m 6,4 km/h (2 Bft) N 360 0 min 0,0 UV-I 0 W/m -3,9 C 0,4 C 8,0 km/h (2 Bft)
12.05.2020 02:26 0,4 C -1,7 C 74 % 1020,2 hPa 0,0 l/m 4,8 km/h (1 Bft) N 360 0 min 0,0 UV-I 0 W/m -3,7 C 0,4 C 8,0 km/h (2 Bft)
12.05.2020 02:27 0,4 C -1,7 C 74 % 1020,3 hPa 0,0 l/m 6,4 km/h (2 Bft) N 360 0 min 0,0 UV-I 0 W/m -3,7 C 0,4 C 8,0 km/h (2 Bft)
12.05.2020 02:28 0,4 C -2,2 C 74 % 1020,2 hPa 0,0 l/m 6,4 km/h (2 Bft) N 360 0 min 0,0 UV-I 0 W/m -3,7 C 0,4 C 6,4 km/h (2 Bft)
12.05.2020 02:29 0,3 C -2,2 C 74 % 1020,3 hPa 0,0 l/m 4,8 km/h (1 Bft) N 360 0 min 0,0 UV-I 0 W/m -3,8 C 0,3 C 8,0 km/h (2 Bft)
12.05.2020 02:30 0,3 C -2,2 C 74 % 1020,3 hPa 0,0 l/m 6,4 km/h (2 Bft) N 360 0 min 0,0 UV-I 0 W/m -3,8 C 0,3 C 8,0 km/h (2 Bft)
12.05.2020 02:31 0,3 C -2,2 C 74 % 1020,3 hPa 0,0 l/m 6,4 km/h (2 Bft) N 360 0 min 0,0 UV-I 0 W/m -3,8 C 0,3 C 9,7 km/h (2 Bft)
12.05.2020 02:32 0,3 C -2,2 C 74 % 1020,2 hPa 0,0 l/m 4,8 km/h (1 Bft) N-NW 337 0 min 0,0 UV-I 0 W/m -3,8 C 0,3 C 8,0 km/h (2 Bft)
12.05.2020 02:33 0,2 C -2,2 C 74 % 1020,3 hPa 0,0 l/m 6,4 km/h (2 Bft) N 360 0 min 0,0 UV-I 0 W/m -3,9 C 0,2 C 8,0 km/h (2 Bft)
12.05.2020 02:34 0,2 C -2,2 C 74 % 1020,3 hPa 0,0 l/m 6,4 km/h (2 Bft) N 360 0 min 0,0 UV-I 0 W/m -3,9 C 0,2 C 8,0 km/h (2 Bft)
12.05.2020 02:35 0,2 C -2,2 C 75 % 1020,3 hPa 0,0 l/m 4,8 km/h (1 Bft) N 360 0 min 0,0 UV-I 0 W/m -3,7 C 0,2 C 6,4 km/h (2 Bft)
12.05.2020 02:36 0,2 C -2,2 C 75 % 1020,3 hPa 0,0 l/m 4,8 km/h (1 Bft) N 360 0 min 0,0 UV-I 0 W/m -3,7 C 0,2 C 6,4 km/h (2 Bft)
12.05.2020 02:37 0,2 C -2,2 C 75 % 1020,4 hPa 0,0 l/m 6,4 km/h (2 Bft) N-NW 337 0 min 0,0 UV-I 0 W/m -3,7 C 0,2 C 8,0 km/h (2 Bft)
12.05.2020 02:38 0,2 C -2,2 C 75 % 1020,4 hPa 0,0 l/m 8,0 km/h (2 Bft) N 360 0 min 0,0 UV-I 0 W/m -3,7 C -1,4 C 9,7 km/h (2 Bft)
12.05.2020 02:39 0,2 C -2,2 C 75 % 1020,4 hPa 0,0 l/m 4,8 km/h (1 Bft) N 360 0 min 0,0 UV-I 0 W/m -3,7 C 0,2 C 6,4 km/h (2 Bft)
12.05.2020 02:40 0,2 C -2,2 C 75 % 1020,4 hPa 0,0 l/m 6,4 km/h (2 Bft) N 360 0 min 0,0 UV-I 0 W/m -3,7 C 0,2 C 8,0 km/h (2 Bft)
12.05.2020 02:41 0,2 C -2,2 C 75 % 1020,4 hPa 0,0 l/m 4,8 km/h (1 Bft) N 360 0 min 0,0 UV-I 0 W/m -3,7 C 0,2 C 6,4 km/h (2 Bft)
12.05.2020 02:42 0,2 C -2,2 C 75 % 1020,4 hPa 0,0 l/m 4,8 km/h (1 Bft) N 360 0 min 0,0 UV-I 0 W/m -3,7 C 0,2 C 6,4 km/h (2 Bft)
12.05.2020 02:43 0,2 C -2,2 C 75 % 1020,5 hPa 0,0 l/m 4,8 km/h (1 Bft) N 360 0 min 0,0 UV-I 0 W/m -3,7 C 0,2 C 6,4 km/h (2 Bft)
12.05.2020 02:44 0,1 C -2,2 C 75 % 1020,4 hPa 0,0 l/m 6,4 km/h (2 Bft) N-NW 337 0 min 0,0 UV-I 0 W/m -3,8 C 0,1 C 6,4 km/h (2 Bft)
12.05.2020 02:45 0,1 C -2,2 C 75 % 1020,4 hPa 0,0 l/m 4,8 km/h (1 Bft) N-NW 337 0 min 0,0 UV-I 0 W/m -3,8 C 0,1 C 6,4 km/h (2 Bft)
12.05.2020 02:46 0,1 C -2,2 C 75 % 1020,5 hPa 0,0 l/m 3,2 km/h (1 Bft) N-NW 337 0 min 0,0 UV-I 0 W/m -3,8 C 0,1 C 6,4 km/h (2 Bft)
12.05.2020 02:47 0,2 C -2,2 C 75 % 1020,5 hPa 0,0 l/m 1,6 km/h (1 Bft) N-NW 337 0 min 0,0 UV-I 0 W/m -3,7 C 0,2 C 4,8 km/h (1 Bft)
12.05.2020 02:48 0,2 C -2,8 C 75 % 1020,5 hPa 0,0 l/m 3,2 km/h (1 Bft) N-NW 337 0 min 0,0 UV-I 0 W/m -3,7 C 0,2 C 4,8 km/h (1 Bft)
12.05.2020 02:49 0,2 C -2,8 C 75 % 1020,5 hPa 0,0 l/m 3,2 km/h (1 Bft) N-NW 337 0 min 0,0 UV-I 0 W/m -3,7 C 0,2 C 4,8 km/h (1 Bft)
12.05.2020 02:50 0,2 C -2,8 C 75 % 1020,5 hPa 0,0 l/m 3,2 km/h (1 Bft) N-NW 337 0 min 0,0 UV-I 0 W/m -3,7 C 0,2 C 4,8 km/h (1 Bft)
12.05.2020 02:51 0,1 C -2,8 C 75 % 1020,5 hPa 0,0 l/m 3,2 km/h (1 Bft) N-NW 337 0 min 0,0 UV-I 0 W/m -3,8 C 0,1 C 3,2 km/h (1 Bft)
12.05.2020 02:52 0,1 C -2,8 C 75 % 1020,5 hPa 0,0 l/m 3,2 km/h (1 Bft) N-NW 337 0 min 0,0 UV-I 0 W/m -3,8 C 0,1 C 4,8 km/h (1 Bft)
12.05.2020 02:53 0,1 C -2,8 C 75 % 1020,5 hPa 0,0 l/m 3,2 km/h (1 Bft) N-NW 337 0 min 0,0 UV-I 0 W/m -3,8 C 0,1 C 4,8 km/h (1 Bft)
12.05.2020 02:54 0,1 C -2,8 C 75 % 1020,6 hPa 0,0 l/m 3,2 km/h (1 Bft) N-NW 337 0 min 0,0 UV-I 0 W/m -3,8 C 0,1 C 3,2 km/h (1 Bft)
12.05.2020 02:55 0,0 C -2,8 C 75 % 1020,5 hPa 0,0 l/m 1,6 km/h (1 Bft) N-NW 337 0 min 0,0 UV-I 0 W/m -3,9 C 0,0 C 3,2 km/h (1 Bft)
12.05.2020 02:56 0,0 C -2,8 C 76 % 1020,6 hPa 0,0 l/m 3,2 km/h (1 Bft) N-NW 337 0 min 0,0 UV-I 0 W/m -3,7 C 0,0 C 4,8 km/h (1 Bft)
12.05.2020 02:57 0,1 C -2,8 C 76 % 1020,5 hPa 0,0 l/m 3,2 km/h (1 Bft) N-NW 337 0 min 0,0 UV-I 0 W/m -3,6 C 0,1 C 4,8 km/h (1 Bft)
12.05.2020 02:58 0,1 C -2,8 C 75 % 1020,6 hPa 0,0 l/m 3,2 km/h (1 Bft) N-NW 337 0 min 0,0 UV-I 0 W/m -3,8 C 0,1 C 4,8 km/h (1 Bft)
12.05.2020 02:59 0,1 C -2,8 C 76 % 1020,6 hPa 0,0 l/m 3,2 km/h (1 Bft) N-NW 337 0 min 0,0 UV-I 0 W/m -3,6 C 0,1 C 4,8 km/h (1 Bft)
12.05.2020 03:00 0,1 C -2,8 C 76 % 1020,6 hPa 0,0 l/m 4,8 km/h (1 Bft) N-NW 337 0 min 0,0 UV-I 0 W/m -3,6 C 0,1 C 4,8 km/h (1 Bft)
12.05.2020 03:01 0,1 C -2,8 C 75 % 1020,5 hPa 0,0 l/m 4,8 km/h (1 Bft) N-NW 337 0 min 0,0 UV-I 0 W/m -3,8 C 0,1 C 6,4 km/h (2 Bft)
12.05.2020 03:02 0,1 C -2,8 C 76 % 1020,5 hPa 0,0 l/m 4,8 km/h (1 Bft) N-NW 337 0 min 0,0 UV-I 0 W/m -3,6 C 0,1 C 4,8 km/h (1 Bft)
12.05.2020 03:03 0,1 C -2,8 C 76 % 1020,5 hPa 0,0 l/m 4,8 km/h (1 Bft) N-NW 337 0 min 0,0 UV-I 0 W/m -3,6 C 0,1 C 4,8 km/h (1 Bft)
12.05.2020 03:04 0,1 C -2,8 C 75 % 1020,5 hPa 0,0 l/m 4,8 km/h (1 Bft) N-NW 337 0 min 0,0 UV-I 0 W/m -3,8 C 0,1 C 6,4 km/h (2 Bft)
12.05.2020 03:05 0,1 C -2,8 C 76 % 1020,6 hPa 0,0 l/m 6,4 km/h (2 Bft) N-NW 337 0 min 0,0 UV-I 0 W/m -3,6 C 0,1 C 6,4 km/h (2 Bft)
12.05.2020 03:06 0,1 C -2,8 C 75 % 1020,5 hPa 0,0 l/m 4,8 km/h (1 Bft) N-NW 337 0 min 0,0 UV-I 0 W/m -3,8 C 0,1 C 6,4 km/h (2 Bft)
12.05.2020 03:07 0,1 C -2,8 C 75 % 1020,5 hPa 0,0 l/m 4,8 km/h (1 Bft) N-NW 337 0 min 0,0 UV-I 0 W/m -3,8 C 0,1 C 4,8 km/h (1 Bft)
12.05.2020 03:08 0,1 C -2,8 C 75 % 1020,4 hPa 0,0 l/m 3,2 km/h (1 Bft) N-NW 337 0 min 0,0 UV-I 0 W/m -3,8 C 0,1 C 4,8 km/h (1 Bft)
12.05.2020 03:09 0,1 C -2,8 C 75 % 1020,4 hPa 0,0 l/m 4,8 km/h (1 Bft) N 360 0 min 0,0 UV-I 0 W/m -3,8 C 0,1 C 6,4 km/h (2 Bft)
12.05.2020 03:10 0,1 C -2,8 C 75 % 1020,4 hPa 0,0 l/m 6,4 km/h (2 Bft) N 360 0 min 0,0 UV-I 0 W/m -3,8 C 0,1 C 8,0 km/h (2 Bft)
12.05.2020 03:11 0,1 C -2,8 C 76 % 1020,5 hPa 0,0 l/m 4,8 km/h (1 Bft) N 360 0 min 0,0 UV-I 0 W/m -3,6 C 0,1 C 6,4 km/h (2 Bft)
12.05.2020 03:12 0,1 C -2,8 C 76 % 1020,5 hPa 0,0 l/m 4,8 km/h (1 Bft) N 360 0 min 0,0 UV-I 0 W/m -3,6 C 0,1 C 6,4 km/h (2 Bft)
12.05.2020 03:13 0,1 C -2,8 C 76 % 1020,5 hPa 0,0 l/m 4,8 km/h (1 Bft) N 360 0 min 0,0 UV-I 0 W/m -3,6 C 0,1 C 6,4 km/h (2 Bft)
12.05.2020 03:14 0,1 C -2,8 C 76 % 1020,5 hPa 0,0 l/m 4,8 km/h (1 Bft) N 360 0 min 0,0 UV-I 0 W/m -3,6 C 0,1 C 6,4 km/h (2 Bft)
12.05.2020 03:15 0,0 C -2,8 C 76 % 1020,5 hPa 0,0 l/m 3,2 km/h (1 Bft) N 360 0 min 0,0 UV-I 0 W/m -3,7 C 0,0 C 4,8 km/h (1 Bft)
12.05.2020 03:16 0,0 C -2,8 C 76 % 1020,5 hPa 0,0 l/m 6,4 km/h (2 Bft) N-NW 337 0 min 0,0 UV-I 0 W/m -3,7 C 0,0 C 8,0 km/h (2 Bft)
12.05.2020 03:17 0,0 C -2,8 C 76 % 1020,5 hPa 0,0 l/m 6,4 km/h (2 Bft) N-NW 337 0 min 0,0 UV-I 0 W/m -3,7 C 0,0 C 8,0 km/h (2 Bft)
12.05.2020 03:18 -0,1 C -2,8 C 76 % 1020,5 hPa 0,0 l/m 4,8 km/h (1 Bft) N-NW 337 0 min 0,0 UV-I 0 W/m -3,8 C -0,1 C 6,4 km/h (2 Bft)
12.05.2020 03:19 -0,1 C -2,8 C 76 % 1020,4 hPa 0,0 l/m 4,8 km/h (1 Bft) N-NW 337 0 min 0,0 UV-I 0 W/m -3,8 C -0,1 C 8,0 km/h (2 Bft)
12.05.2020 03:20 -0,1 C -2,8 C 76 % 1020,5 hPa 0,0 l/m 6,4 km/h (2 Bft) N 360 0 min 0,0 UV-I 0 W/m -3,8 C -0,1 C 8,0 km/h (2 Bft)
12.05.2020 03:21 -0,1 C -2,8 C 76 % 1020,5 hPa 0,0 l/m 4,8 km/h (1 Bft) N-NW 337 0 min 0,0 UV-I 0 W/m -3,8 C -0,1 C 6,4 km/h (2 Bft)
12.05.2020 03:22 -0,1 C -2,8 C 76 % 1020,5 hPa 0,0 l/m 6,4 km/h (2 Bft) N-NW 337 0 min 0,0 UV-I 0 W/m -3,8 C -0,1 C 8,0 km/h (2 Bft)
12.05.2020 03:23 -0,1 C -2,8 C 76 % 1020,5 hPa 0,0 l/m 4,8 km/h (1 Bft) N-NW 337 0 min 0,0 UV-I 0 W/m -3,8 C -0,1 C 8,0 km/h (2 Bft)
12.05.2020 03:24 -0,2 C -2,8 C 76 % 1020,5 hPa 0,0 l/m 4,8 km/h (1 Bft) N-NW 337 0 min 0,0 UV-I 0 W/m -3,9 C -0,2 C 8,0 km/h (2 Bft)
12.05.2020 03:25 -0,2 C -2,8 C 76 % 1020,5 hPa 0,0 l/m 4,8 km/h (1 Bft) N-NW 337 0 min 0,0 UV-I 0 W/m -3,9 C -0,2 C 8,0 km/h (2 Bft)
12.05.2020 03:26 -0,1 C -2,8 C 76 % 1020,6 hPa 0,0 l/m 4,8 km/h (1 Bft) N-NW 337 0 min 0,0 UV-I 0 W/m -3,8 C -0,1 C 9,7 km/h (2 Bft)
12.05.2020 03:27 -0,2 C -2,8 C 76 % 1020,5 hPa 0,0 l/m 4,8 km/h (1 Bft) N-NW 337 0 min 0,0 UV-I 0 W/m -3,9 C -0,2 C 6,4 km/h (2 Bft)
12.05.2020 03:28 -0,2 C -2,8 C 76 % 1020,6 hPa 0,0 l/m 4,8 km/h (1 Bft) N 360 0 min 0,0 UV-I 0 W/m -3,9 C -0,2 C 6,4 km/h (2 Bft)
12.05.2020 03:29 -0,2 C -2,8 C 76 % 1020,7 hPa 0,0 l/m 4,8 km/h (1 Bft) N 360 0 min 0,0 UV-I 0 W/m -3,9 C -0,2 C 6,4 km/h (2 Bft)
12.05.2020 03:30 -0,2 C -2,8 C 77 % 1020,6 hPa 0,0 l/m 4,8 km/h (1 Bft) N 360 0 min 0,0 UV-I 0 W/m -3,7 C -0,2 C 8,0 km/h (2 Bft)
12.05.2020 03:31 -0,3 C -2,8 C 77 % 1020,6 hPa 0,0 l/m 3,2 km/h (1 Bft) N-NW 337 0 min 0,0 UV-I 0 W/m -3,8 C -0,3 C 4,8 km/h (1 Bft)
12.05.2020 03:32 -0,2 C -2,8 C 77 % 1020,6 hPa 0,0 l/m 3,2 km/h (1 Bft) N-NW 337 0 min 0,0 UV-I 0 W/m -3,7 C -0,2 C 3,2 km/h (1 Bft)
12.05.2020 03:33 -0,3 C -2,8 C 77 % 1020,7 hPa 0,0 l/m 3,2 km/h (1 Bft) N-NW 337 0 min 0,0 UV-I 0 W/m -3,8 C -0,3 C 4,8 km/h (1 Bft)
12.05.2020 03:34 -0,3 C -2,8 C 76 % 1020,6 hPa 0,0 l/m 3,2 km/h (1 Bft) N-NW 337 0 min 0,0 UV-I 0 W/m -4,0 C -0,3 C 4,8 km/h (1 Bft)
12.05.2020 03:35 -0,3 C -2,8 C 77 % 1020,6 hPa 0,0 l/m 3,2 km/h (1 Bft) N-NW 337 0 min 0,0 UV-I 0 W/m -3,8 C -0,3 C 4,8 km/h (1 Bft)
12.05.2020 03:36 -0,3 C -2,8 C 77 % 1020,6 hPa 0,0 l/m 3,2 km/h (1 Bft) N-NW 337 0 min 0,0 UV-I 0 W/m -3,8 C -0,3 C 6,4 km/h (2 Bft)
12.05.2020 03:37 -0,3 C -2,8 C 77 % 1020,6 hPa 0,0 l/m 1,6 km/h (1 Bft) N-NW 337 0 min 0,0 UV-I 0 W/m -3,8 C -0,3 C 3,2 km/h (1 Bft)
12.05.2020 03:38 -0,3 C -2,8 C 76 % 1020,6 hPa 0,0 l/m 1,6 km/h (1 Bft) N-NW 337 0 min 0,0 UV-I 0 W/m -4,0 C -0,3 C 4,8 km/h (1 Bft)
12.05.2020 03:39 -0,4 C -2,8 C 76 % 1020,6 hPa 0,0 l/m 3,2 km/h (1 Bft) N-NW 337 0 min 0,0 UV-I 0 W/m -4,1 C -0,4 C 4,8 km/h (1 Bft)
12.05.2020 03:40 -0,4 C -2,8 C 77 % 1020,7 hPa 0,0 l/m 3,2 km/h (1 Bft) N-NW 337 0 min 0,0 UV-I 0 W/m -3,9 C -0,4 C 4,8 km/h (1 Bft)
12.05.2020 03:41 -0,4 C -2,8 C 77 % 1020,7 hPa 0,0 l/m 4,8 km/h (1 Bft) N-NW 337 0 min 0,0 UV-I 0 W/m -3,9 C -0,4 C 6,4 km/h (2 Bft)
12.05.2020 03:42 -0,4 C -2,8 C 77 % 1020,6 hPa 0,0 l/m 1,6 km/h (1 Bft) N 360 0 min 0,0 UV-I 0 W/m -3,9 C -0,4 C 4,8 km/h (1 Bft)
12.05.2020 03:43 -0,4 C -2,8 C 77 % 1020,7 hPa 0,0 l/m 3,2 km/h (1 Bft) N 360 0 min 0,0 UV-I 0 W/m -3,9 C -0,4 C 6,4 km/h (2 Bft)
12.05.2020 03:44 -0,5 C -2,8 C 77 % 1020,6 hPa 0,0 l/m 3,2 km/h (1 Bft) N 360 0 min 0,0 UV-I 0 W/m -4,0 C -0,5 C 4,8 km/h (1 Bft)
12.05.2020 03:45 -0,5 C -2,8 C 77 % 1020,7 hPa 0,0 l/m 3,2 km/h (1 Bft) N 360 0 min 0,0 UV-I 0 W/m -4,0 C -0,5 C 3,2 km/h (1 Bft)
12.05.2020 03:46 -0,6 C -2,8 C 77 % 1020,7 hPa 0,0 l/m 3,2 km/h (1 Bft) N 360 0 min 0,0 UV-I 0 W/m -4,1 C -0,6 C 4,8 km/h (1 Bft)
12.05.2020 03:47 -0,6 C -3,3 C 77 % 1020,7 hPa 0,0 l/m 3,2 km/h (1 Bft) N 360 0 min 0,0 UV-I 0 W/m -4,1 C -0,6 C 3,2 km/h (1 Bft)
12.05.2020 03:48 -0,6 C -3,3 C 77 % 1020,8 hPa 0,0 l/m 1,6 km/h (1 Bft) N 360 0 min 0,0 UV-I 0 W/m -4,1 C -0,6 C 4,8 km/h (1 Bft)
12.05.2020 03:49 -0,6 C -3,3 C 77 % 1020,7 hPa 0,0 l/m 4,8 km/h (1 Bft) N 360 0 min 0,0 UV-I 0 W/m -4,1 C -0,6 C 6,4 km/h (2 Bft)
12.05.2020 03:50 -0,6 C -3,3 C 77 % 1020,8 hPa 0,0 l/m 4,8 km/h (1 Bft) N 360 0 min 0,0 UV-I 0 W/m -4,1 C -0,6 C 6,4 km/h (2 Bft)
12.05.2020 03:51 -0,6 C -3,3 C 78 % 1020,8 hPa 0,0 l/m 1,6 km/h (1 Bft) N 360 0 min 0,0 UV-I 0 W/m -3,9 C -0,6 C 3,2 km/h (1 Bft)
12.05.2020 03:52 -0,6 C -3,3 C 78 % 1020,8 hPa 0,0 l/m 3,2 km/h (1 Bft) N 360 0 min 0,0 UV-I 0 W/m -3,9 C -0,6 C 3,2 km/h (1 Bft)
12.05.2020 03:53 -0,6 C -3,3 C 78 % 1020,8 hPa 0,0 l/m 1,6 km/h (1 Bft) N 360 0 min 0,0 UV-I 0 W/m -3,9 C -0,6 C 3,2 km/h (1 Bft)
12.05.2020 03:54 -0,7 C -3,3 C 77 % 1020,8 hPa 0,0 l/m 1,6 km/h (1 Bft) N 360 0 min 0,0 UV-I 0 W/m -4,2 C -0,7 C 3,2 km/h (1 Bft)
12.05.2020 03:55 -0,7 C -3,3 C 78 % 1020,8 hPa 0,0 l/m 1,6 km/h (1 Bft) N 360 0 min 0,0 UV-I 0 W/m -4,0 C -0,7 C 4,8 km/h (1 Bft)
12.05.2020 03:56 -0,8 C -3,3 C 78 % 1020,8 hPa 0,0 l/m 4,8 km/h (1 Bft) N 360 0 min 0,0 UV-I 0 W/m -4,1 C -0,8 C 6,4 km/h (2 Bft)
12.05.2020 03:57 -0,8 C -3,3 C 78 % 1020,7 hPa 0,0 l/m 1,6 km/h (1 Bft) N 360 0 min 0,0 UV-I 0 W/m -4,1 C -0,8 C 4,8 km/h (1 Bft)
12.05.2020 03:58 -0,8 C -3,3 C 79 % 1020,8 hPa 0,0 l/m 0,0 km/h (0 Bft) N 360 0 min 0,0 UV-I 0 W/m -4,0 C -0,8 C 1,6 km/h (1 Bft)
12.05.2020 03:59 -0,9 C -3,3 C 78 % 1020,8 hPa 0,0 l/m 0,0 km/h (0 Bft) N 360 0 min 0,0 UV-I 0 W/m -4,2 C -0,9 C 1,6 km/h (1 Bft)
12.05.2020 04:00 -1,1 C -3,3 C 79 % 1020,8 hPa 0,0 l/m 1,6 km/h (1 Bft) N 360 0 min 0,0 UV-I 0 W/m -4,3 C -1,1 C 3,2 km/h (1 Bft)
12.05.2020 04:01 -1,2 C -3,9 C 79 % 1020,8 hPa 0,0 l/m 1,6 km/h (1 Bft) N 360 0 min 0,0 UV-I 0 W/m -4,4 C -1,2 C 1,6 km/h (1 Bft)
12.05.2020 04:02 -1,3 C -3,9 C 79 % 1020,8 hPa 0,0 l/m 0,0 km/h (0 Bft) N 0 0 min 0,0 UV-I 0 W/m -4,5 C -1,3 C 0,0 km/h (0 Bft)
12.05.2020 04:03 -1,4 C -3,9 C 80 % 1020,9 hPa 0,0 l/m 0,0 km/h (0 Bft) N 0 0 min 0,0 UV-I 0 W/m -4,4 C -1,4 C 0,0 km/h (0 Bft)
12.05.2020 04:04 -1,4 C -3,9 C 81 % 1020,8 hPa 0,0 l/m 0,0 km/h (0 Bft) N 0 0 min 0,0 UV-I 0 W/m -4,2 C -1,4 C 0,0 km/h (0 Bft)
12.05.2020 04:05 -1,5 C -3,9 C 81 % 1020,8 hPa 0,0 l/m 0,0 km/h (0 Bft) N 360 0 min 0,0 UV-I 0 W/m -4,3 C -1,5 C 1,6 km/h (1 Bft)
12.05.2020 04:06 -1,5 C -3,9 C 81 % 1020,8 hPa 0,0 l/m 0,0 km/h (0 Bft) N 360 0 min 0,0 UV-I 0 W/m -4,3 C -1,5 C 1,6 km/h (1 Bft)
12.05.2020 04:07 -1,6 C -3,9 C 81 % 1020,8 hPa 0,0 l/m 0,0 km/h (0 Bft) N 360 0 min 0,0 UV-I 0 W/m -4,4 C -1,6 C 1,6 km/h (1 Bft)
12.05.2020 04:08 -1,6 C -3,9 C 82 % 1020,9 hPa 0,0 l/m 0,0 km/h (0 Bft) N 0 0 min 0,0 UV-I 0 W/m -4,3 C -1,6 C 0,0 km/h (0 Bft)
12.05.2020 04:09 -1,6 C -3,9 C 82 % 1020,8 hPa 0,0 l/m 0,0 km/h (0 Bft) N 360 0 min 0,0 UV-I 0 W/m -4,3 C -1,6 C 1,6 km/h (1 Bft)
12.05.2020 04:10 -1,6 C -3,9 C 82 % 1020,8 hPa 0,0 l/m 0,0 km/h (0 Bft) N 0 0 min 0,0 UV-I 0 W/m -4,3 C -1,6 C 0,0 km/h (0 Bft)
12.05.2020 04:11 -1,6 C -3,9 C 82 % 1020,9 hPa 0,0 l/m 0,0 km/h (0 Bft) N 0 0 min 0,0 UV-I 0 W/m -4,3 C -1,6 C 0,0 km/h (0 Bft)
12.05.2020 04:12 -1,7 C -3,9 C 82 % 1020,9 hPa 0,0 l/m 0,0 km/h (0 Bft) N 360 0 min 0,0 UV-I 0 W/m -4,4 C -1,7 C 1,6 km/h (1 Bft)
12.05.2020 04:13 -1,7 C -3,9 C 82 % 1020,9 hPa 0,0 l/m 0,0 km/h (0 Bft) N 360 0 min 0,0 UV-I 0 W/m -4,4 C -1,7 C 1,6 km/h (1 Bft)
12.05.2020 04:14 -1,7 C -3,9 C 82 % 1020,8 hPa 0,0 l/m 1,6 km/h (1 Bft) N 360 0 min 0,0 UV-I 0 W/m -4,4 C -1,7 C 1,6 km/h (1 Bft)
12.05.2020 04:15 -1,7 C -3,9 C 82 % 1020,9 hPa 0,0 l/m 0,0 km/h (0 Bft) N 360 0 min 0,0 UV-I 0 W/m -4,4 C -1,7 C 1,6 km/h (1 Bft)
12.05.2020 04:16 -1,7 C -3,9 C 83 % 1020,9 hPa 0,0 l/m 1,6 km/h (1 Bft) N 360 0 min 0,0 UV-I 0 W/m -4,2 C -1,7 C 3,2 km/h (1 Bft)
12.05.2020 04:17 -1,7 C -3,3 C 83 % 1021,0 hPa 0,0 l/m 1,6 km/h (1 Bft) N 360 0 min 0,0 UV-I 0 W/m -4,2 C -1,7 C 3,2 km/h (1 Bft)
12.05.2020 04:18 -1,7 C -3,3 C 83 % 1021,0 hPa 0,0 l/m 1,6 km/h (1 Bft) N 360 0 min 0,0 UV-I 0 W/m -4,2 C -1,7 C 3,2 km/h (1 Bft)
12.05.2020 04:19 -1,7 C -3,3 C 83 % 1021,0 hPa 0,0 l/m 1,6 km/h (1 Bft) N 360 0 min 0,0 UV-I 0 W/m -4,2 C -1,7 C 3,2 km/h (1 Bft)
12.05.2020 04:20 -1,8 C -3,3 C 83 % 1021,0 hPa 0,0 l/m 1,6 km/h (1 Bft) N 360 0 min 0,0 UV-I 0 W/m -4,3 C -1,8 C 3,2 km/h (1 Bft)
12.05.2020 04:21 -1,8 C -3,3 C 83 % 1021,0 hPa 0,0 l/m 1,6 km/h (1 Bft) N 360 0 min 0,0 UV-I 0 W/m -4,3 C -1,8 C 3,2 km/h (1 Bft)
12.05.2020 04:22 -1,8 C -3,3 C 83 % 1020,9 hPa 0,0 l/m 1,6 km/h (1 Bft) N 360 0 min 0,0 UV-I 0 W/m -4,3 C -1,8 C 3,2 km/h (1 Bft)
12.05.2020 04:23 -1,8 C -3,9 C 83 % 1021,0 hPa 0,0 l/m 3,2 km/h (1 Bft) N 360 0 min 0,0 UV-I 0 W/m -4,3 C -1,8 C 3,2 km/h (1 Bft)
12.05.2020 04:24 -1,7 C -3,9 C 83 % 1021,0 hPa 0,0 l/m 3,2 km/h (1 Bft) N 360 0 min 0,0 UV-I 0 W/m -4,2 C -1,7 C 3,2 km/h (1 Bft)
12.05.2020 04:25 -1,7 C -3,9 C 83 % 1020,9 hPa 0,0 l/m 3,2 km/h (1 Bft) N 360 0 min 0,0 UV-I 0 W/m -4,2 C -1,7 C 3,2 km/h (1 Bft)
12.05.2020 04:26 -1,7 C -3,9 C 83 % 1021,0 hPa 0,0 l/m 3,2 km/h (1 Bft) N 360 0 min 0,0 UV-I 0 W/m -4,2 C -1,7 C 4,8 km/h (1 Bft)
12.05.2020 04:27 -1,6 C -3,9 C 83 % 1020,9 hPa 0,0 l/m 3,2 km/h (1 Bft) N 360 0 min 0,0 UV-I 0 W/m -4,1 C -1,6 C 4,8 km/h (1 Bft)
12.05.2020 04:28 -1,6 C -3,9 C 83 % 1021,0 hPa 0,0 l/m 3,2 km/h (1 Bft) N 360 0 min 0,0 UV-I 0 W/m -4,1 C -1,6 C 4,8 km/h (1 Bft)
12.05.2020 04:29 -1,6 C -3,9 C 83 % 1021,0 hPa 0,0 l/m 3,2 km/h (1 Bft) N 360 0 min 0,0 UV-I 0 W/m -4,1 C -1,6 C 4,8 km/h (1 Bft)
12.05.2020 04:30 -1,6 C -3,9 C 83 % 1020,9 hPa 0,0 l/m 3,2 km/h (1 Bft) N 360 0 min 0,0 UV-I 0 W/m -4,1 C -1,6 C 4,8 km/h (1 Bft)
12.05.2020 04:31 -1,6 C -3,9 C 83 % 1020,9 hPa 0,0 l/m 3,2 km/h (1 Bft) N 360 0 min 0,0 UV-I 0 W/m -4,1 C -1,6 C 4,8 km/h (1 Bft)
12.05.2020 04:32 -1,5 C -3,9 C 83 % 1020,9 hPa 0,0 l/m 3,2 km/h (1 Bft) N 360 0 min 0,0 UV-I 0 W/m -4,0 C -1,5 C 4,8 km/h (1 Bft)
12.05.2020 04:33 -1,5 C -3,9 C 83 % 1020,8 hPa 0,0 l/m 3,2 km/h (1 Bft) N 360 0 min 0,0 UV-I 0 W/m -4,0 C -1,5 C 4,8 km/h (1 Bft)
12.05.2020 04:34 -1,5 C -3,9 C 83 % 1021,0 hPa 0,0 l/m 4,8 km/h (1 Bft) N 360 0 min 0,0 UV-I 0 W/m -4,0 C -1,5 C 4,8 km/h (1 Bft)
12.05.2020 04:35 -1,5 C -3,9 C 83 % 1021,0 hPa 0,0 l/m 3,2 km/h (1 Bft) N 360 0 min 0,0 UV-I 0 W/m -4,0 C -1,5 C 4,8 km/h (1 Bft)
12.05.2020 04:36 -1,4 C -3,9 C 83 % 1020,9 hPa 0,0 l/m 3,2 km/h (1 Bft) N 360 0 min 0,0 UV-I 0 W/m -3,9 C -1,4 C 4,8 km/h (1 Bft)
12.05.2020 04:37 -1,4 C -3,9 C 83 % 1021,0 hPa 0,0 l/m 3,2 km/h (1 Bft) N 360 0 min 0,0 UV-I 0 W/m -3,9 C -1,4 C 4,8 km/h (1 Bft)
12.05.2020 04:38 -1,4 C -3,9 C 83 % 1021,0 hPa 0,0 l/m 3,2 km/h (1 Bft) N 360 0 min 0,0 UV-I 0 W/m -3,9 C -1,4 C 4,8 km/h (1 Bft)
12.05.2020 04:39 -1,4 C -3,9 C 83 % 1021,0 hPa 0,0 l/m 3,2 km/h (1 Bft) N 360 0 min 0,0 UV-I 0 W/m -3,9 C -1,4 C 4,8 km/h (1 Bft)
12.05.2020 04:40 -1,4 C -3,9 C 83 % 1021,0 hPa 0,0 l/m 3,2 km/h (1 Bft) N 360 0 min 0,0 UV-I 0 W/m -3,9 C -1,4 C 3,2 km/h (1 Bft)
12.05.2020 04:41 -1,4 C -3,9 C 82 % 1020,9 hPa 0,0 l/m 3,2 km/h (1 Bft) N 360 0 min 0,0 UV-I 0 W/m -4,1 C -1,4 C 4,8 km/h (1 Bft)
12.05.2020 04:42 -1,4 C -3,9 C 82 % 1021,0 hPa 0,0 l/m 3,2 km/h (1 Bft) N 360 0 min 0,0 UV-I 0 W/m -4,1 C -1,4 C 4,8 km/h (1 Bft)
12.05.2020 04:43 -1,4 C -3,9 C 82 % 1021,1 hPa 0,0 l/m 3,2 km/h (1 Bft) N 360 0 min 0,0 UV-I 0 W/m -4,1 C -1,4 C 6,4 km/h (2 Bft)
12.05.2020 04:44 -1,4 C -3,9 C 82 % 1021,1 hPa 0,0 l/m 3,2 km/h (1 Bft) N 360 0 min 0,0 UV-I 0 W/m -4,1 C -1,4 C 3,2 km/h (1 Bft)
12.05.2020 04:45 -1,4 C -3,9 C 83 % 1021,1 hPa 0,0 l/m 3,2 km/h (1 Bft) N 360 0 min 0,0 UV-I 0 W/m -3,9 C -1,4 C 3,2 km/h (1 Bft)
12.05.2020 04:46 -1,4 C -3,9 C 83 % 1021,1 hPa 0,0 l/m 3,2 km/h (1 Bft) N 360 0 min 0,0 UV-I 0 W/m -3,9 C -1,4 C 4,8 km/h (1 Bft)
12.05.2020 04:47 -1,5 C -3,9 C 83 % 1021,1 hPa 0,0 l/m 1,6 km/h (1 Bft) N 360 0 min 0,0 UV-I 0 W/m -4,0 C -1,5 C 3,2 km/h (1 Bft)
12.05.2020 04:48 -1,6 C -3,9 C 83 % 1021,1 hPa 0,0 l/m 1,6 km/h (1 Bft) N 360 0 min 0,0 UV-I 0 W/m -4,1 C -1,6 C 3,2 km/h (1 Bft)
12.05.2020 04:49 -1,6 C -3,9 C 82 % 1021,0 hPa 0,0 l/m 1,6 km/h (1 Bft) N 360 0 min 0,0 UV-I 0 W/m -4,3 C -1,6 C 4,8 km/h (1 Bft)
12.05.2020 04:50 -1,7 C -4,4 C 83 % 1021,0 hPa 0,0 l/m 0,0 km/h (0 Bft) N 360 0 min 0,0 UV-I 0 W/m -4,2 C -1,7 C 1,6 km/h (1 Bft)
12.05.2020 04:51 -1,8 C -4,4 C 83 % 1021,0 hPa 0,0 l/m 3,2 km/h (1 Bft) N 360 0 min 0,0 UV-I 0 W/m -4,3 C -1,8 C 3,2 km/h (1 Bft)
12.05.2020 04:52 -1,9 C -4,4 C 83 % 1021,0 hPa 0,0 l/m 3,2 km/h (1 Bft) N 360 0 min 0,0 UV-I 0 W/m -4,4 C -1,9 C 4,8 km/h (1 Bft)
12.05.2020 04:53 -1,9 C -4,4 C 83 % 1021,0 hPa 0,0 l/m 3,2 km/h (1 Bft) N 360 0 min 0,0 UV-I 0 W/m -4,4 C -1,9 C 3,2 km/h (1 Bft)
12.05.2020 04:54 -1,9 C -4,4 C 83 % 1021,0 hPa 0,0 l/m 3,2 km/h (1 Bft) N 360 0 min 0,0 UV-I 0 W/m -4,4 C -1,9 C 4,8 km/h (1 Bft)
12.05.2020 04:55 -2,0 C -4,4 C 84 % 1021,0 hPa 0,0 l/m 1,6 km/h (1 Bft) N 360 0 min 0,0 UV-I 0 W/m -4,3 C -2,0 C 3,2 km/h (1 Bft)
12.05.2020 04:56 -2,1 C -4,4 C 84 % 1021,0 hPa 0,0 l/m 1,6 km/h (1 Bft) N 360 0 min 0,0 UV-I 0 W/m -4,4 C -2,1 C 4,8 km/h (1 Bft)
12.05.2020 04:57 -2,1 C -4,4 C 84 % 1021,1 hPa 0,0 l/m 0,0 km/h (0 Bft) N 360 0 min 0,0 UV-I 0 W/m -4,4 C -2,1 C 1,6 km/h (1 Bft)
12.05.2020 04:58 -2,1 C -4,4 C 84 % 1021,0 hPa 0,0 l/m 0,0 km/h (0 Bft) N 0 0 min 0,0 UV-I 0 W/m -4,4 C -2,1 C 0,0 km/h (0 Bft)
12.05.2020 04:59 -2,2 C -4,4 C 84 % 1020,9 hPa 0,0 l/m 0,0 km/h (0 Bft) N 360 0 min 0,0 UV-I 0 W/m -4,5 C -2,2 C 1,6 km/h (1 Bft)
12.05.2020 05:00 -2,2 C -4,4 C 84 % 1021,0 hPa 0,0 l/m 1,6 km/h (1 Bft) N 360 0 min 0,0 UV-I 0 W/m -4,5 C -2,2 C 1,6 km/h (1 Bft)
12.05.2020 05:01 -2,3 C -4,4 C 84 % 1021,0 hPa 0,0 l/m 1,6 km/h (1 Bft) N 360 0 min 0,0 UV-I 0 W/m -4,6 C -2,3 C 3,2 km/h (1 Bft)
12.05.2020 05:02 -2,4 C -4,4 C 84 % 1021,0 hPa 0,0 l/m 0,0 km/h (0 Bft) N 360 0 min 0,0 UV-I 0 W/m -4,7 C -2,4 C 1,6 km/h (1 Bft)
12.05.2020 05:03 -2,4 C -4,4 C 84 % 1021,0 hPa 0,0 l/m 0,0 km/h (0 Bft) N 360 0 min 0,0 UV-I 0 W/m -4,7 C -2,4 C 1,6 km/h (1 Bft)
12.05.2020 05:04 -2,4 C -4,4 C 85 % 1020,8 hPa 0,0 l/m 0,0 km/h (0 Bft) N 360 0 min 0,0 UV-I 0 W/m -4,6 C -2,4 C 1,6 km/h (1 Bft)
12.05.2020 05:05 -2,4 C -4,4 C 85 % 1020,9 hPa 0,0 l/m 1,6 km/h (1 Bft) N 360 0 min 0,0 UV-I 0 W/m -4,6 C -2,4 C 1,6 km/h (1 Bft)
12.05.2020 05:06 -2,4 C -4,4 C 85 % 1020,8 hPa 0,0 l/m 0,0 km/h (0 Bft) N 360 0 min 0,0 UV-I 0 W/m -4,6 C -2,4 C 1,6 km/h (1 Bft)
12.05.2020 05:07 -2,4 C -4,4 C 85 % 1021,0 hPa 0,0 l/m 0,0 km/h (0 Bft) N 0 0 min 0,0 UV-I 0 W/m -4,6 C -2,4 C 0,0 km/h (0 Bft)
12.05.2020 05:08 -2,4 C -4,4 C 85 % 1020,9 hPa 0,0 l/m 1,6 km/h (1 Bft) N 360 0 min 0,0 UV-I 0 W/m -4,6 C -2,4 C 1,6 km/h (1 Bft)
12.05.2020 05:09 -2,3 C -4,4 C 86 % 1021,0 hPa 0,0 l/m 0,0 km/h (0 Bft) N 360 0 min 0,0 UV-I 0 W/m -4,3 C -2,3 C 1,6 km/h (1 Bft)
12.05.2020 05:10 -2,3 C -4,4 C 85 % 1020,9 hPa 0,0 l/m 0,0 km/h (0 Bft) N 0 0 min 0,0 UV-I 0 W/m -4,5 C -2,3 C 0,0 km/h (0 Bft)
12.05.2020 05:11 -2,3 C -4,4 C 85 % 1021,0 hPa 0,0 l/m 0,0 km/h (0 Bft) N 0 0 min 0,0 UV-I 0 W/m -4,5 C -2,3 C 0,0 km/h (0 Bft)
12.05.2020 05:12 -2,3 C -4,4 C 85 % 1020,9 hPa 0,0 l/m 0,0 km/h (0 Bft) N 0 0 min 0,0 UV-I 0 W/m -4,5 C -2,3 C 0,0 km/h (0 Bft)
12.05.2020 05:13 -2,3 C -4,4 C 85 % 1020,9 hPa 0,0 l/m 0,0 km/h (0 Bft) N 0 0 min 0,0 UV-I 0 W/m -4,5 C -2,3 C 0,0 km/h (0 Bft)
12.05.2020 05:14 -2,3 C -4,4 C 86 % 1021,0 hPa 0,0 l/m 1,6 km/h (1 Bft) N 360 0 min 0,0 UV-I 0 W/m -4,3 C -2,3 C 3,2 km/h (1 Bft)
12.05.2020 05:15 -2,2 C -4,4 C 86 % 1021,0 hPa 0,0 l/m 0,0 km/h (0 Bft) N 360 0 min 0,0 UV-I 0 W/m -4,2 C -2,2 C 3,2 km/h (1 Bft)
12.05.2020 05:16 -2,2 C -4,4 C 86 % 1021,0 hPa 0,0 l/m 0,0 km/h (0 Bft) N 360 0 min 0,0 UV-I 0 W/m -4,2 C -2,2 C 1,6 km/h (1 Bft)
12.05.2020 05:17 -2,2 C -4,4 C 86 % 1021,0 hPa 0,0 l/m 0,0 km/h (0 Bft) N 360 0 min 0,0 UV-I 0 W/m -4,2 C -2,2 C 1,6 km/h (1 Bft)
12.05.2020 05:18 -2,2 C -4,4 C 86 % 1021,0 hPa 0,0 l/m 0,0 km/h (0 Bft) N 360 0 min 0,0 UV-I 0 W/m -4,2 C -2,2 C 1,6 km/h (1 Bft)
12.05.2020 05:19 -2,1 C -4,4 C 86 % 1021,0 hPa 0,0 l/m 1,6 km/h (1 Bft) N 360 0 min 0,0 UV-I 0 W/m -4,1 C -2,1 C 3,2 km/h (1 Bft)
12.05.2020 05:20 -2,1 C -4,4 C 86 % 1021,0 hPa 0,0 l/m 0,0 km/h (0 Bft) N 360 0 min 0,0 UV-I 0 W/m -4,1 C -2,1 C 1,6 km/h (1 Bft)
12.05.2020 05:21 -2,1 C -4,4 C 86 % 1021,1 hPa 0,0 l/m 0,0 km/h (0 Bft) N 360 0 min 0,0 UV-I 0 W/m -4,1 C -2,1 C 3,2 km/h (1 Bft)
12.05.2020 05:22 -2,1 C -4,4 C 86 % 1021,1 hPa 0,0 l/m 1,6 km/h (1 Bft) N 360 0 min 0,0 UV-I 0 W/m -4,1 C -2,1 C 3,2 km/h (1 Bft)
12.05.2020 05:23 -2,2 C -4,4 C 85 % 1021,1 hPa 0,0 l/m 1,6 km/h (1 Bft) N 360 0 min 0,0 UV-I 0 W/m -4,4 C -2,2 C 1,6 km/h (1 Bft)
12.05.2020 05:24 -2,1 C -4,4 C 86 % 1021,1 hPa 0,0 l/m 0,0 km/h (0 Bft) N 360 0 min 0,0 UV-I 0 W/m -4,1 C -2,1 C 1,6 km/h (1 Bft)
12.05.2020 05:25 -2,1 C -4,4 C 86 % 1021,1 hPa 0,0 l/m 0,0 km/h (0 Bft) N 360 0 min 0,0 UV-I 0 W/m -4,1 C -2,1 C 1,6 km/h (1 Bft)
12.05.2020 05:26 -2,1 C -4,4 C 86 % 1021,1 hPa 0,0 l/m 0,0 km/h (0 Bft) N 360 0 min 0,0 UV-I 0 W/m -4,1 C -2,1 C 1,6 km/h (1 Bft)
12.05.2020 05:27 -2,1 C -4,4 C 86 % 1021,1 hPa 0,0 l/m 0,0 km/h (0 Bft) N 0 0 min 0,0 UV-I 0 W/m -4,1 C -2,1 C 0,0 km/h (0 Bft)
12.05.2020 05:28 -2,2 C -4,4 C 86 % 1021,1 hPa 0,0 l/m 0,0 km/h (0 Bft) N 0 0 min 0,0 UV-I 0 W/m -4,2 C -2,2 C 0,0 km/h (0 Bft)
12.05.2020 05:29 -2,2 C -4,4 C 86 % 1021,2 hPa 0,0 l/m 0,0 km/h (0 Bft) N 0 0 min 0,0 UV-I 0 W/m -4,2 C -2,2 C 0,0 km/h (0 Bft)
12.05.2020 05:30 -2,2 C -4,4 C 86 % 1021,1 hPa 0,0 l/m 0,0 km/h (0 Bft) N 0 0 min 0,0 UV-I 0 W/m -4,2 C -2,2 C 0,0 km/h (0 Bft)
12.05.2020 05:31 -2,2 C -4,4 C 86 % 1021,1 hPa 0,0 l/m 0,0 km/h (0 Bft) N 0 0 min 0,0 UV-I 0 W/m -4,2 C -2,2 C 0,0 km/h (0 Bft)
12.05.2020 05:32 -2,2 C -4,4 C 86 % 1021,1 hPa 0,0 l/m 0,0 km/h (0 Bft) N 0 0 min 0,0 UV-I 0 W/m -4,2 C -2,2 C 0,0 km/h (0 Bft)
12.05.2020 05:33 -2,2 C -4,4 C 86 % 1021,2 hPa 0,0 l/m 0,0 km/h (0 Bft) N 0 0 min 0,0 UV-I 0 W/m -4,2 C -2,2 C 0,0 km/h (0 Bft)
12.05.2020 05:34 -2,2 C -4,4 C 86 % 1021,2 hPa 0,0 l/m 0,0 km/h (0 Bft) N 0 0 min 0,0 UV-I 0 W/m -4,2 C -2,2 C 0,0 km/h (0 Bft)
12.05.2020 05:35 -2,3 C -4,4 C 86 % 1021,1 hPa 0,0 l/m 0,0 km/h (0 Bft) N 0 0 min 0,0 UV-I 0 W/m -4,3 C -2,3 C 0,0 km/h (0 Bft)
12.05.2020 05:36 -2,3 C -5,0 C 86 % 1021,1 hPa 0,0 l/m 0,0 km/h (0 Bft) N 0 0 min 0,0 UV-I 0 W/m -4,3 C -2,3 C 0,0 km/h (0 Bft)
12.05.2020 05:37 -2,3 C -4,4 C 86 % 1021,2 hPa 0,0 l/m 0,0 km/h (0 Bft) N 360 0 min 0,0 UV-I 0 W/m -4,3 C -2,3 C 1,6 km/h (1 Bft)
12.05.2020 05:38 -2,4 C -5,0 C 86 % 1021,2 hPa 0,0 l/m 0,0 km/h (0 Bft) N 360 0 min 0,0 UV-I 0 W/m -4,4 C -2,4 C 1,6 km/h (1 Bft)
12.05.2020 05:39 -2,4 C -5,0 C 86 % 1021,2 hPa 0,0 l/m 0,0 km/h (0 Bft) N 0 0 min 0,0 UV-I 0 W/m -4,4 C -2,4 C 0,0 km/h (0 Bft)
12.05.2020 05:40 -2,5 C -4,4 C 86 % 1021,2 hPa 0,0 l/m 0,0 km/h (0 Bft) N 0 0 min 0,0 UV-I 0 W/m -4,5 C -2,5 C 0,0 km/h (0 Bft)
12.05.2020 05:41 -2,5 C -4,4 C 86 % 1021,2 hPa 0,0 l/m 0,0 km/h (0 Bft) N 0 0 min 0,0 UV-I 0 W/m -4,5 C -2,5 C 0,0 km/h (0 Bft)
12.05.2020 05:42 -2,5 C -4,4 C 86 % 1021,2 hPa 0,0 l/m 0,0 km/h (0 Bft) N 0 0 min 0,0 UV-I 0 W/m -4,5 C -2,5 C 0,0 km/h (0 Bft)
12.05.2020 05:43 -2,5 C -4,4 C 86 % 1021,2 hPa 0,0 l/m 0,0 km/h (0 Bft) N 0 0 min 0,0 UV-I 0 W/m -4,5 C -2,5 C 0,0 km/h (0 Bft)
12.05.2020 05:44 -2,4 C -4,4 C 87 % 1021,2 hPa 0,0 l/m 0,0 km/h (0 Bft) N 0 0 min 0,0 UV-I 0 W/m -4,3 C -2,4 C 0,0 km/h (0 Bft)
12.05.2020 05:45 -2,4 C -4,4 C 87 % 1021,2 hPa 0,0 l/m 0,0 km/h (0 Bft) N 0 0 min 0,0 UV-I 0 W/m -4,3 C -2,4 C 0,0 km/h (0 Bft)
12.05.2020 05:46 -2,4 C -4,4 C 87 % 1021,3 hPa 0,0 l/m 0,0 km/h (0 Bft) N 0 0 min 0,0 UV-I 0 W/m -4,3 C -2,4 C 0,0 km/h (0 Bft)
12.05.2020 05:47 -2,3 C -4,4 C 87 % 1021,3 hPa 0,0 l/m 0,0 km/h (0 Bft) N 0 0 min 0,0 UV-I 0 W/m -4,2 C -2,3 C 0,0 km/h (0 Bft)
12.05.2020 05:48 -2,3 C -4,4 C 87 % 1021,3 hPa 0,0 l/m 0,0 km/h (0 Bft) N 0 0 min 0,0 UV-I 0 W/m -4,2 C -2,3 C 0,0 km/h (0 Bft)
12.05.2020 05:49 -2,2 C -4,4 C 87 % 1021,3 hPa 0,0 l/m 0,0 km/h (0 Bft) N 0 0 min 0,0 UV-I 0 W/m -4,1 C -2,2 C 0,0 km/h (0 Bft)
12.05.2020 05:50 -2,2 C -4,4 C 87 % 1021,3 hPa 0,0 l/m 0,0 km/h (0 Bft) N 0 0 min 0,0 UV-I 0 W/m -4,1 C -2,2 C 0,0 km/h (0 Bft)
12.05.2020 05:51 -2,3 C -4,4 C 87 % 1021,4 hPa 0,0 l/m 0,0 km/h (0 Bft) N 0 0 min 0,0 UV-I 0 W/m -4,2 C -2,3 C 0,0 km/h (0 Bft)
12.05.2020 05:52 -2,3 C -4,4 C 87 % 1021,3 hPa 0,0 l/m 0,0 km/h (0 Bft) N 0 0 min 0,0 UV-I 5 W/m -4,2 C -2,3 C 0,0 km/h (0 Bft)
12.05.2020 05:53 -2,3 C -4,4 C 86 % 1021,3 hPa 0,0 l/m 0,0 km/h (0 Bft) N 0 0 min 0,0 UV-I 5 W/m -4,3 C -2,3 C 0,0 km/h (0 Bft)
12.05.2020 05:54 -2,4 C -5,0 C 86 % 1021,4 hPa 0,0 l/m 0,0 km/h (0 Bft) N 0 0 min 0,0 UV-I 5 W/m -4,4 C -2,4 C 0,0 km/h (0 Bft)
12.05.2020 05:55 -2,5 C -5,0 C 86 % 1021,3 hPa 0,0 l/m 0,0 km/h (0 Bft) N 0 0 min 0,0 UV-I 5 W/m -4,5 C -2,5 C 0,0 km/h (0 Bft)
12.05.2020 05:56 -2,6 C -4,4 C 86 % 1021,4 hPa 0,0 l/m 1,6 km/h (1 Bft) N 360 0 min 0,0 UV-I 5 W/m -4,6 C -2,6 C 3,2 km/h (1 Bft)
12.05.2020 05:57 -2,7 C -5,0 C 86 % 1021,3 hPa 0,0 l/m 1,6 km/h (1 Bft) N 360 0 min 0,0 UV-I 7 W/m -4,7 C -2,7 C 1,6 km/h (1 Bft)
12.05.2020 05:58 -2,7 C -5,0 C 86 % 1021,4 hPa 0,0 l/m 1,6 km/h (1 Bft) N 360 0 min 0,0 UV-I 7 W/m -4,7 C -2,7 C 3,2 km/h (1 Bft)
12.05.2020 05:59 -2,8 C -5,0 C 87 % 1021,3 hPa 0,0 l/m 1,6 km/h (1 Bft) N 360 0 min 0,0 UV-I 7 W/m -4,7 C -2,8 C 3,2 km/h (1 Bft)
12.05.2020 06:00 -2,8 C -5,0 C 87 % 1021,4 hPa 0,0 l/m 1,6 km/h (1 Bft) N 360 0 min 0,0 UV-I 7 W/m -4,7 C -2,8 C 3,2 km/h (1 Bft)
12.05.2020 06:01 -2,8 C -5,0 C 87 % 1021,4 hPa 0,0 l/m 1,6 km/h (1 Bft) N 360 0 min 0,0 UV-I 9 W/m -4,7 C -2,8 C 1,6 km/h (1 Bft)
12.05.2020 06:02 -2,8 C -5,0 C 87 % 1021,5 hPa 0,0 l/m 0,0 km/h (0 Bft) N 360 0 min 0,0 UV-I 9 W/m -4,7 C -2,8 C 1,6 km/h (1 Bft)
12.05.2020 06:03 -2,9 C -5,0 C 87 % 1021,4 hPa 0,0 l/m 0,0 km/h (0 Bft) N 360 0 min 0,0 UV-I 9 W/m -4,8 C -2,9 C 1,6 km/h (1 Bft)
12.05.2020 06:04 -2,8 C -5,0 C 88 % 1021,4 hPa 0,0 l/m 0,0 km/h (0 Bft) N 360 0 min 0,0 UV-I 9 W/m -4,5 C -2,8 C 1,6 km/h (1 Bft)
12.05.2020 06:05 -2,8 C -5,0 C 88 % 1021,5 hPa 0,0 l/m 0,0 km/h (0 Bft) N 0 0 min 0,0 UV-I 11 W/m -4,5 C -2,8 C 0,0 km/h (0 Bft)
12.05.2020 06:06 -2,9 C -5,0 C 87 % 1021,4 hPa 0,0 l/m 0,0 km/h (0 Bft) N 0 0 min 0,0 UV-I 11 W/m -4,8 C -2,9 C 0,0 km/h (0 Bft)
12.05.2020 06:07 -2,9 C -5,0 C 87 % 1021,4 hPa 0,0 l/m 0,0 km/h (0 Bft) N 360 0 min 0,0 UV-I 11 W/m -4,8 C -2,9 C 1,6 km/h (1 Bft)
12.05.2020 06:08 -2,9 C -5,0 C 87 % 1021,5 hPa 0,0 l/m 0,0 km/h (0 Bft) N 0 0 min 0,0 UV-I 11 W/m -4,8 C -2,9 C 0,0 km/h (0 Bft)
12.05.2020 06:09 -2,9 C -5,0 C 88 % 1021,4 hPa 0,0 l/m 0,0 km/h (0 Bft) N 0 0 min 0,0 UV-I 11 W/m -4,6 C -2,9 C 0,0 km/h (0 Bft)
12.05.2020 06:10 -2,9 C -5,0 C 88 % 1021,5 hPa 0,0 l/m 0,0 km/h (0 Bft) N 0 0 min 0,0 UV-I 12 W/m -4,6 C -2,9 C 0,0 km/h (0 Bft)
12.05.2020 06:11 -2,9 C -5,0 C 88 % 1021,5 hPa 0,0 l/m 0,0 km/h (0 Bft) N 0 0 min 0,0 UV-I 12 W/m -4,6 C -2,9 C 0,0 km/h (0 Bft)
12.05.2020 06:12 -2,9 C -5,0 C 88 % 1021,5 hPa 0,0 l/m 0,0 km/h (0 Bft) N 0 0 min 0,0 UV-I 12 W/m -4,6 C -2,9 C 0,0 km/h (0 Bft)
12.05.2020 06:13 -2,9 C -4,4 C 88 % 1021,5 hPa 0,0 l/m 0,0 km/h (0 Bft) N 0 0 min 0,0 UV-I 12 W/m -4,6 C -2,9 C 0,0 km/h (0 Bft)
12.05.2020 06:14 -2,9 C -4,4 C 88 % 1021,5 hPa 0,0 l/m 0,0 km/h (0 Bft) N 0 0 min 0,0 UV-I 14 W/m -4,6 C -2,9 C 0,0 km/h (0 Bft)
12.05.2020 06:15 -2,8 C -4,4 C 88 % 1021,5 hPa 0,0 l/m 0,0 km/h (0 Bft) N 0 0 min 0,0 UV-I 14 W/m -4,5 C -2,8 C 0,0 km/h (0 Bft)
12.05.2020 06:16 -2,8 C -5,0 C 88 % 1021,5 hPa 0,0 l/m 0,0 km/h (0 Bft) N 0 0 min 0,0 UV-I 14 W/m -4,5 C -2,8 C 0,0 km/h (0 Bft)
12.05.2020 06:17 -2,8 C -5,0 C 88 % 1021,4 hPa 0,0 l/m 0,0 km/h (0 Bft) N 0 0 min 0,0 UV-I 14 W/m -4,5 C -2,8 C 0,0 km/h (0 Bft)
12.05.2020 06:18 -2,8 C -5,0 C 88 % 1021,4 hPa 0,0 l/m 0,0 km/h (0 Bft) N 0 0 min 0,0 UV-I 16 W/m -4,5 C -2,8 C 0,0 km/h (0 Bft)
12.05.2020 06:19 -2,7 C -5,0 C 88 % 1021,5 hPa 0,0 l/m 0,0 km/h (0 Bft) N 0 0 min 0,0 UV-I 16 W/m -4,4 C -2,7 C 0,0 km/h (0 Bft)
12.05.2020 06:20 -2,7 C -5,0 C 88 % 1021,5 hPa 0,0 l/m 0,0 km/h (0 Bft) N 0 0 min 0,0 UV-I 16 W/m -4,4 C -2,7 C 0,0 km/h (0 Bft)
12.05.2020 06:21 -2,7 C -5,0 C 88 % 1021,5 hPa 0,0 l/m 0,0 km/h (0 Bft) N 0 0 min 0,0 UV-I 16 W/m -4,4 C -2,7 C 0,0 km/h (0 Bft)
12.05.2020 06:22 -2,6 C -5,0 C 88 % 1021,5 hPa 0,0 l/m 0,0 km/h (0 Bft) N 0 0 min 0,0 UV-I 18 W/m -4,3 C -2,6 C 0,0 km/h (0 Bft)
12.05.2020 06:23 -2,6 C -5,0 C 88 % 1021,5 hPa 0,0 l/m 0,0 km/h (0 Bft) N 0 0 min 0,0 UV-I 18 W/m -4,3 C -2,6 C 0,0 km/h (0 Bft)
12.05.2020 06:24 -2,5 C -5,0 C 88 % 1021,4 hPa 0,0 l/m 0,0 km/h (0 Bft) N 0 0 min 0,0 UV-I 18 W/m -4,2 C -2,5 C 0,0 km/h (0 Bft)
12.05.2020 06:25 -2,4 C -5,0 C 88 % 1021,6 hPa 0,0 l/m 0,0 km/h (0 Bft) N 0 0 min 0,0 UV-I 18 W/m -4,1 C -2,4 C 0,0 km/h (0 Bft)
12.05.2020 06:26 -2,4 C -4,4 C 88 % 1021,6 hPa 0,0 l/m 0,0 km/h (0 Bft) N 0 0 min 0,0 UV-I 19 W/m -4,1 C -2,4 C 0,0 km/h (0 Bft)
12.05.2020 06:27 -2,5 C -4,4 C 87 % 1021,5 hPa 0,0 l/m 0,0 km/h (0 Bft) N 0 0 min 0,0 UV-I 19 W/m -4,4 C -2,5 C 0,0 km/h (0 Bft)
12.05.2020 06:28 -2,5 C -4,4 C 87 % 1021,5 hPa 0,0 l/m 0,0 km/h (0 Bft) N 0 0 min 0,0 UV-I 19 W/m -4,4 C -2,5 C 0,0 km/h (0 Bft)
12.05.2020 06:29 -2,5 C -4,4 C 88 % 1021,5 hPa 0,0 l/m 0,0 km/h (0 Bft) N 0 0 min 0,0 UV-I 21 W/m -4,2 C -2,5 C 0,0 km/h (0 Bft)
12.05.2020 06:30 -2,5 C -4,4 C 88 % 1021,6 hPa 0,0 l/m 0,0 km/h (0 Bft) N 0 0 min 0,0 UV-I 21 W/m -4,2 C -2,5 C 0,0 km/h (0 Bft)
12.05.2020 06:31 -2,5 C -4,4 C 87 % 1021,6 hPa 0,0 l/m 0,0 km/h (0 Bft) N 0 0 min 0,0 UV-I 23 W/m -4,4 C -2,5 C 0,0 km/h (0 Bft)
12.05.2020 06:32 -2,5 C -4,4 C 87 % 1021,6 hPa 0,0 l/m 0,0 km/h (0 Bft) N 0 0 min 0,0 UV-I 23 W/m -4,4 C -2,5 C 0,0 km/h (0 Bft)
12.05.2020 06:33 -2,6 C -4,4 C 87 % 1021,6 hPa 0,0 l/m 0,0 km/h (0 Bft) N 360 0 min 0,0 UV-I 26 W/m -4,5 C -2,6 C 1,6 km/h (1 Bft)
12.05.2020 06:34 -2,6 C -4,4 C 87 % 1021,5 hPa 0,0 l/m 0,0 km/h (0 Bft) N 360 0 min 0,0 UV-I 26 W/m -4,5 C -2,6 C 1,6 km/h (1 Bft)
12.05.2020 06:35 -2,6 C -4,4 C 87 % 1021,6 hPa 0,0 l/m 0,0 km/h (0 Bft) N 0 0 min 0,0 UV-I 30 W/m -4,5 C -2,6 C 0,0 km/h (0 Bft)
12.05.2020 06:36 -2,6 C -4,4 C 87 % 1021,6 hPa 0,0 l/m 0,0 km/h (0 Bft) N 0 0 min 0,0 UV-I 32 W/m -4,5 C -2,6 C 0,0 km/h (0 Bft)
12.05.2020 06:37 -2,6 C -4,4 C 87 % 1021,6 hPa 0,0 l/m 0,0 km/h (0 Bft) N 0 0 min 0,0 UV-I 33 W/m -4,5 C -2,6 C 0,0 km/h (0 Bft)
12.05.2020 06:38 -2,6 C -4,4 C 87 % 1021,6 hPa 0,0 l/m 0,0 km/h (0 Bft) N 0 0 min 0,0 UV-I 35 W/m -4,5 C -2,6 C 0,0 km/h (0 Bft)
12.05.2020 06:39 -2,6 C -4,4 C 87 % 1021,6 hPa 0,0 l/m 0,0 km/h (0 Bft) N 0 0 min 0,0 UV-I 40 W/m -4,5 C -2,6 C 0,0 km/h (0 Bft)
12.05.2020 06:40 -2,6 C -4,4 C 87 % 1021,6 hPa 0,0 l/m 0,0 km/h (0 Bft) N 0 0 min 0,0 UV-I 42 W/m -4,5 C -2,6 C 0,0 km/h (0 Bft)
12.05.2020 06:41 -2,6 C -4,4 C 87 % 1021,6 hPa 0,0 l/m 0,0 km/h (0 Bft) N 0 0 min 0,0 UV-I 44 W/m -4,5 C -2,6 C 0,0 km/h (0 Bft)
12.05.2020 06:42 -2,6 C -4,4 C 87 % 1021,6 hPa 0,0 l/m 0,0 km/h (0 Bft) N 0 0 min 0,0 UV-I 46 W/m -4,5 C -2,6 C 0,0 km/h (0 Bft)
12.05.2020 06:43 -2,6 C -4,4 C 87 % 1021,7 hPa 0,0 l/m 0,0 km/h (0 Bft) N 0 0 min 0,0 UV-I 47 W/m -4,5 C -2,6 C 0,0 km/h (0 Bft)
12.05.2020 06:44 -2,5 C -4,4 C 88 % 1021,6 hPa 0,0 l/m 0,0 km/h (0 Bft) N 0 0 min 0,0 UV-I 49 W/m -4,2 C -2,5 C 0,0 km/h (0 Bft)
12.05.2020 06:45 -2,4 C -4,4 C 87 % 1021,6 hPa 0,0 l/m 0,0 km/h (0 Bft) N 0 0 min 0,0 UV-I 54 W/m -4,3 C -2,4 C 0,0 km/h (0 Bft)
12.05.2020 06:46 -2,4 C -4,4 C 87 % 1021,7 hPa 0,0 l/m 0,0 km/h (0 Bft) N 0 0 min 0,0 UV-I 56 W/m -4,3 C -2,4 C 0,0 km/h (0 Bft)
12.05.2020 06:47 -2,4 C -4,4 C 87 % 1021,7 hPa 0,0 l/m 0,0 km/h (0 Bft) N 0 0 min 0,0 UV-I 58 W/m -4,3 C -2,4 C 0,0 km/h (0 Bft)
12.05.2020 06:48 -2,4 C -4,4 C 87 % 1021,7 hPa 0,0 l/m 0,0 km/h (0 Bft) N 0 0 min 0,0 UV-I 60 W/m -4,3 C -2,4 C 0,0 km/h (0 Bft)
12.05.2020 06:49 -2,3 C -3,9 C 87 % 1021,7 hPa 0,0 l/m 0,0 km/h (0 Bft) N 0 0 min 0,0 UV-I 62 W/m -4,2 C -2,3 C 0,0 km/h (0 Bft)
12.05.2020 06:50 -2,3 C -3,9 C 87 % 1021,7 hPa 0,0 l/m 0,0 km/h (0 Bft) N 0 0 min 0,0 UV-I 58 W/m -4,2 C -2,3 C 0,0 km/h (0 Bft)
12.05.2020 06:51 -2,3 C -3,9 C 87 % 1021,7 hPa 0,0 l/m 0,0 km/h (0 Bft) N 0 0 min 0,0 UV-I 64 W/m -4,2 C -2,3 C 0,0 km/h (0 Bft)
12.05.2020 06:52 -2,3 C -3,9 C 87 % 1021,8 hPa 0,0 l/m 0,0 km/h (0 Bft) N 0 0 min 0,0 UV-I 65 W/m -4,2 C -2,3 C 0,0 km/h (0 Bft)
12.05.2020 06:53 -2,3 C -3,9 C 87 % 1021,9 hPa 0,0 l/m 0,0 km/h (0 Bft) N 0 0 min 0,0 UV-I 65 W/m -4,2 C -2,3 C 0,0 km/h (0 Bft)
12.05.2020 06:54 -2,3 C -3,3 C 87 % 1021,8 hPa 0,0 l/m 0,0 km/h (0 Bft) N 0 0 min 0,0 UV-I 67 W/m -4,2 C -2,3 C 0,0 km/h (0 Bft)
12.05.2020 06:55 -2,2 C -3,3 C 87 % 1021,8 hPa 0,0 l/m 0,0 km/h (0 Bft) N 0 0 min 0,0 UV-I 67 W/m -4,1 C -2,2 C 0,0 km/h (0 Bft)
12.05.2020 06:56 -2,2 C -3,3 C 87 % 1021,9 hPa 0,0 l/m 0,0 km/h (0 Bft) N 0 0 min 0,0 UV-I 67 W/m -4,1 C -2,2 C 0,0 km/h (0 Bft)
12.05.2020 06:57 -2,2 C -3,3 C 87 % 1021,8 hPa 0,0 l/m 0,0 km/h (0 Bft) N 360 0 min 0,0 UV-I 69 W/m -4,1 C -2,2 C 1,6 km/h (1 Bft)
12.05.2020 06:58 -2,2 C -3,3 C 87 % 1021,9 hPa 0,0 l/m 0,0 km/h (0 Bft) N 360 0 min 0,0 UV-I 70 W/m -4,1 C -2,2 C 1,6 km/h (1 Bft)
12.05.2020 06:59 -2,2 C -3,3 C 87 % 1021,9 hPa 0,0 l/m 0,0 km/h (0 Bft) N 0 0 min 0,0 UV-I 72 W/m -4,1 C -2,2 C 0,0 km/h (0 Bft)
12.05.2020 07:00 -2,1 C -3,3 C 87 % 1021,9 hPa 0,0 l/m 0,0 km/h (0 Bft) N 0 0 min 0,0 UV-I 76 W/m -4,0 C -2,1 C 0,0 km/h (0 Bft)
12.05.2020 07:01 -2,1 C -3,3 C 87 % 1021,8 hPa 0,0 l/m 0,0 km/h (0 Bft) N 360 0 min 0,0 UV-I 77 W/m -4,0 C -2,1 C 1,6 km/h (1 Bft)
12.05.2020 07:02 -2,1 C -2,8 C 87 % 1021,8 hPa 0,0 l/m 0,0 km/h (0 Bft) N 360 0 min 0,0 UV-I 83 W/m -4,0 C -2,1 C 1,6 km/h (1 Bft)
12.05.2020 07:03 -2,0 C -2,8 C 87 % 1021,9 hPa 0,0 l/m 1,6 km/h (1 Bft) N 360 0 min 0,0 UV-I 88 W/m -3,9 C -2,0 C 1,6 km/h (1 Bft)
12.05.2020 07:04 -1,9 C -2,8 C 87 % 1021,8 hPa 0,0 l/m 1,6 km/h (1 Bft) N 360 0 min 0,0 UV-I 91 W/m -3,8 C -1,9 C 1,6 km/h (1 Bft)
12.05.2020 07:05 -1,9 C -2,8 C 87 % 1021,9 hPa 0,0 l/m 1,6 km/h (1 Bft) N 360 0 min 0,0 UV-I 95 W/m -3,8 C -1,9 C 1,6 km/h (1 Bft)
12.05.2020 07:06 -1,8 C -2,2 C 86 % 1021,9 hPa 0,0 l/m 0,0 km/h (0 Bft) N 360 0 min 0,0 UV-I 98 W/m -3,8 C -1,8 C 1,6 km/h (1 Bft)
12.05.2020 07:07 -1,8 C -2,2 C 86 % 1022,0 hPa 0,0 l/m 0,0 km/h (0 Bft) N 360 0 min 0,0 UV-I 102 W/m -3,8 C -1,8 C 1,6 km/h (1 Bft)
12.05.2020 07:08 -1,8 C -2,2 C 86 % 1021,9 hPa 0,0 l/m 1,6 km/h (1 Bft) N 360 0 min 0,0 UV-I 107 W/m -3,8 C -1,8 C 1,6 km/h (1 Bft)
12.05.2020 07:09 -1,8 C -2,2 C 86 % 1021,9 hPa 0,0 l/m 0,0 km/h (0 Bft) N 360 0 min 0,0 UV-I 111 W/m -3,8 C -1,8 C 1,6 km/h (1 Bft)
12.05.2020 07:12 -1,6 C -1,7 C 86 % 1021,9 hPa 0,0 l/m 0,7 km/h (0 Bft) N 355 0 min 0,0 UV-I 116 W/m -3,6 C -1,6 C 1,6 km/h (1 Bft)
12.05.2020 07:14 -1,4 C -1,7 C 86 % 1022,0 hPa 0,0 l/m 0,8 km/h (0 Bft) N 355 0 min 0,0 UV-I 121 W/m -3,4 C -1,4 C 1,6 km/h (1 Bft)
12.05.2020 07:16 -1,3 C -1,1 C 86 % 1022,1 hPa 0,0 l/m 0,0 km/h (0 Bft) N 355 0 min 0,3 UV-I 127 W/m -3,3 C -1,3 C 0,0 km/h (0 Bft)
12.05.2020 07:18 -1,2 C -1,1 C 86 % 1022,0 hPa 0,0 l/m 0,6 km/h (0 Bft) N 355 0 min 0,5 UV-I 132 W/m -3,2 C -1,2 C 1,6 km/h (1 Bft)
12.05.2020 07:20 -1,1 C -1,1 C 86 % 1022,1 hPa 0,0 l/m 0,7 km/h (0 Bft) N 355 0 min 0,5 UV-I 138 W/m -3,1 C -1,1 C 3,2 km/h (1 Bft)
12.05.2020 07:22 -0,9 C -1,1 C 86 % 1022,0 hPa 0,0 l/m 0,0 km/h (0 Bft) N 355 0 min 0,5 UV-I 144 W/m -2,9 C -0,9 C 0,0 km/h (0 Bft)
12.05.2020 07:24 -0,9 C -1,1 C 85 % 1022,0 hPa 0,0 l/m 0,1 km/h (0 Bft) N 355 0 min 0,5 UV-I 151 W/m -3,1 C -0,9 C 1,6 km/h (1 Bft)
12.05.2020 07:26 -0,9 C -1,1 C 85 % 1022,0 hPa 0,0 l/m 0,7 km/h (0 Bft) N 355 0 min 0,5 UV-I 157 W/m -3,1 C -0,9 C 1,6 km/h (1 Bft)
12.05.2020 07:28 -0,8 C -1,1 C 85 % 1022,0 hPa 0,0 l/m 0,4 km/h (0 Bft) N 355 0 min 0,6 UV-I 164 W/m -3,0 C -0,8 C 1,6 km/h (1 Bft)
12.05.2020 07:30 -0,7 C -1,1 C 85 % 1022,0 hPa 0,0 l/m 0,1 km/h (0 Bft) N 355 0 min 0,6 UV-I 171 W/m -2,9 C -0,7 C 1,6 km/h (1 Bft)
12.05.2020 07:32 -0,6 C -1,1 C 85 % 1022,0 hPa 0,0 l/m 0,1 km/h (0 Bft) N 355 0 min 0,6 UV-I 182 W/m -2,8 C -0,6 C 1,6 km/h (1 Bft)
12.05.2020 07:34 -0,4 C -0,6 C 85 % 1022,0 hPa 0,0 l/m 0,1 km/h (0 Bft) N 355 0 min 0,6 UV-I 193 W/m -2,6 C -0,4 C 1,6 km/h (1 Bft)
12.05.2020 07:36 -0,3 C -0,6 C 84 % 1022,0 hPa 0,0 l/m 0,0 km/h (0 Bft) N 355 0 min 0,7 UV-I 192 W/m -2,7 C -0,3 C 0,0 km/h (0 Bft)
12.05.2020 07:38 -0,2 C -0,6 C 84 % 1021,9 hPa 0,0 l/m 0,0 km/h (0 Bft) N 355 0 min 0,7 UV-I 192 W/m -2,6 C -0,2 C 0,0 km/h (0 Bft)
12.05.2020 07:40 0,0 C -0,6 C 84 % 1021,9 hPa 0,0 l/m 0,0 km/h (0 Bft) N 355 0 min 0,7 UV-I 193 W/m -2,4 C 0,0 C 0,0 km/h (0 Bft)
12.05.2020 07:42 0,3 C -0,6 C 84 % 1022,1 hPa 0,0 l/m 0,2 km/h (0 Bft) N 355 0 min 0,7 UV-I 197 W/m -2,1 C 0,3 C 1,6 km/h (1 Bft)
12.05.2020 07:44 0,4 C 0,0 C 83 % 1022,0 hPa 0,0 l/m 0,2 km/h (0 Bft) N 355 0 min 0,8 UV-I 201 W/m -2,1 C 0,4 C 1,6 km/h (1 Bft)
12.05.2020 07:46 0,7 C 0,0 C 83 % 1022,0 hPa 0,0 l/m 0,1 km/h (0 Bft) N 355 0 min 0,8 UV-I 207 W/m -1,8 C 0,7 C 1,6 km/h (1 Bft)
12.05.2020 07:48 0,8 C 0,6 C 83 % 1021,9 hPa 0,0 l/m 0,4 km/h (0 Bft) N 355 0 min 0,8 UV-I 214 W/m -1,8 C 0,8 C 1,6 km/h (1 Bft)
12.05.2020 07:50 1,0 C 0,6 C 82 % 1022,0 hPa 0,0 l/m 1,0 km/h (0 Bft) N 355 0 min 0,8 UV-I 218 W/m -1,7 C 1,0 C 1,6 km/h (1 Bft)
12.05.2020 07:52 1,1 C 1,7 C 82 % 1022,0 hPa 0,0 l/m 0,2 km/h (0 Bft) N 355 0 min 0,9 UV-I 218 W/m -1,6 C 1,1 C 1,6 km/h (1 Bft)
12.05.2020 07:54 1,3 C 1,7 C 83 % 1022,0 hPa 0,0 l/m 0,5 km/h (0 Bft) N 355 0 min 0,9 UV-I 223 W/m -1,3 C 1,3 C 1,6 km/h (1 Bft)
12.05.2020 07:56 1,3 C 2,2 C 81 % 1022,0 hPa 0,0 l/m 1,0 km/h (0 Bft) N 355 0 min 0,9 UV-I 234 W/m -1,6 C 1,3 C 3,2 km/h (1 Bft)
12.05.2020 07:58 1,3 C 2,2 C 81 % 1022,0 hPa 0,0 l/m 0,7 km/h (0 Bft) N 355 0 min 0,9 UV-I 243 W/m -1,6 C 1,3 C 1,6 km/h (1 Bft)
12.05.2020 08:00 1,3 C 2,2 C 81 % 1021,9 hPa 0,0 l/m 2,4 km/h (1 Bft) N 355 0 min 1,0 UV-I 251 W/m -1,6 C 1,3 C 4,8 km/h (1 Bft)
12.05.2020 08:02 1,5 C 2,8 C 82 % 1022,0 hPa 0,0 l/m 2,2 km/h (1 Bft) N 355 0 min 1,0 UV-I 255 W/m -1,2 C 1,5 C 3,2 km/h (1 Bft)
12.05.2020 08:04 1,7 C 2,8 C 83 % 1022,0 hPa 0,0 l/m 2,0 km/h (1 Bft) N 355 0 min 1,0 UV-I 261 W/m -0,9 C 1,7 C 3,2 km/h (1 Bft)
12.05.2020 08:06 2,1 C 3,3 C 81 % 1022,0 hPa 0,0 l/m 0,5 km/h (0 Bft) N 355 0 min 1,0 UV-I 267 W/m -0,8 C 2,1 C 1,6 km/h (1 Bft)
12.05.2020 08:08 2,3 C 3,3 C 81 % 1022,0 hPa 0,0 l/m 2,3 km/h (1 Bft) N 360 0 min 1,1 UV-I 272 W/m -0,6 C 2,3 C 4,8 km/h (1 Bft)
12.05.2020 08:10 2,4 C 3,9 C 81 % 1022,0 hPa 0,0 l/m 3,3 km/h (1 Bft) N 360 0 min 1,1 UV-I 278 W/m -0,5 C 2,4 C 4,8 km/h (1 Bft)
12.05.2020 08:12 2,4 C 3,9 C 80 % 1022,0 hPa 0,0 l/m 3,4 km/h (1 Bft) N 360 0 min 1,1 UV-I 285 W/m -0,7 C 2,4 C 4,8 km/h (1 Bft)
12.05.2020 08:14 2,4 C 3,9 C 79 % 1022,0 hPa 0,0 l/m 2,3 km/h (1 Bft) N 360 0 min 1,2 UV-I 290 W/m -0,9 C 2,4 C 4,8 km/h (1 Bft)
12.05.2020 08:16 2,6 C 3,9 C 79 % 1022,1 hPa 0,0 l/m 2,0 km/h (1 Bft) NO 46 0 min 1,2 UV-I 298 W/m -0,7 C 2,6 C 4,8 km/h (1 Bft)
12.05.2020 08:18 2,6 C 3,9 C 78 % 1022,1 hPa 0,0 l/m 2,9 km/h (1 Bft) NO 56 0 min 1,2 UV-I 303 W/m -0,8 C 2,6 C 6,4 km/h (2 Bft)
12.05.2020 08:20 2,7 C 3,9 C 79 % 1022,1 hPa 0,0 l/m 1,6 km/h (1 Bft) NO 38 0 min 1,3 UV-I 308 W/m -0,6 C 2,7 C 4,8 km/h (1 Bft)
12.05.2020 08:22 3,0 C 4,4 C 79 % 1022,0 hPa 0,0 l/m 3,9 km/h (1 Bft) O-NO 61 0 min 1,3 UV-I 312 W/m -0,3 C 3,0 C 9,7 km/h (2 Bft)
12.05.2020 08:24 3,0 C 4,4 C 78 % 1022,1 hPa 0,0 l/m 4,8 km/h (1 Bft) NO 49 0 min 1,3 UV-I 321 W/m -0,5 C 3,0 C 8,0 km/h (2 Bft)
12.05.2020 08:26 3,2 C 4,4 C 78 % 1022,0 hPa 0,0 l/m 6,9 km/h (2 Bft) O-NO 61 0 min 1,4 UV-I 328 W/m -0,3 C 2,7 C 14,5 km/h (3 Bft)
12.05.2020 08:28 3,3 C 4,4 C 77 % 1022,1 hPa 0,0 l/m 7,2 km/h (2 Bft) O-NO 63 0 min 1,4 UV-I 331 W/m -0,3 C 2,5 C 12,9 km/h (3 Bft)
12.05.2020 08:30 3,3 C 4,4 C 76 % 1022,0 hPa 0,0 l/m 8,1 km/h (2 Bft) O-NO 78 0 min 1,4 UV-I 336 W/m -0,5 C 1,7 C 14,5 km/h (3 Bft)
12.05.2020 08:32 3,2 C 3,9 C 76 % 1022,1 hPa 0,0 l/m 7,8 km/h (2 Bft) O-NO 69 0 min 1,4 UV-I 343 W/m -0,6 C 1,9 C 12,9 km/h (3 Bft)
12.05.2020 08:34 3,3 C 4,4 C 77 % 1022,2 hPa 0,0 l/m 7,1 km/h (2 Bft) O 96 0 min 1,5 UV-I 347 W/m -0,3 C 2,6 C 11,3 km/h (2 Bft)
12.05.2020 08:36 3,4 C 4,4 C 76 % 1022,1 hPa 0,0 l/m 7,6 km/h (2 Bft) O 100 0 min 1,5 UV-I 353 W/m -0,4 C 2,3 C 14,5 km/h (3 Bft)
12.05.2020 08:38 3,4 C 4,4 C 75 % 1022,1 hPa 0,0 l/m 8,6 km/h (2 Bft) O-NO 76 0 min 1,5 UV-I 362 W/m -0,6 C 1,4 C 16,1 km/h (3 Bft)
12.05.2020 08:40 3,4 C 4,4 C 76 % 1022,1 hPa 0,0 l/m 6,7 km/h (2 Bft) N-NO 28 0 min 1,6 UV-I 368 W/m -0,4 C 3,1 C 12,9 km/h (3 Bft)
12.05.2020 08:42 3,5 C 4,4 C 75 % 1022,1 hPa 0,0 l/m 7,0 km/h (2 Bft) O-NO 67 0 min 1,6 UV-I 375 W/m -0,5 C 2,9 C 12,9 km/h (3 Bft)
12.05.2020 08:44 3,6 C 4,4 C 75 % 1022,1 hPa 0,0 l/m 9,7 km/h (2 Bft) O-NO 70 0 min 1,6 UV-I 386 W/m -0,4 C 0,8 C 16,1 km/h (3 Bft)
12.05.2020 08:46 3,5 C 4,4 C 73 % 1022,1 hPa 0,0 l/m 7,8 km/h (2 Bft) N-NO 24 0 min 1,7 UV-I 391 W/m -0,9 C 2,2 C 14,5 km/h (3 Bft)
12.05.2020 08:48 3,6 C 4,4 C 74 % 1022,1 hPa 0,0 l/m 5,6 km/h (1 Bft) NO 45 0 min 1,7 UV-I 399 W/m -0,6 C 3,6 C 11,3 km/h (2 Bft)
12.05.2020 08:50 3,8 C 5,0 C 76 % 1022,0 hPa 0,0 l/m 7,2 km/h (2 Bft) O 85 0 min 1,7 UV-I 391 W/m -0,0 C 3,1 C 14,5 km/h (3 Bft)
12.05.2020 08:52 3,8 C 5,0 C 72 % 1022,1 hPa 0,0 l/m 7,0 km/h (2 Bft) NO 35 0 min 1,8 UV-I 394 W/m -0,8 C 3,3 C 11,3 km/h (2 Bft)
12.05.2020 08:54 3,9 C 5,6 C 72 % 1022,1 hPa 0,0 l/m 6,5 km/h (2 Bft) NO 44 0 min 1,8 UV-I 413 W/m -0,7 C 3,8 C 16,1 km/h (3 Bft)
12.05.2020 08:56 4,0 C 5,6 C 72 % 1022,1 hPa 0,0 l/m 7,5 km/h (2 Bft) NO 43 0 min 1,9 UV-I 423 W/m -0,6 C 3,0 C 14,5 km/h (3 Bft)
12.05.2020 08:58 4,3 C 5,6 C 75 % 1022,1 hPa 0,0 l/m 5,9 km/h (2 Bft) N-NO 24 0 min 1,9 UV-I 428 W/m 0,3 C 4,3 C 8,0 km/h (2 Bft)
12.05.2020 09:00 4,3 C 6,1 C 71 % 1022,1 hPa 0,0 l/m 4,8 km/h (1 Bft) O 88 0 min 1,9 UV-I 440 W/m -0,5 C 4,3 C 8,0 km/h (2 Bft)
12.05.2020 09:02 4,2 C 6,1 C 70 % 1022,2 hPa 0,0 l/m 9,2 km/h (2 Bft) O-NO 59 0 min 2,0 UV-I 449 W/m -0,8 C 1,8 C 16,1 km/h (3 Bft)
12.05.2020 09:04 4,2 C 6,1 C 72 % 1022,2 hPa 0,0 l/m 7,7 km/h (2 Bft) O-NO 61 0 min 2,0 UV-I 453 W/m -0,4 C 3,0 C 12,9 km/h (3 Bft)
12.05.2020 09:06 4,2 C 6,1 C 71 % 1022,3 hPa 0,0 l/m 7,8 km/h (2 Bft) O-NO 63 0 min 2,0 UV-I 464 W/m -0,6 C 2,9 C 16,1 km/h (3 Bft)
12.05.2020 09:08 4,4 C 6,7 C 72 % 1022,1 hPa 0,0 l/m 6,7 km/h (2 Bft) O-NO 61 0 min 2,1 UV-I 475 W/m -0,2 C 4,1 C 12,9 km/h (3 Bft)
12.05.2020 09:10 4,4 C 6,7 C 70 % 1022,3 hPa 0,0 l/m 7,2 km/h (2 Bft) O-NO 58 0 min 2,1 UV-I 492 W/m -0,6 C 3,7 C 11,3 km/h (2 Bft)
12.05.2020 09:12 4,4 C 6,7 C 70 % 1022,3 hPa 0,0 l/m 7,4 km/h (2 Bft) O 88 0 min 2,1 UV-I 482 W/m -0,6 C 3,5 C 14,5 km/h (3 Bft)
12.05.2020 09:14 4,3 C 6,1 C 69 % 1022,3 hPa 0,0 l/m 6,7 km/h (2 Bft) N-NO 26 0 min 2,2 UV-I 495 W/m -0,9 C 4,0 C 11,3 km/h (2 Bft)
12.05.2020 09:16 4,5 C 6,7 C 72 % 1022,3 hPa 0,0 l/m 6,7 km/h (2 Bft) O 87 0 min 2,2 UV-I 495 W/m -0,1 C 4,2 C 12,9 km/h (3 Bft)
12.05.2020 09:18 4,4 C 6,1 C 69 % 1022,3 hPa 0,0 l/m 4,9 km/h (1 Bft) O-SO 112 0 min 2,2 UV-I 489 W/m -0,8 C 4,4 C 9,7 km/h (2 Bft)
12.05.2020 09:20 4,5 C 6,7 C 72 % 1022,3 hPa 0,0 l/m 5,2 km/h (1 Bft) O-NO 76 0 min 2,3 UV-I 488 W/m -0,1 C 4,5 C 11,3 km/h (2 Bft)
12.05.2020 09:22 4,8 C 7,2 C 71 % 1022,3 hPa 0,0 l/m 7,6 km/h (2 Bft) O-NO 69 0 min 2,3 UV-I 482 W/m -0,0 C 3,7 C 14,5 km/h (3 Bft)
12.05.2020 09:24 4,7 C 7,2 C 70 % 1022,2 hPa 0,0 l/m 7,8 km/h (2 Bft) NO 48 0 min 2,3 UV-I 476 W/m -0,3 C 3,5 C 14,5 km/h (3 Bft)
12.05.2020 09:26 4,8 C 7,2 C 71 % 1022,2 hPa 0,0 l/m 9,0 km/h (2 Bft) O-NO 69 0 min 2,4 UV-I 476 W/m -0,0 C 2,6 C 12,9 km/h (3 Bft)
12.05.2020 09:28 4,7 C 7,2 C 70 % 1022,2 hPa 0,0 l/m 8,2 km/h (2 Bft) O-NO 76 0 min 2,4 UV-I 478 W/m -0,3 C 3,1 C 19,3 km/h (3 Bft)
12.05.2020 09:30 4,7 C 7,2 C 70 % 1022,1 hPa 0,0 l/m 8,3 km/h (2 Bft) O 88 0 min 2,5 UV-I 483 W/m -0,3 C 3,0 C 14,5 km/h (3 Bft)
12.05.2020 09:32 4,6 C 6,7 C 67 % 1022,2 hPa 0,0 l/m 6,1 km/h (2 Bft) O-NO 69 0 min 2,5 UV-I 484 W/m -1,0 C 4,6 C 8,0 km/h (2 Bft)
12.05.2020 09:34 4,6 C 7,2 C 68 % 1022,1 hPa 0,0 l/m 4,3 km/h (1 Bft) O-SO 119 0 min 2,6 UV-I 492 W/m -0,8 C 4,6 C 6,4 km/h (2 Bft)
12.05.2020 09:36 4,8 C 7,2 C 69 % 1022,1 hPa 0,0 l/m 5,9 km/h (2 Bft) O-NO 63 0 min 2,6 UV-I 497 W/m -0,4 C 4,8 C 11,3 km/h (2 Bft)
12.05.2020 09:38 5,0 C 7,8 C 67 % 1022,1 hPa 0,0 l/m 8,9 km/h (2 Bft) NO 39 0 min 2,7 UV-I 489 W/m -0,6 C 2,9 C 12,9 km/h (3 Bft)
12.05.2020 09:40 5,2 C 7,8 C 68 % 1021,9 hPa 0,0 l/m 6,1 km/h (2 Bft) N-NO 28 0 min 2,7 UV-I 475 W/m -0,2 C 5,2 C 9,7 km/h (2 Bft)
12.05.2020 09:42 5,3 C 7,8 C 67 % 1021,9 hPa 0,0 l/m 6,1 km/h (2 Bft) O 96 0 min 2,7 UV-I 461 W/m -0,3 C 5,3 C 12,9 km/h (3 Bft)
12.05.2020 09:44 5,1 C 7,8 C 66 % 1022,0 hPa 0,0 l/m 9,6 km/h (2 Bft) O 96 0 min 2,7 UV-I 457 W/m -0,7 C 2,5 C 12,9 km/h (3 Bft)
12.05.2020 09:46 5,2 C 7,8 C 67 % 1021,9 hPa 0,0 l/m 8,3 km/h (2 Bft) O-NO 65 0 min 2,7 UV-I 450 W/m -0,4 C 3,6 C 14,5 km/h (3 Bft)
12.05.2020 09:48 5,4 C 8,3 C 69 % 1022,0 hPa 0,0 l/m 8,9 km/h (2 Bft) O-NO 61 0 min 2,8 UV-I 447 W/m 0,2 C 3,3 C 12,9 km/h (3 Bft)
12.05.2020 09:50 5,3 C 7,8 C 65 % 1021,9 hPa 0,0 l/m 9,5 km/h (2 Bft) O-NO 59 0 min 2,8 UV-I 450 W/m -0,7 C 2,8 C 12,9 km/h (3 Bft)
12.05.2020 09:52 5,2 C 7,8 C 67 % 1021,9 hPa 0,0 l/m 8,4 km/h (2 Bft) O-SO 121 0 min 2,9 UV-I 454 W/m -0,4 C 3,5 C 12,9 km/h (3 Bft)
12.05.2020 09:54 5,2 C 7,8 C 67 % 1021,9 hPa 0,0 l/m 7,6 km/h (2 Bft) O-NO 65 0 min 2,9 UV-I 459 W/m -0,4 C 4,1 C 12,9 km/h (3 Bft)
12.05.2020 09:56 5,3 C 7,8 C 65 % 1021,9 hPa 0,0 l/m 7,2 km/h (2 Bft) NO 47 0 min 2,9 UV-I 464 W/m -0,7 C 4,6 C 14,5 km/h (3 Bft)
12.05.2020 09:58 5,5 C 7,8 C 66 % 1021,8 hPa 0,0 l/m 6,1 km/h (2 Bft) O 79 0 min 3,0 UV-I 473 W/m -0,3 C 5,5 C 11,3 km/h (2 Bft)
12.05.2020 10:00 5,6 C 8,3 C 66 % 1021,8 hPa 0,0 l/m 8,0 km/h (2 Bft) O-SO 105 0 min 3,0 UV-I 481 W/m -0,2 C 4,2 C 17,7 km/h (3 Bft)
12.05.2020 10:02 5,8 C 8,3 C 67 % 1021,9 hPa 0,0 l/m 5,7 km/h (1 Bft) NO 36 0 min 3,1 UV-I 489 W/m 0,2 C 5,8 C 8,0 km/h (2 Bft)
12.05.2020 10:04 5,8 C 8,3 C 67 % 1021,9 hPa 0,0 l/m 4,3 km/h (1 Bft) O 94 0 min 3,1 UV-I 498 W/m 0,2 C 5,8 C 16,1 km/h (3 Bft)
12.05.2020 10:06 5,6 C 8,3 C 66 % 1021,8 hPa 0,0 l/m 7,6 km/h (2 Bft) O-NO 78 0 min 3,1 UV-I 503 W/m -0,2 C 4,6 C 14,5 km/h (3 Bft)
12.05.2020 10:08 5,4 C 8,3 C 65 % 1021,8 hPa 0,0 l/m 3,7 km/h (1 Bft) N 360 0 min 3,1 UV-I 517 W/m -0,6 C 5,4 C 6,4 km/h (2 Bft)
12.05.2020 10:10 5,6 C 8,3 C 67 % 1021,8 hPa 0,0 l/m 3,9 km/h (1 Bft) NO 34 0 min 3,2 UV-I 532 W/m -0,0 C 5,6 C 8,0 km/h (2 Bft)
12.05.2020 10:12 5,8 C 8,9 C 65 % 1021,8 hPa 0,0 l/m 4,8 km/h (1 Bft) N 5 0 min 3,3 UV-I 556 W/m -0,3 C 5,8 C 8,0 km/h (2 Bft)
12.05.2020 10:14 5,8 C 8,9 C 67 % 1021,7 hPa 0,0 l/m 4,0 km/h (1 Bft) N 355 0 min 3,3 UV-I 585 W/m 0,2 C 5,8 C 6,4 km/h (2 Bft)
12.05.2020 10:16 6,2 C 9,4 C 64 % 1021,8 hPa 0,0 l/m 4,2 km/h (1 Bft) N-NO 28 2 min 3,4 UV-I 589 W/m -0,1 C 6,2 C 6,4 km/h (2 Bft)
12.05.2020 10:18 6,3 C 9,4 C 65 % 1021,8 hPa 0,0 l/m 8,5 km/h (2 Bft) O 80 0 min 3,3 UV-I 571 W/m 0,2 C 4,6 C 14,5 km/h (3 Bft)
12.05.2020 10:20 5,9 C 9,4 C 62 % 1021,8 hPa 0,0 l/m 11,0 km/h (2 Bft) O-NO 58 2 min 3,5 UV-I 620 W/m -0,8 C 2,4 C 16,1 km/h (3 Bft)
12.05.2020 10:22 5,8 C 8,9 C 64 % 1021,8 hPa 0,0 l/m 7,8 km/h (2 Bft) O 99 2 min 3,3 UV-I 627 W/m -0,5 C 4,6 C 14,5 km/h (3 Bft)
12.05.2020 10:24 5,6 C 8,9 C 64 % 1021,7 hPa 0,0 l/m 9,0 km/h (2 Bft) O 84 2 min 3,4 UV-I 632 W/m -0,7 C 3,5 C 16,1 km/h (3 Bft)
12.05.2020 10:26 5,6 C 8,9 C 62 % 1021,7 hPa 0,0 l/m 6,2 km/h (2 Bft) O-SO 118 2 min 3,6 UV-I 658 W/m -1,1 C 5,6 C 9,7 km/h (2 Bft)
12.05.2020 10:28 5,2 C 8,3 C 62 % 1021,7 hPa 0,0 l/m 3,0 km/h (1 Bft) N-NO 31 2 min 3,6 UV-I 669 W/m -1,5 C 5,2 C 6,4 km/h (2 Bft)
12.05.2020 10:30 5,7 C 8,9 C 66 % 1021,7 hPa 0,0 l/m 4,0 km/h (1 Bft) NO 55 2 min 3,6 UV-I 664 W/m -0,1 C 5,7 C 8,0 km/h (2 Bft)
12.05.2020 10:32 6,1 C 10,0 C 63 % 1021,6 hPa 0,0 l/m 9,2 km/h (2 Bft) NO 53 2 min 3,6 UV-I 664 W/m -0,4 C 3,8 C 12,9 km/h (3 Bft)
12.05.2020 10:34 6,2 C 10,0 C 63 % 1021,6 hPa 0,0 l/m 6,5 km/h (2 Bft) O-NO 65 2 min 3,7 UV-I 671 W/m -0,3 C 6,1 C 12,9 km/h (3 Bft)
12.05.2020 10:36 6,3 C 10,0 C 66 % 1021,6 hPa 0,0 l/m 3,5 km/h (1 Bft) O 90 2 min 3,7 UV-I 684 W/m 0,4 C 6,3 C 6,4 km/h (2 Bft)
12.05.2020 10:38 5,9 C 9,4 C 63 % 1021,6 hPa 0,0 l/m 3,2 km/h (1 Bft) NW 313 2 min 3,8 UV-I 693 W/m -0,6 C 5,9 C 6,4 km/h (2 Bft)
12.05.2020 10:40 6,3 C 10,0 C 63 % 1021,6 hPa 0,0 l/m 6,7 km/h (2 Bft) N-NO 32 2 min 3,8 UV-I 677 W/m -0,2 C 6,1 C 9,7 km/h (2 Bft)
12.05.2020 10:42 5,9 C 10,0 C 64 % 1021,5 hPa 0,0 l/m 2,7 km/h (1 Bft) NO 40 2 min 4,0 UV-I 730 W/m -0,4 C 5,9 C 4,8 km/h (1 Bft)
12.05.2020 10:44 6,3 C 10,6 C 63 % 1021,5 hPa 0,0 l/m 3,1 km/h (1 Bft) S-SO 153 2 min 4,0 UV-I 744 W/m -0,2 C 6,3 C 4,8 km/h (1 Bft)
12.05.2020 10:46 6,6 C 10,0 C 67 % 1021,6 hPa 0,0 l/m 6,0 km/h (2 Bft) N-NO 25 2 min 3,2 UV-I 752 W/m 0,9 C 6,6 C 11,3 km/h (2 Bft)
12.05.2020 10:48 6,8 C 10,6 C 61 % 1021,7 hPa 0,0 l/m 6,2 km/h (2 Bft) N-NO 20 2 min 3,9 UV-I 732 W/m -0,2 C 6,8 C 8,0 km/h (2 Bft)
12.05.2020 10:50 6,6 C 10,6 C 59 % 1021,6 hPa 0,0 l/m 3,7 km/h (1 Bft) W-NW 297 2 min 3,7 UV-I 761 W/m -0,8 C 6,6 C 6,4 km/h (2 Bft)
12.05.2020 10:52 6,1 C 9,4 C 59 % 1021,7 hPa 0,0 l/m 5,1 km/h (1 Bft) W-SW 249 0 min 2,7 UV-I 501 W/m -1,3 C 6,1 C 6,4 km/h (2 Bft)
12.05.2020 10:54 5,7 C 8,3 C 61 % 1021,6 hPa 0,0 l/m 4,4 km/h (1 Bft) SW 231 0 min 3,2 UV-I 309 W/m -1,2 C 5,7 C 6,4 km/h (2 Bft)
12.05.2020 10:56 5,8 C 9,4 C 64 % 1021,7 hPa 0,0 l/m 1,3 km/h (1 Bft) SW 231 0 min 3,4 UV-I 309 W/m -0,5 C 5,8 C 3,2 km/h (1 Bft)
12.05.2020 10:58 6,1 C 10,0 C 62 % 1021,7 hPa 0,0 l/m 3,4 km/h (1 Bft) S-SW 193 2 min 4,4 UV-I 608 W/m -0,6 C 6,1 C 6,4 km/h (2 Bft)
12.05.2020 11:00 6,2 C 10,6 C 59 % 1021,5 hPa 0,0 l/m 3,1 km/h (1 Bft) SW 223 2 min 4,4 UV-I 818 W/m -1,2 C 6,2 C 4,8 km/h (1 Bft)
12.05.2020 11:02 6,2 C 11,1 C 57 % 1021,6 hPa 0,0 l/m 3,6 km/h (1 Bft) W-NW 293 2 min 4,1 UV-I 838 W/m -1,7 C 6,2 C 6,4 km/h (2 Bft)
12.05.2020 11:04 6,4 C 11,1 C 58 % 1021,6 hPa 0,0 l/m 2,8 km/h (1 Bft) N 5 2 min 3,5 UV-I 772 W/m -1,2 C 6,4 C 4,8 km/h (1 Bft)
12.05.2020 11:06 6,3 C 10,0 C 59 % 1021,6 hPa 0,0 l/m 4,8 km/h (1 Bft) O-NO 66 2 min 2,9 UV-I 626 W/m -1,1 C 6,3 C 8,0 km/h (2 Bft)
12.05.2020 11:08 6,4 C 9,4 C 62 % 1021,6 hPa 0,0 l/m 7,3 km/h (2 Bft) N-NO 21 0 min 2,5 UV-I 251 W/m -0,3 C 5,6 C 14,5 km/h (3 Bft)
12.05.2020 11:10 6,3 C 8,9 C 61 % 1021,5 hPa 0,0 l/m 6,6 km/h (2 Bft) S-SO 161 0 min 2,4 UV-I 222 W/m -0,7 C 6,2 C 11,3 km/h (2 Bft)
12.05.2020 11:12 6,1 C 8,9 C 60 % 1021,5 hPa 0,0 l/m 9,7 km/h (2 Bft) O 81 0 min 2,7 UV-I 232 W/m -1,1 C 3,5 C 16,1 km/h (3 Bft)
12.05.2020 11:14 6,2 C 9,4 C 61 % 1021,5 hPa 0,0 l/m 9,6 km/h (2 Bft) O-NO 66 0 min 3,4 UV-I 422 W/m -0,7 C 3,7 C 14,5 km/h (3 Bft)
12.05.2020 11:16 6,4 C 10,6 C 59 % 1021,4 hPa 0,0 l/m 12,4 km/h (3 Bft) O 90 0 min 3,7 UV-I 383 W/m -1,0 C 2,1 C 20,9 km/h (4 Bft)
12.05.2020 11:18 6,6 C 10,6 C 60 % 1021,4 hPa 0,0 l/m 11,7 km/h (2 Bft) NO 34 2 min 4,0 UV-I 712 W/m -0,6 C 2,8 C 17,7 km/h (3 Bft)
12.05.2020 11:20 7,0 C 11,7 C 62 % 1021,4 hPa 0,0 l/m 7,9 km/h (2 Bft) NO 39 2 min 3,7 UV-I 786 W/m 0,2 C 5,8 C 9,7 km/h (2 Bft)
12.05.2020 11:22 6,9 C 10,6 C 59 % 1021,4 hPa 0,0 l/m 10,5 km/h (2 Bft) N-NO 28 0 min 2,5 UV-I 383 W/m -0,5 C 3,8 C 16,1 km/h (3 Bft)
12.05.2020 11:24 6,5 C 10,0 C 60 % 1021,5 hPa 0,0 l/m 7,4 km/h (2 Bft) N-NO 30 0 min 3,2 UV-I 207 W/m -0,7 C 5,7 C 14,5 km/h (3 Bft)
12.05.2020 11:26 6,4 C 11,7 C 60 % 1021,4 hPa 0,0 l/m 0,4 km/h (0 Bft) N-NO 30 0 min 4,7 UV-I 517 W/m -0,8 C 6,4 C 1,6 km/h (1 Bft)
12.05.2020 11:28 6,6 C 12,8 C 62 % 1021,4 hPa 0,0 l/m 4,4 km/h (1 Bft) S-SW 212 2 min 4,9 UV-I 857 W/m -0,1 C 6,6 C 6,4 km/h (2 Bft)
12.05.2020 11:30 6,7 C 13,3 C 62 % 1021,4 hPa 0,0 l/m 4,0 km/h (1 Bft) S-SW 200 2 min 4,9 UV-I 875 W/m -0,1 C 6,7 C 6,4 km/h (2 Bft)
12.05.2020 11:32 6,9 C 13,9 C 59 % 1021,3 hPa 0,0 l/m 2,8 km/h (1 Bft) O 80 2 min 5,0 UV-I 870 W/m -0,5 C 6,9 C 8,0 km/h (2 Bft)
12.05.2020 11:34 7,2 C 13,9 C 58 % 1021,2 hPa 0,0 l/m 6,1 km/h (2 Bft) NO 40 2 min 4,4 UV-I 836 W/m -0,5 C 7,2 C 9,7 km/h (2 Bft)
12.05.2020 11:36 7,7 C 14,4 C 63 % 1021,2 hPa 0,0 l/m 4,9 km/h (1 Bft) SO 130 2 min 5,0 UV-I 860 W/m 1,1 C 7,7 C 8,0 km/h (2 Bft)
12.05.2020 11:38 7,7 C 13,9 C 59 % 1021,2 hPa 0,0 l/m 4,4 km/h (1 Bft) O-SO 113 2 min 5,0 UV-I 877 W/m 0,2 C 7,7 C 9,7 km/h (2 Bft)
12.05.2020 11:40 7,8 C 14,4 C 58 % 1021,2 hPa 0,0 l/m 4,7 km/h (1 Bft) S-SO 148 2 min 5,1 UV-I 881 W/m 0,1 C 7,8 C 8,0 km/h (2 Bft)
12.05.2020 11:42 7,7 C 13,3 C 56 % 1021,2 hPa 0,0 l/m 4,0 km/h (1 Bft) S-SO 161 2 min 4,4 UV-I 813 W/m -0,5 C 7,7 C 8,0 km/h (2 Bft)
12.05.2020 11:44 7,6 C 12,2 C 60 % 1021,1 hPa 0,0 l/m 5,6 km/h (1 Bft) O 85 0 min 3,1 UV-I 487 W/m 0,3 C 7,6 C 11,3 km/h (2 Bft)
12.05.2020 11:46 7,5 C 12,8 C 58 % 1021,1 hPa 0,0 l/m 4,5 km/h (1 Bft) NO 36 2 min 5,1 UV-I 676 W/m -0,2 C 7,5 C 11,3 km/h (2 Bft)
12.05.2020 11:48 7,9 C 13,9 C 57 % 1021,0 hPa 0,0 l/m 2,8 km/h (1 Bft) SO 132 2 min 4,6 UV-I 877 W/m -0,1 C 7,9 C 4,8 km/h (1 Bft)
12.05.2020 11:50 8,2 C 14,4 C 59 % 1021,1 hPa 0,0 l/m 2,2 km/h (1 Bft) N-NW 336 2 min 4,9 UV-I 852 W/m 0,7 C 8,2 C 4,8 km/h (1 Bft)
12.05.2020 11:52 8,5 C 15,0 C 57 % 1021,0 hPa 0,0 l/m 5,9 km/h (2 Bft) N-NW 343 2 min 5,1 UV-I 835 W/m 0,5 C 8,5 C 8,0 km/h (2 Bft)
12.05.2020 11:54 8,5 C 15,6 C 58 % 1020,9 hPa 0,0 l/m 5,7 km/h (1 Bft) N-NO 17 2 min 5,2 UV-I 840 W/m 0,7 C 8,5 C 9,7 km/h (2 Bft)
12.05.2020 11:56 8,6 C 16,1 C 57 % 1020,9 hPa 0,0 l/m 10,6 km/h (2 Bft) NO 35 2 min 5,2 UV-I 838 W/m 0,6 C 5,7 C 14,5 km/h (3 Bft)
12.05.2020 11:58 8,7 C 16,1 C 56 % 1020,8 hPa 0,0 l/m 9,8 km/h (2 Bft) N-NO 22 2 min 5,2 UV-I 845 W/m 0,4 C 6,3 C 16,1 km/h (3 Bft)
12.05.2020 12:00 8,7 C 16,7 C 55 % 1020,9 hPa 0,0 l/m 4,6 km/h (1 Bft) NO 38 2 min 5,3 UV-I 852 W/m 0,2 C 8,7 C 8,0 km/h (2 Bft)
12.05.2020 12:02 8,6 C 16,1 C 51 % 1020,9 hPa 0,0 l/m 4,4 km/h (1 Bft) N-NW 344 2 min 5,3 UV-I 853 W/m -1,0 C 8,6 C 9,7 km/h (2 Bft)
12.05.2020 12:04 8,5 C 16,7 C 53 % 1020,7 hPa 0,0 l/m 4,0 km/h (1 Bft) NW 306 2 min 5,3 UV-I 860 W/m -0,5 C 8,5 C 8,0 km/h (2 Bft)
12.05.2020 12:06 8,8 C 16,1 C 51 % 1020,8 hPa 0,0 l/m 5,5 km/h (1 Bft) N 5 2 min 5,3 UV-I 852 W/m -0,8 C 8,8 C 9,7 km/h (2 Bft)
12.05.2020 12:08 8,8 C 15,6 C 55 % 1020,7 hPa 0,0 l/m 4,5 km/h (1 Bft) O-NO 77 2 min 5,4 UV-I 858 W/m 0,3 C 8,8 C 14,5 km/h (3 Bft)
12.05.2020 12:10 8,8 C 16,1 C 48 % 1020,7 hPa 0,0 l/m 12,3 km/h (3 Bft) NO 42 2 min 5,5 UV-I 856 W/m -1,6 C 5,0 C 19,3 km/h (3 Bft)
12.05.2020 12:12 8,4 C 15,0 C 50 % 1020,8 hPa 0,0 l/m 9,7 km/h (2 Bft) NO 45 2 min 5,5 UV-I 855 W/m -1,4 C 6,0 C 16,1 km/h (3 Bft)
12.05.2020 12:14 8,4 C 15,6 C 51 % 1020,8 hPa 0,0 l/m 9,2 km/h (2 Bft) NO 56 2 min 5,4 UV-I 854 W/m -1,1 C 6,3 C 14,5 km/h (3 Bft)
12.05.2020 12:16 8,3 C 16,1 C 53 % 1020,8 hPa 0,0 l/m 8,3 km/h (2 Bft) N-NO 27 2 min 5,5 UV-I 854 W/m -0,7 C 6,9 C 14,5 km/h (3 Bft)
12.05.2020 12:18 8,3 C 16,1 C 51 % 1020,8 hPa 0,0 l/m 5,9 km/h (2 Bft) NO 49 2 min 5,5 UV-I 858 W/m -1,2 C 8,3 C 8,0 km/h (2 Bft)
12.05.2020 12:20 8,6 C 15,6 C 53 % 1020,8 hPa 0,0 l/m 3,1 km/h (1 Bft) SO 144 2 min 5,5 UV-I 862 W/m -0,4 C 8,6 C 4,8 km/h (1 Bft)
12.05.2020 12:22 8,4 C 15,0 C 49 % 1020,7 hPa 0,0 l/m 4,6 km/h (1 Bft) O-NO 71 2 min 5,6 UV-I 867 W/m -1,7 C 8,4 C 11,3 km/h (2 Bft)
12.05.2020 12:24 8,3 C 15,0 C 49 % 1020,7 hPa 0,0 l/m 2,3 km/h (1 Bft) N-NO 31 2 min 5,6 UV-I 869 W/m -1,8 C 8,3 C 4,8 km/h (1 Bft)
12.05.2020 12:26 8,4 C 15,0 C 53 % 1020,7 hPa 0,0 l/m 4,7 km/h (1 Bft) NO 53 2 min 5,6 UV-I 873 W/m -0,6 C 8,4 C 6,4 km/h (2 Bft)
12.05.2020 12:28 8,0 C 15,0 C 50 % 1020,6 hPa 0,0 l/m 2,0 km/h (1 Bft) O 81 2 min 5,4 UV-I 893 W/m -1,8 C 8,0 C 4,8 km/h (1 Bft)
12.05.2020 12:30 8,0 C 14,4 C 55 % 1020,8 hPa 0,0 l/m 3,1 km/h (1 Bft) O-NO 75 2 min 4,7 UV-I 898 W/m -0,5 C 8,0 C 6,4 km/h (2 Bft)
12.05.2020 12:32 8,4 C 14,4 C 54 % 1020,6 hPa 0,0 l/m 5,3 km/h (1 Bft) O 86 2 min 4,9 UV-I 908 W/m -0,4 C 8,4 C 14,5 km/h (3 Bft)
12.05.2020 12:34 8,9 C 15,0 C 53 % 1020,6 hPa 0,0 l/m 11,1 km/h (2 Bft) NO 36 2 min 5,7 UV-I 956 W/m -0,1 C 5,7 C 16,1 km/h (3 Bft)
12.05.2020 12:36 9,3 C 15,6 C 54 % 1020,7 hPa 0,0 l/m 11,6 km/h (2 Bft) O-NO 63 2 min 5,9 UV-I 971 W/m 0,5 C 5,9 C 17,7 km/h (3 Bft)
12.05.2020 12:38 9,4 C 16,7 C 53 % 1020,6 hPa 0,0 l/m 10,7 km/h (2 Bft) O 85 2 min 6,1 UV-I 1025 W/m 0,3 C 6,5 C 14,5 km/h (3 Bft)
12.05.2020 12:40 9,0 C 16,7 C 48 % 1020,6 hPa 0,0 l/m 8,0 km/h (2 Bft) O-NO 64 2 min 6,2 UV-I 1068 W/m -1,4 C 7,8 C 16,1 km/h (3 Bft)
12.05.2020 12:42 9,6 C 18,3 C 56 % 1020,7 hPa 0,0 l/m 11,3 km/h (2 Bft) NO 55 2 min 6,3 UV-I 1072 W/m 1,3 C 6,4 C 17,7 km/h (3 Bft)
12.05.2020 12:44 9,2 C 18,3 C 46 % 1020,6 hPa 0,0 l/m 5,8 km/h (2 Bft) O-NO 69 2 min 5,2 UV-I 1009 W/m -1,8 C 9,2 C 14,5 km/h (3 Bft)
12.05.2020 12:46 8,7 C 15,6 C 50 % 1020,6 hPa 0,0 l/m 3,1 km/h (1 Bft) O-NO 78 2 min 4,0 UV-I 794 W/m -1,1 C 8,7 C 6,4 km/h (2 Bft)
12.05.2020 12:48 8,9 C 16,1 C 53 % 1020,5 hPa 0,0 l/m 6,4 km/h (2 Bft) O-NO 65 0 min 4,7 UV-I 441 W/m -0,1 C 8,9 C 11,3 km/h (2 Bft)
12.05.2020 12:50 9,1 C 15,6 C 54 % 1020,5 hPa 0,0 l/m 4,2 km/h (1 Bft) NO 40 0 min 4,2 UV-I 441 W/m 0,3 C 9,1 C 9,7 km/h (2 Bft)
12.05.2020 12:52 9,4 C 15,0 C 48 % 1020,4 hPa 0,0 l/m 9,5 km/h (2 Bft) N-NO 17 0 min 3,8 UV-I 441 W/m -1,0 C 7,2 C 20,9 km/h (4 Bft)
12.05.2020 12:54 8,7 C 13,9 C 48 % 1020,4 hPa 0,0 l/m 4,0 km/h (1 Bft) W 263 0 min 3,5 UV-I 439 W/m -1,7 C 8,7 C 9,7 km/h (2 Bft)
12.05.2020 12:56 8,3 C 13,3 C 49 % 1020,3 hPa 0,0 l/m 5,6 km/h (1 Bft) S-SW 197 0 min 3,7 UV-I 469 W/m -1,8 C 8,3 C 9,7 km/h (2 Bft)
12.05.2020 12:58 8,3 C 13,9 C 51 % 1020,2 hPa 0,0 l/m 2,9 km/h (1 Bft) S-SW 207 0 min 4,6 UV-I 498 W/m -1,2 C 8,3 C 6,4 km/h (2 Bft)
12.05.2020 13:00 8,8 C 15,0 C 53 % 1020,3 hPa 0,0 l/m 3,3 km/h (1 Bft) W-NW 292 0 min 5,0 UV-I 498 W/m -0,2 C 8,8 C 6,4 km/h (2 Bft)
12.05.2020 13:02 9,5 C 16,1 C 56 % 1020,3 hPa 0,0 l/m 8,2 km/h (2 Bft) N 355 0 min 4,3 UV-I 497 W/m 1,2 C 8,2 C 16,1 km/h (3 Bft)
12.05.2020 13:04 9,8 C 17,2 C 60 % 1020,3 hPa 0,0 l/m 6,9 km/h (2 Bft) N 11 2 min 6,2 UV-I 701 W/m 2,4 C 9,4 C 14,5 km/h (3 Bft)
12.05.2020 13:06 10,2 C 18,3 C 51 % 1020,4 hPa 0,0 l/m 7,4 km/h (2 Bft) N-NO 30 2 min 5,4 UV-I 927 W/m 0,5 C 9,5 C 12,9 km/h (3 Bft)
12.05.2020 13:08 9,9 C 18,9 C 51 % 1020,3 hPa 0,0 l/m 5,5 km/h (1 Bft) NO 41 2 min 5,1 UV-I 923 W/m 0,2 C 9,9 C 11,3 km/h (2 Bft)
12.05.2020 13:10 9,6 C 16,7 C 48 % 1020,3 hPa 0,0 l/m 3,7 km/h (1 Bft) NW 323 0 min 3,5 UV-I 505 W/m -0,9 C 9,6 C 8,0 km/h (2 Bft)
12.05.2020 13:12 9,2 C 15,0 C 50 % 1020,3 hPa 0,0 l/m 8,5 km/h (2 Bft) W 277 0 min 3,3 UV-I 389 W/m -0,7 C 7,7 C 12,9 km/h (3 Bft)
12.05.2020 13:14 8,7 C 13,9 C 49 % 1020,3 hPa 0,0 l/m 8,1 km/h (2 Bft) NW 312 0 min 4,0 UV-I 404 W/m -1,4 C 7,4 C 12,9 km/h (3 Bft)
12.05.2020 13:16 9,1 C 16,1 C 54 % 1020,2 hPa 0,0 l/m 4,4 km/h (1 Bft) W 275 0 min 6,1 UV-I 413 W/m 0,3 C 9,1 C 11,3 km/h (2 Bft)
12.05.2020 13:18 9,7 C 17,8 C 51 % 1020,1 hPa 0,0 l/m 4,5 km/h (1 Bft) N-NW 328 2 min 6,0 UV-I 771 W/m 0,1 C 9,7 C 8,0 km/h (2 Bft)
12.05.2020 13:20 9,8 C 18,9 C 55 % 1020,1 hPa 0,0 l/m 3,8 km/h (1 Bft) NW 317 2 min 6,1 UV-I 1074 W/m 1,2 C 9,8 C 6,4 km/h (2 Bft)
12.05.2020 13:22 10,1 C 20,6 C 52 % 1020,1 hPa 0,0 l/m 6,0 km/h (2 Bft) SW 229 2 min 6,8 UV-I 1168 W/m 0,7 C 10,1 C 8,0 km/h (2 Bft)
12.05.2020 13:24 9,9 C 20,6 C 47 % 1019,9 hPa 0,0 l/m 5,9 km/h (2 Bft) SW 230 2 min 7,0 UV-I 1169 W/m -0,9 C 9,9 C 9,7 km/h (2 Bft)
12.05.2020 13:26 9,8 C 19,4 C 53 % 1019,9 hPa 0,0 l/m 6,9 km/h (2 Bft) W-SW 252 2 min 7,0 UV-I 1157 W/m 0,7 C 9,4 C 11,3 km/h (2 Bft)
12.05.2020 13:28 10,1 C 19,4 C 52 % 1019,8 hPa 0,0 l/m 5,4 km/h (1 Bft) SW 229 2 min 7,0 UV-I 1133 W/m 0,7 C 10,1 C 11,3 km/h (2 Bft)
12.05.2020 13:30 10,3 C 18,9 C 52 % 1019,9 hPa 0,0 l/m 6,1 km/h (2 Bft) S-SW 212 2 min 6,9 UV-I 1105 W/m 0,9 C 10,3 C 9,7 km/h (2 Bft)
12.05.2020 13:32 10,3 C 18,9 C 51 % 1019,8 hPa 0,0 l/m 6,0 km/h (2 Bft) W-SW 239 2 min 6,8 UV-I 1096 W/m 0,6 C 10,3 C 9,7 km/h (2 Bft)
12.05.2020 13:34 10,4 C 20,0 C 54 % 1019,7 hPa 0,0 l/m 2,7 km/h (1 Bft) S 177 2 min 6,9 UV-I 1112 W/m 1,5 C 10,4 C 4,8 km/h (1 Bft)
12.05.2020 13:36 10,8 C 21,7 C 53 % 1019,7 hPa 0,0 l/m 2,2 km/h (1 Bft) NW 325 2 min 7,0 UV-I 1135 W/m 1,6 C 10,8 C 6,4 km/h (2 Bft)
12.05.2020 13:38 10,4 C 21,7 C 54 % 1019,7 hPa 0,0 l/m 4,4 km/h (1 Bft) N-NW 346 2 min 7,0 UV-I 1154 W/m 1,5 C 10,4 C 9,7 km/h (2 Bft)
12.05.2020 13:40 10,4 C 20,0 C 51 % 1019,7 hPa 0,0 l/m 6,7 km/h (2 Bft) NW 325 2 min 5,8 UV-I 1157 W/m 0,7 C 10,2 C 14,5 km/h (3 Bft)
12.05.2020 13:42 10,1 C 17,8 C 51 % 1019,8 hPa 0,0 l/m 6,4 km/h (2 Bft) N 355 2 min 3,5 UV-I 687 W/m 0,4 C 10,1 C 14,5 km/h (3 Bft)
12.05.2020 13:44 9,9 C 17,2 C 51 % 1019,8 hPa 0,0 l/m 8,0 km/h (2 Bft) W-NW 287 0 min 3,6 UV-I 406 W/m 0,2 C 8,7 C 14,5 km/h (3 Bft)
12.05.2020 13:46 9,6 C 16,1 C 49 % 1019,8 hPa 0,0 l/m 7,5 km/h (2 Bft) N-NW 348 0 min 3,2 UV-I 350 W/m -0,6 C 8,8 C 14,5 km/h (3 Bft)
12.05.2020 13:48 9,3 C 15,6 C 51 % 1019,8 hPa 0,0 l/m 8,7 km/h (2 Bft) N 5 0 min 3,1 UV-I 329 W/m -0,3 C 7,6 C 12,9 km/h (3 Bft)
12.05.2020 13:50 9,0 C 14,4 C 53 % 1019,8 hPa 0,0 l/m 9,1 km/h (2 Bft) N 9 0 min 3,0 UV-I 310 W/m -0,1 C 7,1 C 12,9 km/h (3 Bft)
12.05.2020 13:52 8,9 C 13,9 C 52 % 1019,8 hPa 0,0 l/m 6,2 km/h (2 Bft) N-NW 342 0 min 3,0 UV-I 316 W/m -0,4 C 8,9 C 11,3 km/h (2 Bft)
12.05.2020 13:54 8,8 C 13,9 C 53 % 1019,8 hPa 0,0 l/m 5,4 km/h (1 Bft) N 9 0 min 3,1 UV-I 329 W/m -0,2 C 8,8 C 6,4 km/h (2 Bft)
12.05.2020 13:56 8,8 C 13,9 C 52 % 1019,7 hPa 0,0 l/m 3,7 km/h (1 Bft) N 10 0 min 3,7 UV-I 344 W/m -0,5 C 8,8 C 4,8 km/h (1 Bft)
12.05.2020 13:58 8,8 C 15,0 C 52 % 1019,6 hPa 0,0 l/m 3,4 km/h (1 Bft) N-NO 30 0 min 3,7 UV-I 352 W/m -0,5 C 8,8 C 6,4 km/h (2 Bft)
12.05.2020 14:00 8,8 C 13,9 C 49 % 1019,7 hPa 0,0 l/m 1,8 km/h (1 Bft) N-NW 335 0 min 3,2 UV-I 348 W/m -1,3 C 8,8 C 4,8 km/h (1 Bft)
12.05.2020 14:02 8,7 C 13,3 C 53 % 1019,7 hPa 0,0 l/m 1,6 km/h (1 Bft) NW 319 0 min 3,4 UV-I 364 W/m -0,3 C 8,7 C 3,2 km/h (1 Bft)
12.05.2020 14:04 8,6 C 13,3 C 50 % 1019,6 hPa 0,0 l/m 3,1 km/h (1 Bft) SO 143 0 min 6,0 UV-I 431 W/m -1,2 C 8,6 C 4,8 km/h (1 Bft)
12.05.2020 14:06 8,7 C 16,7 C 50 % 1019,6 hPa 0,0 l/m 2,7 km/h (1 Bft) O-NO 65 2 min 6,3 UV-I 1146 W/m -1,1 C 8,7 C 4,8 km/h (1 Bft)
12.05.2020 14:08 9,6 C 17,8 C 54 % 1019,5 hPa 0,0 l/m 6,4 km/h (2 Bft) N 11 2 min 5,5 UV-I 1091 W/m 0,8 C 9,6 C 9,7 km/h (2 Bft)
12.05.2020 14:10 10,2 C 20,0 C 51 % 1019,5 hPa 0,0 l/m 5,6 km/h (1 Bft) N-NW 338 2 min 6,4 UV-I 1112 W/m 0,5 C 10,2 C 9,7 km/h (2 Bft)
12.05.2020 14:12 11,1 C 21,7 C 58 % 1019,4 hPa 0,0 l/m 6,0 km/h (2 Bft) N-NO 22 2 min 6,6 UV-I 1143 W/m 3,2 C 11,1 C 8,0 km/h (2 Bft)
12.05.2020 14:14 10,8 C 22,2 C 46 % 1019,3 hPa 0,0 l/m 3,0 km/h (1 Bft) NO 38 2 min 5,9 UV-I 1144 W/m -0,3 C 10,8 C 8,0 km/h (2 Bft)
12.05.2020 14:16 11,1 C 21,1 C 56 % 1019,4 hPa 0,0 l/m 2,5 km/h (1 Bft) N-NW 329 2 min 4,5 UV-I 1078 W/m 2,7 C 11,1 C 4,8 km/h (1 Bft)
12.05.2020 14:18 10,7 C 18,3 C 50 % 1019,4 hPa 0,0 l/m 12,6 km/h (3 Bft) N 349 0 min 3,3 UV-I 382 W/m 0,7 C 7,0 C 20,9 km/h (4 Bft)
12.05.2020 14:20 10,1 C 16,1 C 53 % 1019,4 hPa 0,0 l/m 11,3 km/h (2 Bft) NW 322 0 min 3,2 UV-I 382 W/m 1,0 C 7,0 C 19,3 km/h (3 Bft)
12.05.2020 14:22 9,7 C 15,0 C 53 % 1019,4 hPa 0,0 l/m 11,5 km/h (2 Bft) N-NO 30 0 min 3,2 UV-I 377 W/m 0,6 C 6,4 C 16,1 km/h (3 Bft)
12.05.2020 14:24 9,6 C 14,4 C 56 % 1019,4 hPa 0,0 l/m 9,2 km/h (2 Bft) N 355 0 min 3,1 UV-I 376 W/m 1,3 C 7,6 C 16,1 km/h (3 Bft)
12.05.2020 14:26 9,3 C 13,9 C 54 % 1019,4 hPa 0,0 l/m 13,0 km/h (3 Bft) N 10 0 min 3,1 UV-I 383 W/m 0,5 C 5,2 C 17,7 km/h (3 Bft)
12.05.2020 14:28 9,3 C 14,4 C 54 % 1019,4 hPa 0,0 l/m 11,7 km/h (2 Bft) NO 38 0 min 3,2 UV-I 393 W/m 0,5 C 5,9 C 17,7 km/h (3 Bft)
12.05.2020 14:30 9,1 C 13,9 C 53 % 1019,4 hPa 0,0 l/m 9,0 km/h (2 Bft) N 350 0 min 3,2 UV-I 388 W/m 0,0 C 7,2 C 16,1 km/h (3 Bft)
12.05.2020 14:32 9,1 C 13,9 C 52 % 1019,4 hPa 0,0 l/m 9,0 km/h (2 Bft) N 355 0 min 3,3 UV-I 406 W/m -0,2 C 7,2 C 14,5 km/h (3 Bft)
12.05.2020 14:34 9,2 C 13,9 C 59 % 1019,5 hPa 0,0 l/m 11,3 km/h (2 Bft) N 5 0 min 3,3 UV-I 385 W/m 1,6 C 6,0 C 16,1 km/h (3 Bft)
12.05.2020 14:36 9,4 C 14,4 C 58 % 1019,3 hPa 0,0 l/m 9,9 km/h (2 Bft) N-NO 27 0 min 3,1 UV-I 356 W/m 1,6 C 7,0 C 16,1 km/h (3 Bft)
12.05.2020 14:38 9,3 C 14,4 C 53 % 1019,3 hPa 0,0 l/m 13,3 km/h (3 Bft) N 355 0 min 3,3 UV-I 373 W/m 0,2 C 5,1 C 16,1 km/h (3 Bft)
12.05.2020 14:40 9,2 C 14,4 C 52 % 1019,3 hPa 0,0 l/m 9,9 km/h (2 Bft) N-NW 341 0 min 4,1 UV-I 454 W/m -0,1 C 6,8 C 14,5 km/h (3 Bft)
12.05.2020 14:42 9,3 C 16,1 C 55 % 1019,2 hPa 0,0 l/m 4,9 km/h (1 Bft) NW 308 2 min 4,9 UV-I 621 W/m 0,7 C 9,3 C 9,7 km/h (2 Bft)
12.05.2020 14:44 9,8 C 17,2 C 51 % 1019,3 hPa 0,0 l/m 5,8 km/h (2 Bft) N-NO 25 2 min 5,4 UV-I 671 W/m 0,2 C 9,8 C 9,7 km/h (2 Bft)
12.05.2020 14:46 10,0 C 18,3 C 54 % 1019,3 hPa 0,0 l/m 10,2 km/h (2 Bft) N 355 2 min 5,2 UV-I 693 W/m 1,1 C 7,5 C 17,7 km/h (3 Bft)
12.05.2020 14:48 10,3 C 18,9 C 58 % 1019,3 hPa 0,0 l/m 14,8 km/h (3 Bft) N-NO 15 2 min 4,8 UV-I 847 W/m 2,4 C 5,6 C 22,5 km/h (4 Bft)
12.05.2020 14:50 10,3 C 18,9 C 54 % 1019,3 hPa 0,0 l/m 17,4 km/h (3 Bft) N 350 2 min 4,8 UV-I 847 W/m 1,4 C 4,6 C 25,7 km/h (4 Bft)
12.05.2020 14:52 9,8 C 17,2 C 54 % 1019,3 hPa 0,0 l/m 13,7 km/h (3 Bft) N 355 0 min 4,1 UV-I 496 W/m 0,9 C 5,5 C 22,5 km/h (4 Bft)
12.05.2020 14:54 10,0 C 17,8 C 59 % 1019,3 hPa 0,0 l/m 12,8 km/h (3 Bft) N 360 0 min 5,3 UV-I 513 W/m 2,4 C 6,1 C 20,9 km/h (4 Bft)
12.05.2020 14:56 10,2 C 17,8 C 60 % 1019,4 hPa 0,0 l/m 12,3 km/h (3 Bft) N-NW 339 0 min 4,3 UV-I 513 W/m 2,8 C 6,6 C 19,3 km/h (3 Bft)
12.05.2020 14:58 10,0 C 16,7 C 57 % 1019,3 hPa 0,0 l/m 11,7 km/h (2 Bft) N-NO 19 0 min 3,1 UV-I 399 W/m 1,9 C 6,7 C 17,7 km/h (3 Bft)
12.05.2020 15:00 9,5 C 15,0 C 56 % 1019,3 hPa 0,0 l/m 6,8 km/h (2 Bft) N-NW 343 0 min 3,0 UV-I 333 W/m 1,2 C 9,2 C 14,5 km/h (3 Bft)
12.05.2020 15:02 9,3 C 14,4 C 56 % 1019,3 hPa 0,0 l/m 8,1 km/h (2 Bft) N 360 0 min 3,0 UV-I 352 W/m 1,0 C 8,0 C 12,9 km/h (3 Bft)
12.05.2020 15:04 9,2 C 14,4 C 54 % 1019,3 hPa 0,0 l/m 10,2 km/h (2 Bft) N 355 0 min 3,0 UV-I 368 W/m 0,4 C 6,6 C 17,7 km/h (3 Bft)
12.05.2020 15:06 9,2 C 14,4 C 56 % 1019,3 hPa 0,0 l/m 6,7 km/h (2 Bft) N-NO 15 0 min 3,0 UV-I 385 W/m 0,9 C 9,0 C 16,1 km/h (3 Bft)
12.05.2020 15:08 9,3 C 14,4 C 55 % 1019,4 hPa 0,0 l/m 11,1 km/h (2 Bft) N-NW 348 0 min 3,0 UV-I 402 W/m 0,7 C 6,2 C 16,1 km/h (3 Bft)
12.05.2020 15:10 9,2 C 15,6 C 53 % 1019,3 hPa 0,0 l/m 7,1 km/h (2 Bft) N-NW 338 0 min 4,1 UV-I 490 W/m 0,1 C 8,7 C 12,9 km/h (3 Bft)
12.05.2020 15:12 9,6 C 16,1 C 58 % 1019,3 hPa 0,0 l/m 7,4 km/h (2 Bft) N-NW 344 2 min 4,0 UV-I 747 W/m 1,8 C 8,9 C 17,7 km/h (3 Bft)
12.05.2020 15:14 9,7 C 16,7 C 52 % 1019,3 hPa 0,0 l/m 9,3 km/h (2 Bft) N 5 2 min 3,8 UV-I 589 W/m 0,3 C 7,7 C 16,1 km/h (3 Bft)
12.05.2020 15:16 9,8 C 17,8 C 55 % 1019,2 hPa 0,0 l/m 8,3 km/h (2 Bft) N-NO 15 2 min 5,1 UV-I 603 W/m 1,2 C 8,4 C 14,5 km/h (3 Bft)
12.05.2020 15:18 10,2 C 18,9 C 58 % 1019,3 hPa 0,0 l/m 6,9 km/h (2 Bft) N 5 2 min 4,4 UV-I 607 W/m 2,3 C 9,8 C 12,9 km/h (3 Bft)
12.05.2020 15:20 10,4 C 19,4 C 53 % 1019,3 hPa 0,0 l/m 7,6 km/h (2 Bft) W-NW 298 2 min 5,7 UV-I 831 W/m 1,2 C 9,5 C 12,9 km/h (3 Bft)
12.05.2020 15:22 10,7 C 20,6 C 54 % 1019,3 hPa 0,0 l/m 5,5 km/h (1 Bft) N-NO 27 2 min 5,5 UV-I 1039 W/m 1,8 C 10,7 C 8,0 km/h (2 Bft)
12.05.2020 15:24 10,8 C 21,7 C 56 % 1019,3 hPa 0,0 l/m 5,1 km/h (1 Bft) N 9 2 min 5,1 UV-I 1011 W/m 2,4 C 10,8 C 11,3 km/h (2 Bft)
12.05.2020 15:26 10,4 C 18,9 C 51 % 1019,3 hPa 0,0 l/m 6,8 km/h (2 Bft) N-NW 331 2 min 3,4 UV-I 687 W/m 0,7 C 10,1 C 12,9 km/h (3 Bft)
12.05.2020 15:28 9,8 C 17,2 C 51 % 1019,3 hPa 0,0 l/m 2,1 km/h (1 Bft) N-NW 333 0 min 3,1 UV-I 349 W/m 0,2 C 9,8 C 6,4 km/h (2 Bft)
12.05.2020 15:30 9,5 C 16,7 C 55 % 1019,2 hPa 0,0 l/m 4,0 km/h (1 Bft) N-NW 343 0 min 4,5 UV-I 385 W/m 0,9 C 9,5 C 8,0 km/h (2 Bft)
12.05.2020 15:32 9,9 C 17,2 C 56 % 1019,3 hPa 0,0 l/m 7,6 km/h (2 Bft) N 360 0 min 4,4 UV-I 484 W/m 1,5 C 9,0 C 14,5 km/h (3 Bft)
12.05.2020 15:34 10,4 C 18,3 C 59 % 1019,3 hPa 0,0 l/m 13,0 km/h (3 Bft) N 351 2 min 5,2 UV-I 782 W/m 2,7 C 6,5 C 20,9 km/h (4 Bft)
12.05.2020 15:36 10,5 C 19,4 C 56 % 1019,1 hPa 0,0 l/m 11,5 km/h (2 Bft) N 5 2 min 5,2 UV-I 894 W/m 2,1 C 7,3 C 19,3 km/h (3 Bft)
12.05.2020 15:38 10,6 C 20,0 C 56 % 1019,1 hPa 0,0 l/m 12,7 km/h (3 Bft) NW 313 2 min 5,2 UV-I 883 W/m 2,2 C 6,9 C 17,7 km/h (3 Bft)
12.05.2020 15:40 10,7 C 20,0 C 55 % 1019,2 hPa 0,0 l/m 14,2 km/h (3 Bft) N 355 2 min 4,9 UV-I 866 W/m 2,0 C 6,3 C 19,3 km/h (3 Bft)
12.05.2020 15:42 10,6 C 18,9 C 53 % 1019,2 hPa 0,0 l/m 14,4 km/h (3 Bft) N-NW 343 2 min 4,8 UV-I 891 W/m 1,4 C 6,1 C 22,5 km/h (4 Bft)
12.05.2020 15:44 10,5 C 20,0 C 56 % 1019,2 hPa 0,0 l/m 4,5 km/h (1 Bft) NW 316 2 min 4,8 UV-I 891 W/m 2,1 C 10,5 C 9,7 km/h (2 Bft)
12.05.2020 15:46 10,4 C 20,0 C 53 % 1019,1 hPa 0,0 l/m 8,5 km/h (2 Bft) N 355 2 min 5,0 UV-I 895 W/m 1,2 C 8,9 C 14,5 km/h (3 Bft)
12.05.2020 15:48 10,7 C 20,0 C 58 % 1019,2 hPa 0,0 l/m 8,1 km/h (2 Bft) N-NW 333 2 min 5,0 UV-I 903 W/m 2,8 C 9,5 C 16,1 km/h (3 Bft)
12.05.2020 15:50 10,4 C 19,4 C 50 % 1019,2 hPa 0,0 l/m 5,5 km/h (1 Bft) N-NW 336 2 min 5,0 UV-I 921 W/m 0,4 C 10,4 C 12,9 km/h (3 Bft)
12.05.2020 15:52 10,5 C 19,4 C 58 % 1019,2 hPa 0,0 l/m 11,6 km/h (2 Bft) N 11 2 min 4,8 UV-I 930 W/m 2,6 C 7,3 C 20,9 km/h (4 Bft)
12.05.2020 15:54 10,7 C 19,4 C 57 % 1019,2 hPa 0,0 l/m 11,8 km/h (2 Bft) N-NW 344 2 min 4,5 UV-I 931 W/m 2,5 C 7,4 C 16,1 km/h (3 Bft)
12.05.2020 15:56 10,6 C 20,0 C 52 % 1019,2 hPa 0,0 l/m 10,5 km/h (2 Bft) N-NW 340 2 min 5,0 UV-I 927 W/m 1,2 C 8,0 C 14,5 km/h (3 Bft)
12.05.2020 15:58 10,6 C 20,6 C 55 % 1019,1 hPa 0,0 l/m 9,2 km/h (2 Bft) NO 46 2 min 5,0 UV-I 921 W/m 1,9 C 8,7 C 14,5 km/h (3 Bft)
12.05.2020 16:00 10,7 C 20,6 C 55 % 1019,1 hPa 0,0 l/m 11,8 km/h (2 Bft) N-NO 22 2 min 5,0 UV-I 904 W/m 2,0 C 7,4 C 19,3 km/h (3 Bft)
12.05.2020 16:02 10,8 C 20,0 C 53 % 1019,1 hPa 0,0 l/m 11,3 km/h (2 Bft) O 83 2 min 4,9 UV-I 887 W/m 1,6 C 7,8 C 16,1 km/h (3 Bft)
12.05.2020 16:04 10,9 C 19,4 C 58 % 1019,0 hPa 0,0 l/m 11,7 km/h (2 Bft) NO 34 2 min 4,2 UV-I 895 W/m 3,0 C 7,7 C 17,7 km/h (3 Bft)
12.05.2020 16:06 10,6 C 17,2 C 53 % 1019,0 hPa 0,0 l/m 9,5 km/h (2 Bft) O-NO 68 2 min 3,3 UV-I 657 W/m 1,4 C 8,5 C 19,3 km/h (3 Bft)
12.05.2020 16:08 10,1 C 16,1 C 51 % 1019,0 hPa 0,0 l/m 12,1 km/h (2 Bft) O-NO 76 0 min 2,8 UV-I 316 W/m 0,4 C 6,6 C 16,1 km/h (3 Bft)
12.05.2020 16:10 9,6 C 15,0 C 53 % 1019,0 hPa 0,0 l/m 10,3 km/h (2 Bft) NO 49 0 min 3,4 UV-I 338 W/m 0,5 C 7,0 C 16,1 km/h (3 Bft)
12.05.2020 16:12 9,7 C 16,7 C 56 % 1018,9 hPa 0,0 l/m 10,7 km/h (2 Bft) O-NO 60 0 min 3,5 UV-I 390 W/m 1,4 C 6,9 C 16,1 km/h (3 Bft)
12.05.2020 16:14 9,9 C 17,2 C 55 % 1019,0 hPa 0,0 l/m 14,0 km/h (3 Bft) NO 45 0 min 3,7 UV-I 399 W/m 1,3 C 5,4 C 22,5 km/h (4 Bft)
12.05.2020 16:16 9,7 C 16,7 C 53 % 1019,0 hPa 0,0 l/m 8,4 km/h (2 Bft) NO 54 0 min 2,4 UV-I 350 W/m 0,6 C 8,3 C 14,5 km/h (3 Bft)
12.05.2020 16:18 9,4 C 15,6 C 54 % 1019,0 hPa 0,0 l/m 2,6 km/h (1 Bft) O 98 0 min 2,4 UV-I 326 W/m 0,6 C 9,4 C 4,8 km/h (1 Bft)
12.05.2020 16:20 9,7 C 16,1 C 57 % 1019,0 hPa 0,0 l/m 8,4 km/h (2 Bft) O-NO 71 0 min 3,2 UV-I 357 W/m 1,6 C 8,3 C 14,5 km/h (3 Bft)
12.05.2020 16:22 9,6 C 15,0 C 53 % 1019,0 hPa 0,0 l/m 12,0 km/h (2 Bft) O-NO 67 0 min 2,4 UV-I 335 W/m 0,5 C 6,1 C 17,7 km/h (3 Bft)
12.05.2020 16:24 9,3 C 13,9 C 52 % 1018,9 hPa 0,0 l/m 8,1 km/h (2 Bft) O 91 0 min 2,3 UV-I 307 W/m -0,0 C 8,0 C 14,5 km/h (3 Bft)
12.05.2020 16:26 9,3 C 12,8 C 53 % 1018,9 hPa 0,0 l/m 7,0 km/h (2 Bft) SO 132 0 min 2,5 UV-I 305 W/m 0,2 C 8,9 C 11,3 km/h (2 Bft)
12.05.2020 16:28 9,6 C 14,4 C 55 % 1018,9 hPa 0,0 l/m 5,6 km/h (1 Bft) SO 137 2 min 3,7 UV-I 756 W/m 1,0 C 9,6 C 9,7 km/h (2 Bft)
12.05.2020 16:30 9,7 C 15,6 C 54 % 1018,9 hPa 0,0 l/m 8,1 km/h (2 Bft) O 98 0 min 3,4 UV-I 410 W/m 0,9 C 8,5 C 14,5 km/h (3 Bft)
12.05.2020 16:32 10,2 C 17,2 C 57 % 1018,8 hPa 0,0 l/m 9,2 km/h (2 Bft) O-NO 73 2 min 3,9 UV-I 904 W/m 2,1 C 8,3 C 14,5 km/h (3 Bft)
12.05.2020 16:34 9,9 C 16,7 C 51 % 1018,9 hPa 0,0 l/m 7,7 km/h (2 Bft) O-NO 78 2 min 2,5 UV-I 714 W/m 0,2 C 9,0 C 11,3 km/h (2 Bft)
12.05.2020 16:36 9,8 C 15,0 C 52 % 1018,9 hPa 0,0 l/m 6,8 km/h (2 Bft) O-NO 76 0 min 2,2 UV-I 297 W/m 0,4 C 9,5 C 11,3 km/h (2 Bft)
12.05.2020 16:38 9,7 C 14,4 C 53 % 1018,9 hPa 0,0 l/m 4,2 km/h (1 Bft) O-NO 69 0 min 2,2 UV-I 289 W/m 0,6 C 9,7 C 6,4 km/h (2 Bft)
12.05.2020 16:40 9,6 C 13,9 C 54 % 1018,8 hPa 0,0 l/m 7,3 km/h (2 Bft) N 355 0 min 2,3 UV-I 305 W/m 0,8 C 8,9 C 14,5 km/h (3 Bft)
12.05.2020 16:42 9,5 C 13,9 C 54 % 1018,9 hPa 0,0 l/m 9,4 km/h (2 Bft) N 9 0 min 2,2 UV-I 286 W/m 0,7 C 7,4 C 14,5 km/h (3 Bft)
12.05.2020 16:44 9,5 C 13,9 C 55 % 1018,8 hPa 0,0 l/m 9,5 km/h (2 Bft) N 5 0 min 2,0 UV-I 260 W/m 0,9 C 7,3 C 14,5 km/h (3 Bft)
12.05.2020 16:46 9,4 C 13,9 C 56 % 1018,9 hPa 0,0 l/m 12,1 km/h (2 Bft) N 349 0 min 1,9 UV-I 240 W/m 1,1 C 5,8 C 22,5 km/h (4 Bft)
12.05.2020 16:48 9,2 C 13,3 C 53 % 1018,8 hPa 0,0 l/m 10,2 km/h (2 Bft) N-NW 333 0 min 1,9 UV-I 235 W/m 0,1 C 6,6 C 16,1 km/h (3 Bft)
12.05.2020 16:50 9,2 C 12,8 C 54 % 1018,9 hPa 0,0 l/m 11,4 km/h (2 Bft) NO 34 0 min 1,8 UV-I 237 W/m 0,4 C 5,9 C 17,7 km/h (3 Bft)
12.05.2020 16:52 9,2 C 12,8 C 54 % 1018,9 hPa 0,0 l/m 7,1 km/h (2 Bft) N 11 0 min 1,9 UV-I 262 W/m 0,4 C 8,7 C 12,9 km/h (3 Bft)
12.05.2020 16:54 9,3 C 13,3 C 56 % 1018,7 hPa 0,0 l/m 8,2 km/h (2 Bft) N-NO 15 0 min 2,0 UV-I 294 W/m 1,0 C 8,0 C 14,5 km/h (3 Bft)
12.05.2020 16:56 9,6 C 13,9 C 57 % 1018,8 hPa 0,0 l/m 9,4 km/h (2 Bft) N-NW 347 0 min 2,9 UV-I 473 W/m 1,5 C 7,5 C 14,5 km/h (3 Bft)
12.05.2020 16:58 10,0 C 16,1 C 57 % 1018,7 hPa 0,0 l/m 10,6 km/h (2 Bft) N 10 2 min 2,8 UV-I 817 W/m 1,9 C 7,3 C 16,1 km/h (3 Bft)
12.05.2020 17:00 10,1 C 16,7 C 53 % 1018,8 hPa 0,0 l/m 9,1 km/h (2 Bft) N 360 0 min 2,7 UV-I 568 W/m 1,0 C 8,2 C 12,9 km/h (3 Bft)
12.05.2020 17:02 9,9 C 15,6 C 55 % 1018,8 hPa 0,0 l/m 7,4 km/h (2 Bft) N-NO 31 0 min 2,1 UV-I 383 W/m 1,3 C 9,2 C 12,9 km/h (3 Bft)
12.05.2020 17:04 9,8 C 15,0 C 54 % 1018,7 hPa 0,0 l/m 6,0 km/h (2 Bft) N 9 0 min 2,1 UV-I 317 W/m 0,9 C 9,8 C 9,7 km/h (2 Bft)
12.05.2020 17:06 9,9 C 16,1 C 56 % 1018,8 hPa 0,0 l/m 6,4 km/h (2 Bft) N 5 0 min 2,7 UV-I 540 W/m 1,5 C 9,9 C 12,9 km/h (3 Bft)
12.05.2020 17:08 10,2 C 16,7 C 56 % 1018,7 hPa 0,0 l/m 10,3 km/h (2 Bft) N 355 0 min 2,3 UV-I 496 W/m 1,8 C 7,6 C 14,5 km/h (3 Bft)
12.05.2020 17:10 10,2 C 16,1 C 55 % 1018,7 hPa 0,0 l/m 8,8 km/h (2 Bft) N 5 0 min 2,3 UV-I 346 W/m 1,6 C 8,5 C 14,5 km/h (3 Bft)
12.05.2020 17:12 10,1 C 16,1 C 55 % 1018,6 hPa 0,0 l/m 8,3 km/h (2 Bft) N-NO 23 0 min 2,5 UV-I 359 W/m 1,5 C 8,8 C 12,9 km/h (3 Bft)
12.05.2020 17:14 10,0 C 15,6 C 54 % 1018,6 hPa 0,0 l/m 7,5 km/h (2 Bft) N 5 0 min 1,9 UV-I 286 W/m 1,1 C 9,2 C 12,9 km/h (3 Bft)
12.05.2020 17:16 9,9 C 15,0 C 57 % 1018,5 hPa 0,0 l/m 9,1 km/h (2 Bft) N 350 0 min 1,9 UV-I 269 W/m 1,8 C 8,0 C 12,9 km/h (3 Bft)
12.05.2020 17:18 9,8 C 14,4 C 57 % 1018,6 hPa 0,0 l/m 9,3 km/h (2 Bft) N-NO 17 0 min 1,9 UV-I 288 W/m 1,7 C 7,8 C 14,5 km/h (3 Bft)
12.05.2020 17:20 9,9 C 15,0 C 59 % 1018,7 hPa 0,0 l/m 7,4 km/h (2 Bft) N-NO 23 0 min 2,2 UV-I 287 W/m 2,3 C 9,2 C 12,9 km/h (3 Bft)
12.05.2020 17:22 9,8 C 13,9 C 57 % 1018,6 hPa 0,0 l/m 8,4 km/h (2 Bft) N 360 0 min 1,7 UV-I 273 W/m 1,7 C 8,4 C 12,9 km/h (3 Bft)
12.05.2020 17:24 9,7 C 14,4 C 55 % 1018,6 hPa 0,0 l/m 8,6 km/h (2 Bft) N 360 0 min 1,7 UV-I 265 W/m 1,1 C 8,1 C 12,9 km/h (3 Bft)
12.05.2020 17:26 9,7 C 13,9 C 57 % 1018,5 hPa 0,0 l/m 7,9 km/h (2 Bft) N-NO 17 0 min 1,6 UV-I 269 W/m 1,6 C 8,6 C 14,5 km/h (3 Bft)
12.05.2020 17:28 9,7 C 13,9 C 57 % 1018,5 hPa 0,0 l/m 7,4 km/h (2 Bft) N-NO 12 0 min 1,6 UV-I 279 W/m 1,6 C 9,0 C 12,9 km/h (3 Bft)
12.05.2020 17:30 9,9 C 13,9 C 60 % 1018,5 hPa 0,0 l/m 3,7 km/h (1 Bft) N 360 0 min 1,6 UV-I 296 W/m 2,5 C 9,9 C 6,4 km/h (2 Bft)
12.05.2020 17:32 10,0 C 13,9 C 55 % 1018,4 hPa 0,0 l/m 10,6 km/h (2 Bft) N 5 0 min 1,6 UV-I 283 W/m 1,4 C 7,3 C 17,7 km/h (3 Bft)
12.05.2020 17:34 9,8 C 13,3 C 57 % 1018,5 hPa 0,0 l/m 14,8 km/h (3 Bft) N 5 0 min 1,6 UV-I 284 W/m 1,7 C 5,0 C 17,7 km/h (3 Bft)
12.05.2020 17:36 9,6 C 13,9 C 56 % 1018,4 hPa 0,0 l/m 14,2 km/h (3 Bft) N-NW 329 0 min 1,8 UV-I 314 W/m 1,3 C 5,0 C 17,7 km/h (3 Bft)
12.05.2020 17:38 9,8 C 15,6 C 56 % 1018,5 hPa 0,0 l/m 12,0 km/h (2 Bft) N-NW 330 0 min 2,3 UV-I 508 W/m 1,4 C 6,3 C 16,1 km/h (3 Bft)
12.05.2020 17:40 10,0 C 16,1 C 55 % 1018,4 hPa 0,0 l/m 11,3 km/h (2 Bft) N-NW 344 0 min 1,9 UV-I 525 W/m 1,4 C 6,9 C 17,7 km/h (3 Bft)
12.05.2020 17:42 9,8 C 15,0 C 56 % 1018,4 hPa 0,0 l/m 13,1 km/h (3 Bft) N-NW 344 0 min 1,6 UV-I 318 W/m 1,4 C 5,7 C 16,1 km/h (3 Bft)
12.05.2020 17:44 9,8 C 15,0 C 56 % 1018,4 hPa 0,0 l/m 10,4 km/h (2 Bft) N 355 0 min 1,9 UV-I 320 W/m 1,4 C 7,1 C 14,5 km/h (3 Bft)
12.05.2020 17:46 10,1 C 16,7 C 57 % 1018,3 hPa 0,0 l/m 7,7 km/h (2 Bft) N 10 2 min 2,3 UV-I 637 W/m 2,0 C 9,2 C 12,9 km/h (3 Bft)
12.05.2020 17:48 10,4 C 17,2 C 55 % 1018,3 hPa 0,0 l/m 8,7 km/h (2 Bft) N-NO 32 0 min 1,9 UV-I 506 W/m 1,8 C 8,8 C 12,9 km/h (3 Bft)
12.05.2020 17:50 10,5 C 18,3 C 55 % 1018,4 hPa 0,0 l/m 7,8 km/h (2 Bft) N-NO 17 2 min 2,3 UV-I 678 W/m 1,8 C 9,5 C 12,9 km/h (3 Bft)
12.05.2020 17:52 10,7 C 18,9 C 53 % 1018,3 hPa 0,0 l/m 9,1 km/h (2 Bft) N-NO 22 2 min 2,2 UV-I 677 W/m 1,5 C 8,9 C 14,5 km/h (3 Bft)
12.05.2020 17:54 10,5 C 18,9 C 57 % 1018,3 hPa 0,0 l/m 8,8 km/h (2 Bft) N-NW 341 0 min 2,0 UV-I 553 W/m 2,3 C 8,9 C 14,5 km/h (3 Bft)
12.05.2020 17:56 10,4 C 18,3 C 54 % 1018,3 hPa 0,0 l/m 7,8 km/h (2 Bft) N-NO 32 2 min 1,7 UV-I 627 W/m 1,5 C 9,4 C 12,9 km/h (3 Bft)
12.05.2020 17:58 10,2 C 16,1 C 54 % 1018,3 hPa 0,0 l/m 9,0 km/h (2 Bft) NO 42 0 min 1,6 UV-I 429 W/m 1,3 C 8,4 C 14,5 km/h (3 Bft)
12.05.2020 18:00 10,1 C 15,6 C 54 % 1018,3 hPa 0,0 l/m 8,2 km/h (2 Bft) N 11 0 min 1,5 UV-I 311 W/m 1,2 C 8,8 C 12,9 km/h (3 Bft)
12.05.2020 18:02 10,2 C 16,1 C 58 % 1018,3 hPa 0,0 l/m 5,8 km/h (2 Bft) N 11 0 min 1,7 UV-I 356 W/m 2,3 C 10,2 C 8,0 km/h (2 Bft)
12.05.2020 18:04 10,3 C 16,7 C 57 % 1018,3 hPa 0,0 l/m 7,2 km/h (2 Bft) NW 322 0 min 1,5 UV-I 403 W/m 2,2 C 9,7 C 12,9 km/h (3 Bft)
12.05.2020 18:06 10,1 C 15,6 C 57 % 1018,2 hPa 0,0 l/m 2,8 km/h (1 Bft) N-NW 333 0 min 1,3 UV-I 278 W/m 2,0 C 10,1 C 4,8 km/h (1 Bft)
12.05.2020 18:08 10,1 C 15,0 C 56 % 1018,2 hPa 0,0 l/m 5,9 km/h (2 Bft) N-NO 15 0 min 1,5 UV-I 286 W/m 1,7 C 10,1 C 8,0 km/h (2 Bft)
12.05.2020 18:10 10,2 C 15,6 C 58 % 1018,2 hPa 0,0 l/m 7,9 km/h (2 Bft) N-NO 23 0 min 1,5 UV-I 288 W/m 2,3 C 9,1 C 12,9 km/h (3 Bft)
12.05.2020 18:12 10,2 C 15,6 C 57 % 1018,3 hPa 0,0 l/m 10,5 km/h (2 Bft) N 11 0 min 1,4 UV-I 288 W/m 2,1 C 7,5 C 16,1 km/h (3 Bft)
12.05.2020 18:14 10,1 C 16,1 C 55 % 1018,2 hPa 0,0 l/m 11,7 km/h (2 Bft) N 5 0 min 1,7 UV-I 428 W/m 1,5 C 6,8 C 16,1 km/h (3 Bft)
12.05.2020 18:16 10,1 C 16,7 C 57 % 1018,2 hPa 0,0 l/m 10,2 km/h (2 Bft) N-NO 13 0 min 1,6 UV-I 491 W/m 2,0 C 7,6 C 16,1 km/h (3 Bft)
12.05.2020 18:18 9,9 C 15,6 C 55 % 1018,2 hPa 0,0 l/m 10,1 km/h (2 Bft) N 360 0 min 1,3 UV-I 459 W/m 1,3 C 7,4 C 14,5 km/h (3 Bft)
12.05.2020 18:20 9,7 C 15,0 C 57 % 1018,2 hPa 0,0 l/m 8,6 km/h (2 Bft) N-NO 24 0 min 1,1 UV-I 195 W/m 1,6 C 8,1 C 12,9 km/h (3 Bft)
12.05.2020 18:22 9,4 C 13,3 C 55 % 1018,2 hPa 0,0 l/m 7,8 km/h (2 Bft) N-NO 26 0 min 1,1 UV-I 179 W/m 0,8 C 8,4 C 11,3 km/h (2 Bft)
12.05.2020 18:24 9,3 C 12,8 C 57 % 1018,0 hPa 0,0 l/m 11,0 km/h (2 Bft) N 360 0 min 1,1 UV-I 180 W/m 1,2 C 6,2 C 14,5 km/h (3 Bft)
12.05.2020 18:26 9,2 C 12,2 C 58 % 1018,0 hPa 0,0 l/m 7,7 km/h (2 Bft) N-NO 22 0 min 1,1 UV-I 185 W/m 1,4 C 8,2 C 14,5 km/h (3 Bft)
12.05.2020 18:28 9,2 C 12,2 C 60 % 1018,0 hPa 0,0 l/m 8,5 km/h (2 Bft) N 5 0 min 1,2 UV-I 204 W/m 1,8 C 7,7 C 14,5 km/h (3 Bft)
12.05.2020 18:30 9,3 C 13,9 C 59 % 1018,0 hPa 0,0 l/m 8,7 km/h (2 Bft) N-NO 33 0 min 1,6 UV-I 275 W/m 1,7 C 7,6 C 14,5 km/h (3 Bft)
12.05.2020 18:32 9,6 C 15,0 C 58 % 1018,0 hPa 0,0 l/m 8,2 km/h (2 Bft) N 9 0 min 1,6 UV-I 486 W/m 1,8 C 8,3 C 12,9 km/h (3 Bft)
12.05.2020 18:34 9,7 C 15,6 C 58 % 1017,9 hPa 0,0 l/m 10,9 km/h (2 Bft) N-NO 23 0 min 1,5 UV-I 469 W/m 1,8 C 6,8 C 14,5 km/h (3 Bft)
12.05.2020 18:36 9,8 C 15,6 C 58 % 1018,0 hPa 0,0 l/m 11,6 km/h (2 Bft) N 5 0 min 1,5 UV-I 444 W/m 1,9 C 6,5 C 16,1 km/h (3 Bft)
12.05.2020 18:38 9,8 C 15,0 C 60 % 1017,8 hPa 0,0 l/m 8,2 km/h (2 Bft) NO 34 0 min 1,4 UV-I 399 W/m 2,4 C 8,5 C 11,3 km/h (2 Bft)
12.05.2020 18:40 9,8 C 14,4 C 60 % 1017,9 hPa 0,0 l/m 9,9 km/h (2 Bft) N-NO 28 0 min 1,3 UV-I 356 W/m 2,4 C 7,4 C 12,9 km/h (3 Bft)
12.05.2020 18:42 9,6 C 13,9 C 57 % 1017,8 hPa 0,0 l/m 10,7 km/h (2 Bft) N-NO 25 0 min 1,3 UV-I 360 W/m 1,5 C 6,8 C 16,1 km/h (3 Bft)
12.05.2020 18:44 9,7 C 12,8 C 59 % 1017,8 hPa 0,0 l/m 9,9 km/h (2 Bft) N-NO 19 0 min 1,3 UV-I 382 W/m 2,1 C 7,3 C 16,1 km/h (3 Bft)
12.05.2020 18:46 9,6 C 12,8 C 59 % 1017,8 hPa 0,0 l/m 8,6 km/h (2 Bft) N-NO 32 0 min 1,1 UV-I 318 W/m 2,0 C 8,0 C 14,5 km/h (3 Bft)
12.05.2020 18:48 9,3 C 12,2 C 57 % 1017,7 hPa 0,0 l/m 11,3 km/h (2 Bft) N 10 0 min 0,9 UV-I 212 W/m 1,2 C 6,1 C 14,5 km/h (3 Bft)
12.05.2020 18:50 9,1 C 11,7 C 59 % 1017,8 hPa 0,0 l/m 7,5 km/h (2 Bft) N-NO 23 0 min 0,9 UV-I 175 W/m 1,5 C 8,3 C 12,9 km/h (3 Bft)
12.05.2020 18:52 9,0 C 11,7 C 58 % 1017,8 hPa 0,0 l/m 7,5 km/h (2 Bft) N-NO 30 0 min 1,0 UV-I 240 W/m 1,2 C 8,2 C 12,9 km/h (3 Bft)
12.05.2020 18:54 9,1 C 11,7 C 59 % 1017,7 hPa 0,0 l/m 7,5 km/h (2 Bft) N 11 0 min 0,9 UV-I 262 W/m 1,5 C 8,3 C 14,5 km/h (3 Bft)
12.05.2020 18:56 9,0 C 11,1 C 58 % 1017,7 hPa 0,0 l/m 13,1 km/h (3 Bft) N 350 0 min 0,9 UV-I 174 W/m 1,2 C 4,8 C 17,7 km/h (3 Bft)
12.05.2020 18:58 8,8 C 11,1 C 57 % 1017,7 hPa 0,0 l/m 12,2 km/h (2 Bft) N-NW 347 0 min 0,9 UV-I 146 W/m 0,8 C 5,0 C 17,7 km/h (3 Bft)
12.05.2020 19:00 8,7 C 10,6 C 58 % 1017,7 hPa 0,0 l/m 9,4 km/h (2 Bft) N 5 0 min 0,8 UV-I 131 W/m 0,9 C 6,5 C 12,9 km/h (3 Bft)
12.05.2020 19:02 8,6 C 10,6 C 60 % 1017,7 hPa 0,0 l/m 7,7 km/h (2 Bft) N-NO 15 0 min 0,7 UV-I 108 W/m 1,3 C 7,6 C 12,9 km/h (3 Bft)
12.05.2020 19:04 8,6 C 10,0 C 59 % 1017,7 hPa 0,0 l/m 8,8 km/h (2 Bft) N-NO 15 0 min 0,7 UV-I 92 W/m 1,0 C 6,8 C 12,9 km/h (3 Bft)
12.05.2020 19:06 8,4 C 9,4 C 60 % 1017,6 hPa 0,0 l/m 7,2 km/h (2 Bft) NO 39 0 min 0,6 UV-I 79 W/m 1,1 C 7,8 C 9,7 km/h (2 Bft)
12.05.2020 19:08 8,3 C 9,4 C 61 % 1017,6 hPa 0,0 l/m 6,9 km/h (2 Bft) N 360 0 min 0,6 UV-I 78 W/m 1,2 C 7,9 C 9,7 km/h (2 Bft)
12.05.2020 19:10 8,2 C 9,4 C 62 % 1017,6 hPa 0,0 l/m 8,2 km/h (2 Bft) N-NO 15 0 min 0,6 UV-I 83 W/m 1,4 C 6,8 C 12,9 km/h (3 Bft)
12.05.2020 19:12 8,1 C 9,4 C 61 % 1017,5 hPa 0,0 l/m 10,0 km/h (2 Bft) N-NO 33 0 min 0,6 UV-I 87 W/m 1,0 C 5,5 C 16,1 km/h (3 Bft)
12.05.2020 19:14 8,1 C 8,9 C 61 % 1017,5 hPa 0,0 l/m 7,6 km/h (2 Bft) N-NO 24 0 min 0,6 UV-I 85 W/m 1,0 C 7,2 C 12,9 km/h (3 Bft)
12.05.2020 19:16 7,9 C 8,9 C 63 % 1017,5 hPa 0,0 l/m 5,9 km/h (2 Bft) NO 36 0 min 0,6 UV-I 84 W/m 1,3 C 7,9 C 8,0 km/h (2 Bft)
12.05.2020 19:18 7,9 C 8,9 C 64 % 1017,4 hPa 0,0 l/m 5,1 km/h (1 Bft) NO 34 0 min 0,6 UV-I 93 W/m 1,5 C 7,9 C 8,0 km/h (2 Bft)
12.05.2020 19:20 7,8 C 8,9 C 65 % 1017,3 hPa 0,0 l/m 5,6 km/h (1 Bft) N-NO 15 0 min 0,6 UV-I 108 W/m 1,6 C 7,8 C 8,0 km/h (2 Bft)
12.05.2020 19:22 7,8 C 8,9 C 63 % 1017,4 hPa 0,0 l/m 5,9 km/h (2 Bft) N-NO 18 0 min 0,6 UV-I 104 W/m 1,2 C 7,8 C 9,7 km/h (2 Bft)
12.05.2020 19:24 7,9 C 8,9 C 63 % 1017,4 hPa 0,0 l/m 9,1 km/h (2 Bft) N-NO 16 0 min 0,5 UV-I 102 W/m 1,3 C 5,9 C 12,9 km/h (3 Bft)
12.05.2020 19:26 7,8 C 8,9 C 62 % 1017,3 hPa 0,0 l/m 7,6 km/h (2 Bft) N 9 0 min 0,5 UV-I 108 W/m 1,0 C 6,8 C 12,9 km/h (3 Bft)
12.05.2020 19:28 7,8 C 8,9 C 63 % 1017,4 hPa 0,0 l/m 6,7 km/h (2 Bft) N-NO 20 0 min 0,6 UV-I 120 W/m 1,2 C 7,6 C 11,3 km/h (2 Bft)
12.05.2020 19:30 7,8 C 8,9 C 64 % 1017,3 hPa 0,0 l/m 6,2 km/h (2 Bft) N-NO 17 0 min 0,6 UV-I 119 W/m 1,4 C 7,8 C 8,0 km/h (2 Bft)
12.05.2020 19:32 7,8 C 8,9 C 63 % 1017,2 hPa 0,0 l/m 8,5 km/h (2 Bft) N-NO 31 0 min 0,5 UV-I 120 W/m 1,2 C 6,2 C 12,9 km/h (3 Bft)
12.05.2020 19:34 7,8 C 8,9 C 63 % 1017,3 hPa 0,0 l/m 7,9 km/h (2 Bft) N 355 0 min 0,5 UV-I 123 W/m 1,2 C 6,6 C 11,3 km/h (2 Bft)
12.05.2020 19:36 7,8 C 8,9 C 62 % 1017,2 hPa 0,0 l/m 10,9 km/h (2 Bft) N-NO 16 0 min 0,6 UV-I 158 W/m 1,0 C 4,6 C 16,1 km/h (3 Bft)
12.05.2020 19:38 7,8 C 8,9 C 63 % 1017,2 hPa 0,0 l/m 10,3 km/h (2 Bft) N-NO 15 0 min 0,6 UV-I 165 W/m 1,2 C 5,0 C 14,5 km/h (3 Bft)
12.05.2020 19:40 7,8 C 8,9 C 63 % 1017,2 hPa 0,0 l/m 8,9 km/h (2 Bft) N-NO 24 0 min 0,5 UV-I 148 W/m 1,2 C 5,9 C 12,9 km/h (3 Bft)
12.05.2020 19:42 7,8 C 8,9 C 63 % 1017,2 hPa 0,0 l/m 6,8 km/h (2 Bft) NO 35 0 min 0,5 UV-I 157 W/m 1,2 C 7,5 C 8,0 km/h (2 Bft)
12.05.2020 19:44 7,8 C 8,9 C 63 % 1017,2 hPa 0,0 l/m 9,5 km/h (2 Bft) N-NO 31 0 min 0,5 UV-I 120 W/m 1,2 C 5,5 C 14,5 km/h (3 Bft)
12.05.2020 19:46 7,8 C 8,9 C 62 % 1017,2 hPa 0,0 l/m 9,4 km/h (2 Bft) N-NO 27 0 min 0,2 UV-I 103 W/m 1,0 C 5,6 C 12,9 km/h (3 Bft)
12.05.2020 19:48 7,7 C 8,3 C 62 % 1017,2 hPa 0,0 l/m 7,8 km/h (2 Bft) N-NO 32 0 min 0,0 UV-I 128 W/m 0,9 C 6,6 C 9,7 km/h (2 Bft)
12.05.2020 19:50 7,6 C 8,3 C 63 % 1017,2 hPa 0,0 l/m 7,3 km/h (2 Bft) N-NO 28 0 min 0,0 UV-I 117 W/m 1,0 C 6,9 C 9,7 km/h (2 Bft)
12.05.2020 19:52 7,6 C 8,3 C 64 % 1017,3 hPa 0,0 l/m 5,9 km/h (2 Bft) NO 38 0 min 0,0 UV-I 78 W/m 1,2 C 7,6 C 8,0 km/h (2 Bft)
12.05.2020 19:54 7,4 C 8,3 C 64 % 1017,2 hPa 0,0 l/m 8,6 km/h (2 Bft) NO 35 0 min 0,0 UV-I 68 W/m 1,0 C 5,7 C 16,1 km/h (3 Bft)
12.05.2020 19:56 7,3 C 7,8 C 62 % 1017,2 hPa 0,0 l/m 13,9 km/h (3 Bft) N 11 0 min 0,0 UV-I 72 W/m 0,5 C 2,4 C 19,3 km/h (3 Bft)
12.05.2020 19:58 7,3 C 7,8 C 61 % 1017,3 hPa 0,0 l/m 10,5 km/h (2 Bft) N 5 0 min 0,0 UV-I 95 W/m 0,3 C 4,3 C 16,1 km/h (3 Bft)
12.05.2020 20:00 7,2 C 7,2 C 62 % 1017,2 hPa 0,0 l/m 7,7 km/h (2 Bft) N-NO 20 0 min 0,0 UV-I 102 W/m 0,4 C 6,1 C 12,9 km/h (3 Bft)
12.05.2020 20:02 7,1 C 7,2 C 62 % 1017,2 hPa 0,0 l/m 8,7 km/h (2 Bft) N-NO 24 0 min 0,0 UV-I 94 W/m 0,3 C 5,3 C 16,1 km/h (3 Bft)
12.05.2020 20:04 7,0 C 7,2 C 63 % 1017,2 hPa 0,0 l/m 8,9 km/h (2 Bft) N-NO 23 0 min 0,0 UV-I 82 W/m 0,4 C 5,0 C 12,9 km/h (3 Bft)
12.05.2020 20:06 6,9 C 6,7 C 64 % 1017,1 hPa 0,0 l/m 7,5 km/h (2 Bft) N-NO 20 0 min 0,0 UV-I 69 W/m 0,6 C 6,0 C 14,5 km/h (3 Bft)
12.05.2020 20:08 6,8 C 6,7 C 64 % 1017,1 hPa 0,0 l/m 7,9 km/h (2 Bft) N-NO 28 0 min 0,0 UV-I 62 W/m 0,5 C 5,6 C 12,9 km/h (3 Bft)
12.05.2020 20:10 6,8 C 6,7 C 64 % 1017,1 hPa 0,0 l/m 6,5 km/h (2 Bft) N 5 0 min 0,0 UV-I 59 W/m 0,5 C 6,7 C 11,3 km/h (2 Bft)
12.05.2020 20:12 6,7 C 6,7 C 64 % 1017,0 hPa 0,0 l/m 7,3 km/h (2 Bft) N 355 0 min 0,0 UV-I 56 W/m 0,4 C 6,0 C 12,9 km/h (3 Bft)
12.05.2020 20:14 6,7 C 6,7 C 64 % 1017,0 hPa 0,0 l/m 9,4 km/h (2 Bft) N-NO 21 0 min 0,0 UV-I 55 W/m 0,4 C 4,4 C 12,9 km/h (3 Bft)
12.05.2020 20:16 6,7 C 6,1 C 64 % 1017,0 hPa 0,0 l/m 8,8 km/h (2 Bft) N-NO 21 0 min 0,0 UV-I 55 W/m 0,4 C 4,8 C 14,5 km/h (3 Bft)
12.05.2020 20:18 6,6 C 6,1 C 64 % 1017,0 hPa 0,0 l/m 6,9 km/h (2 Bft) N-NO 22 0 min 0,0 UV-I 56 W/m 0,3 C 6,2 C 12,9 km/h (3 Bft)
12.05.2020 20:20 6,6 C 6,1 C 65 % 1017,1 hPa 0,0 l/m 5,5 km/h (1 Bft) N-NO 19 0 min 0,0 UV-I 55 W/m 0,5 C 6,6 C 11,3 km/h (2 Bft)
12.05.2020 20:22 6,5 C 6,1 C 65 % 1017,1 hPa 0,0 l/m 4,9 km/h (1 Bft) N-NO 15 0 min 0,0 UV-I 51 W/m 0,4 C 6,5 C 8,0 km/h (2 Bft)
12.05.2020 20:24 6,4 C 6,1 C 65 % 1017,1 hPa 0,0 l/m 5,5 km/h (1 Bft) N-NO 19 0 min 0,0 UV-I 47 W/m 0,3 C 6,4 C 8,0 km/h (2 Bft)
12.05.2020 20:26 6,3 C 6,1 C 66 % 1017,2 hPa 0,0 l/m 6,1 km/h (2 Bft) N 11 0 min 0,0 UV-I 45 W/m 0,4 C 6,3 C 8,0 km/h (2 Bft)
12.05.2020 20:28 6,3 C 5,6 C 66 % 1017,2 hPa 0,0 l/m 6,2 km/h (2 Bft) N 355 0 min 0,0 UV-I 43 W/m 0,4 C 6,3 C 8,0 km/h (2 Bft)
12.05.2020 20:30 6,3 C 5,6 C 65 % 1017,4 hPa 0,0 l/m 6,0 km/h (2 Bft) N 5 0 min 0,0 UV-I 40 W/m 0,2 C 6,3 C 11,3 km/h (2 Bft)
12.05.2020 20:32 6,2 C 5,6 C 65 % 1017,4 hPa 0,0 l/m 7,8 km/h (2 Bft) N 360 0 min 0,0 UV-I 40 W/m 0,1 C 5,0 C 14,5 km/h (3 Bft)
12.05.2020 20:34 6,2 C 5,6 C 66 % 1017,4 hPa 0,0 l/m 7,3 km/h (2 Bft) N-NO 27 0 min 0,0 UV-I 39 W/m 0,3 C 5,4 C 12,9 km/h (3 Bft)
12.05.2020 20:36 6,2 C 5,6 C 66 % 1017,2 hPa 0,0 l/m 5,1 km/h (1 Bft) N-NO 19 0 min 0,0 UV-I 39 W/m 0,3 C 6,2 C 6,4 km/h (2 Bft)
12.05.2020 20:38 6,1 C 5,6 C 66 % 1017,4 hPa 0,0 l/m 5,3 km/h (1 Bft) N-NO 30 0 min 0,0 UV-I 39 W/m 0,2 C 6,1 C 8,0 km/h (2 Bft)
12.05.2020 20:40 5,9 C 5,0 C 67 % 1017,2 hPa 0,0 l/m 6,3 km/h (2 Bft) NO 34 0 min 0,0 UV-I 37 W/m 0,3 C 5,9 C 8,0 km/h (2 Bft)
12.05.2020 20:42 5,9 C 5,0 C 68 % 1017,2 hPa 0,0 l/m 6,0 km/h (2 Bft) NO 36 0 min 0,0 UV-I 34 W/m 0,5 C 5,9 C 11,3 km/h (2 Bft)
12.05.2020 20:44 5,9 C 5,0 C 67 % 1017,3 hPa 0,0 l/m 7,7 km/h (2 Bft) N-NO 22 0 min 0,0 UV-I 32 W/m 0,3 C 4,8 C 12,9 km/h (3 Bft)
12.05.2020 20:46 5,9 C 5,0 C 67 % 1017,3 hPa 0,0 l/m 7,7 km/h (2 Bft) N-NO 25 0 min 0,0 UV-I 30 W/m 0,3 C 4,8 C 12,9 km/h (3 Bft)
12.05.2020 20:48 5,8 C 5,0 C 67 % 1017,3 hPa 0,0 l/m 7,8 km/h (2 Bft) N-NO 30 0 min 0,0 UV-I 27 W/m 0,2 C 4,6 C 12,9 km/h (3 Bft)
12.05.2020 20:50 5,8 C 5,0 C 67 % 1017,3 hPa 0,0 l/m 7,3 km/h (2 Bft) N-NO 26 0 min 0,0 UV-I 23 W/m 0,2 C 5,0 C 14,5 km/h (3 Bft)
12.05.2020 20:52 5,8 C 5,0 C 66 % 1017,3 hPa 0,0 l/m 9,0 km/h (2 Bft) N 9 0 min 0,0 UV-I 19 W/m -0,0 C 3,7 C 14,5 km/h (3 Bft)
12.05.2020 20:54 5,7 C 4,4 C 67 % 1017,3 hPa 0,0 l/m 5,6 km/h (1 Bft) N-NO 25 0 min 0,0 UV-I 17 W/m 0,1 C 5,7 C 8,0 km/h (2 Bft)
12.05.2020 20:56 5,6 C 4,4 C 67 % 1017,3 hPa 0,0 l/m 5,5 km/h (1 Bft) N-NO 22 0 min 0,0 UV-I 15 W/m -0,0 C 5,6 C 8,0 km/h (2 Bft)
12.05.2020 20:58 5,6 C 3,9 C 68 % 1017,3 hPa 0,0 l/m 6,3 km/h (2 Bft) N-NO 14 0 min 0,0 UV-I 12 W/m 0,2 C 5,6 C 9,7 km/h (2 Bft)
12.05.2020 21:00 5,4 C 3,9 C 68 % 1017,3 hPa 0,0 l/m 6,7 km/h (2 Bft) N-NO 19 0 min 0,0 UV-I 11 W/m -0,0 C 5,2 C 9,7 km/h (2 Bft)
12.05.2020 21:02 5,4 C 3,9 C 68 % 1017,3 hPa 0,0 l/m 5,8 km/h (2 Bft) N-NO 13 0 min 0,0 UV-I 9 W/m -0,0 C 5,4 C 8,0 km/h (2 Bft)
12.05.2020 21:04 5,4 C 3,9 C 68 % 1017,3 hPa 0,0 l/m 6,1 km/h (2 Bft) N-NO 17 0 min 0,0 UV-I 8 W/m -0,0 C 5,4 C 8,0 km/h (2 Bft)
12.05.2020 21:06 5,3 C 3,3 C 68 % 1017,2 hPa 0,0 l/m 4,9 km/h (1 Bft) N-NO 20 0 min 0,0 UV-I 7 W/m -0,1 C 5,3 C 6,4 km/h (2 Bft)
12.05.2020 21:08 5,2 C 3,3 C 68 % 1017,1 hPa 0,0 l/m 5,9 km/h (2 Bft) N-NO 22 0 min 0,0 UV-I 7 W/m -0,2 C 5,2 C 8,0 km/h (2 Bft)
12.05.2020 21:10 5,2 C 3,3 C 68 % 1017,2 hPa 0,0 l/m 5,2 km/h (1 Bft) N-NO 19 0 min 0,0 UV-I 7 W/m -0,2 C 5,2 C 6,4 km/h (2 Bft)
12.05.2020 21:12 5,2 C 3,3 C 69 % 1017,2 hPa 0,0 l/m 4,6 km/h (1 Bft) N-NO 19 0 min 0,0 UV-I 7 W/m -0,0 C 5,2 C 6,4 km/h (2 Bft)
12.05.2020 21:14 5,1 C 3,3 C 69 % 1017,2 hPa 0,0 l/m 5,3 km/h (1 Bft) N-NO 14 0 min 0,0 UV-I 7 W/m -0,1 C 5,1 C 8,0 km/h (2 Bft)
12.05.2020 21:16 5,0 C 3,3 C 69 % 1017,2 hPa 0,0 l/m 6,3 km/h (2 Bft) N-NO 15 0 min 0,0 UV-I 7 W/m -0,2 C 5,0 C 8,0 km/h (2 Bft)
12.05.2020 21:18 5,0 C 3,3 C 69 % 1017,2 hPa 0,0 l/m 6,3 km/h (2 Bft) N-NO 19 0 min 0,0 UV-I 7 W/m -0,2 C 5,0 C 8,0 km/h (2 Bft)
12.05.2020 21:20 5,0 C 3,3 C 69 % 1017,2 hPa 0,0 l/m 5,3 km/h (1 Bft) N-NO 20 0 min 0,0 UV-I 6 W/m -0,2 C 5,0 C 8,0 km/h (2 Bft)
12.05.2020 21:22 4,9 C 3,3 C 69 % 1017,3 hPa 0,0 l/m 6,0 km/h (2 Bft) N-NO 19 0 min 0,0 UV-I 5 W/m -0,3 C 4,9 C 8,0 km/h (2 Bft)
12.05.2020 21:24 4,9 C 2,8 C 69 % 1017,3 hPa 0,0 l/m 6,8 km/h (2 Bft) N-NO 17 0 min 0,0 UV-I 4 W/m -0,3 C 4,6 C 9,7 km/h (2 Bft)
12.05.2020 21:26 4,8 C 2,8 C 70 % 1017,2 hPa 0,0 l/m 5,5 km/h (1 Bft) N-NO 23 0 min 0,0 UV-I 0 W/m -0,2 C 4,8 C 11,3 km/h (2 Bft)
12.05.2020 21:28 4,8 C 2,8 C 70 % 1017,3 hPa 0,0 l/m 6,6 km/h (2 Bft) N 9 0 min 0,0 UV-I 0 W/m -0,2 C 4,6 C 8,0 km/h (2 Bft)
12.05.2020 21:30 4,8 C 2,8 C 70 % 1017,3 hPa 0,0 l/m 5,4 km/h (1 Bft) N 10 0 min 0,0 UV-I 0 W/m -0,2 C 4,8 C 8,0 km/h (2 Bft)
12.05.2020 21:32 4,8 C 2,8 C 70 % 1017,3 hPa 0,0 l/m 4,7 km/h (1 Bft) N 10 0 min 0,0 UV-I 0 W/m -0,2 C 4,8 C 6,4 km/h (2 Bft)
12.05.2020 21:34 4,8 C 2,8 C 70 % 1017,4 hPa 0,0 l/m 4,9 km/h (1 Bft) N 9 0 min 0,0 UV-I 0 W/m -0,2 C 4,8 C 8,0 km/h (2 Bft)
12.05.2020 21:36 4,8 C 2,8 C 69 % 1017,4 hPa 0,0 l/m 4,5 km/h (1 Bft) N 9 0 min 0,0 UV-I 0 W/m -0,4 C 4,8 C 6,4 km/h (2 Bft)
12.05.2020 21:38 4,8 C 2,8 C 69 % 1017,3 hPa 0,0 l/m 5,0 km/h (1 Bft) N 9 0 min 0,0 UV-I 0 W/m -0,4 C 4,8 C 6,4 km/h (2 Bft)
12.05.2020 21:40 4,8 C 2,8 C 69 % 1017,4 hPa 0,0 l/m 4,1 km/h (1 Bft) N 9 0 min 0,0 UV-I 0 W/m -0,4 C 4,8 C 6,4 km/h (2 Bft)
12.05.2020 21:42 4,8 C 2,8 C 70 % 1017,4 hPa 0,0 l/m 4,2 km/h (1 Bft) N 9 0 min 0,0 UV-I 0 W/m -0,2 C 4,8 C 6,4 km/h (2 Bft)
12.05.2020 21:44 4,8 C 2,8 C 70 % 1017,3 hPa 0,0 l/m 3,7 km/h (1 Bft) N 9 0 min 0,0 UV-I 0 W/m -0,2 C 4,8 C 4,8 km/h (1 Bft)
12.05.2020 21:46 4,7 C 2,8 C 70 % 1017,4 hPa 0,0 l/m 4,7 km/h (1 Bft) N 11 0 min 0,0 UV-I 0 W/m -0,3 C 4,7 C 8,0 km/h (2 Bft)
12.05.2020 21:48 4,7 C 2,8 C 70 % 1017,4 hPa 0,0 l/m 4,1 km/h (1 Bft) N 11 0 min 0,0 UV-I 0 W/m -0,3 C 4,7 C 6,4 km/h (2 Bft)
12.05.2020 21:50 4,6 C 2,8 C 70 % 1017,5 hPa 0,0 l/m 4,3 km/h (1 Bft) N 11 0 min 0,0 UV-I 0 W/m -0,4 C 4,6 C 6,4 km/h (2 Bft)
12.05.2020 21:52 4,6 C 2,2 C 71 % 1017,4 hPa 0,0 l/m 4,0 km/h (1 Bft) N 11 0 min 0,0 UV-I 0 W/m -0,2 C 4,6 C 6,4 km/h (2 Bft)
12.05.2020 21:54 4,6 C 2,2 C 71 % 1017,4 hPa 0,0 l/m 3,9 km/h (1 Bft) N 11 0 min 0,0 UV-I 0 W/m -0,2 C 4,6 C 4,8 km/h (1 Bft)
12.05.2020 21:56 4,5 C 2,2 C 71 % 1017,5 hPa 0,0 l/m 3,1 km/h (1 Bft) N 11 0 min 0,0 UV-I 0 W/m -0,3 C 4,5 C 4,8 km/h (1 Bft)
12.05.2020 21:58 4,5 C 2,2 C 71 % 1017,5 hPa 0,0 l/m 5,1 km/h (1 Bft) N 11 0 min 0,0 UV-I 0 W/m -0,3 C 4,5 C 6,4 km/h (2 Bft)
12.05.2020 22:00 4,5 C 2,2 C 71 % 1017,5 hPa 0,0 l/m 5,1 km/h (1 Bft) N 11 0 min 0,0 UV-I 0 W/m -0,3 C 4,5 C 6,4 km/h (2 Bft)
12.05.2020 22:02 4,4 C 2,2 C 71 % 1017,4 hPa 0,0 l/m 4,7 km/h (1 Bft) N 11 0 min 0,0 UV-I 0 W/m -0,4 C 4,4 C 6,4 km/h (2 Bft)
12.05.2020 22:04 4,3 C 1,7 C 71 % 1017,5 hPa 0,0 l/m 3,8 km/h (1 Bft) N 11 0 min 0,0 UV-I 0 W/m -0,5 C 4,3 C 4,8 km/h (1 Bft)
12.05.2020 22:06 4,3 C 1,7 C 71 % 1017,5 hPa 0,0 l/m 4,6 km/h (1 Bft) N 11 0 min 0,0 UV-I 0 W/m -0,5 C 4,3 C 6,4 km/h (2 Bft)
12.05.2020 22:08 4,2 C 1,7 C 72 % 1017,5 hPa 0,0 l/m 4,7 km/h (1 Bft) N 11 0 min 0,0 UV-I 0 W/m -0,4 C 4,2 C 6,4 km/h (2 Bft)
12.05.2020 22:10 4,2 C 1,7 C 72 % 1017,5 hPa 0,0 l/m 5,5 km/h (1 Bft) N 11 0 min 0,0 UV-I 0 W/m -0,4 C 4,2 C 6,4 km/h (2 Bft)
12.05.2020 22:12 4,2 C 1,7 C 72 % 1017,5 hPa 0,0 l/m 5,5 km/h (1 Bft) N 11 0 min 0,0 UV-I 0 W/m -0,4 C 4,2 C 6,4 km/h (2 Bft)
12.05.2020 22:14 4,2 C 1,7 C 72 % 1017,5 hPa 0,0 l/m 5,9 km/h (2 Bft) N 5 0 min 0,0 UV-I 0 W/m -0,4 C 4,2 C 8,0 km/h (2 Bft)
12.05.2020 22:16 4,2 C 1,7 C 71 % 1017,4 hPa 0,0 l/m 6,4 km/h (2 Bft) N 360 0 min 0,0 UV-I 0 W/m -0,6 C 4,2 C 8,0 km/h (2 Bft)
12.05.2020 22:18 4,2 C 1,7 C 71 % 1017,4 hPa 0,0 l/m 6,2 km/h (2 Bft) N 360 0 min 0,0 UV-I 0 W/m -0,6 C 4,2 C 8,0 km/h (2 Bft)
12.05.2020 22:20 4,2 C 1,7 C 71 % 1017,4 hPa 0,0 l/m 5,8 km/h (2 Bft) N-NW 338 0 min 0,0 UV-I 0 W/m -0,6 C 4,2 C 8,0 km/h (2 Bft)
12.05.2020 22:22 4,2 C 1,7 C 71 % 1017,4 hPa 0,0 l/m 4,2 km/h (1 Bft) N 349 0 min 0,0 UV-I 0 W/m -0,6 C 4,2 C 6,4 km/h (2 Bft)
12.05.2020 22:24 4,2 C 1,7 C 71 % 1017,4 hPa 0,0 l/m 5,4 km/h (1 Bft) N-NW 348 0 min 0,0 UV-I 0 W/m -0,6 C 4,2 C 8,0 km/h (2 Bft)
12.05.2020 22:26 4,2 C 1,7 C 71 % 1017,4 hPa 0,0 l/m 3,9 km/h (1 Bft) N-NW 348 0 min 0,0 UV-I 0 W/m -0,6 C 4,2 C 6,4 km/h (2 Bft)
12.05.2020 22:28 3,9 C 1,7 C 73 % 1017,4 hPa 0,0 l/m 2,0 km/h (1 Bft) N-NW 348 0 min 0,0 UV-I 0 W/m -0,5 C 3,9 C 3,2 km/h (1 Bft)
12.05.2020 22:30 3,4 C 1,1 C 74 % 1017,4 hPa 0,0 l/m 1,7 km/h (1 Bft) N-NW 348 0 min 0,0 UV-I 0 W/m -0,8 C 3,4 C 3,2 km/h (1 Bft)
12.05.2020 22:32 3,2 C 1,1 C 76 % 1017,4 hPa 0,0 l/m 1,6 km/h (1 Bft) N-NW 348 0 min 0,0 UV-I 0 W/m -0,6 C 3,2 C 3,2 km/h (1 Bft)
12.05.2020 22:34 3,1 C 1,1 C 76 % 1017,5 hPa 0,0 l/m 0,9 km/h (0 Bft) N-NW 348 0 min 0,0 UV-I 0 W/m -0,7 C 3,1 C 1,6 km/h (1 Bft)
12.05.2020 22:36 3,1 C 0,6 C 77 % 1017,5 hPa 0,0 l/m 0,2 km/h (0 Bft) N-NW 348 0 min 0,0 UV-I 0 W/m -0,5 C 3,1 C 1,6 km/h (1 Bft)
12.05.2020 22:38 3,2 C 0,6 C 77 % 1017,5 hPa 0,0 l/m 0,3 km/h (0 Bft) N-NW 348 0 min 0,0 UV-I 0 W/m -0,4 C 3,2 C 1,6 km/h (1 Bft)
12.05.2020 22:40 3,1 C 0,6 C 77 % 1017,4 hPa 0,0 l/m 0,3 km/h (0 Bft) N-NW 348 0 min 0,0 UV-I 0 W/m -0,5 C 3,1 C 1,6 km/h (1 Bft)
12.05.2020 22:42 3,2 C 0,6 C 77 % 1017,4 hPa 0,0 l/m 0,0 km/h (0 Bft) N-NW 348 0 min 0,0 UV-I 0 W/m -0,4 C 3,2 C 0,0 km/h (0 Bft)
12.05.2020 22:44 3,2 C 0,6 C 77 % 1017,5 hPa 0,0 l/m 0,0 km/h (0 Bft) N-NW 348 0 min 0,0 UV-I 0 W/m -0,4 C 3,2 C 0,0 km/h (0 Bft)
12.05.2020 22:46 3,2 C 0,6 C 77 % 1017,5 hPa 0,0 l/m 0,1 km/h (0 Bft) N-NW 348 0 min 0,0 UV-I 0 W/m -0,4 C 3,2 C 1,6 km/h (1 Bft)
12.05.2020 22:48 3,1 C 0,6 C 77 % 1017,5 hPa 0,0 l/m 1,2 km/h (1 Bft) N-NW 348 0 min 0,0 UV-I 0 W/m -0,5 C 3,1 C 3,2 km/h (1 Bft)
12.05.2020 22:50 3,0 C 0,0 C 77 % 1017,6 hPa 0,0 l/m 1,2 km/h (1 Bft) N-NW 348 0 min 0,0 UV-I 0 W/m -0,6 C 3,0 C 3,2 km/h (1 Bft)
12.05.2020 22:52 2,9 C 0,0 C 78 % 1017,6 hPa 0,0 l/m 0,0 km/h (0 Bft) N-NW 348 0 min 0,0 UV-I 0 W/m -0,5 C 2,9 C 0,0 km/h (0 Bft)
12.05.2020 22:54 2,9 C 0,0 C 78 % 1017,6 hPa 0,0 l/m 0,0 km/h (0 Bft) N-NW 348 0 min 0,0 UV-I 0 W/m -0,5 C 2,9 C 1,6 km/h (1 Bft)
12.05.2020 22:56 2,8 C 0,0 C 78 % 1017,6 hPa 0,0 l/m 0,0 km/h (0 Bft) N-NW 348 0 min 0,0 UV-I 0 W/m -0,6 C 2,8 C 0,0 km/h (0 Bft)
12.05.2020 22:58 2,8 C 0,0 C 79 % 1017,6 hPa 0,0 l/m 0,0 km/h (0 Bft) N-NW 348 0 min 0,0 UV-I 0 W/m -0,5 C 2,8 C 0,0 km/h (0 Bft)
12.05.2020 23:00 2,7 C -0,6 C 79 % 1017,6 hPa 0,0 l/m 0,0 km/h (0 Bft) N-NW 348 0 min 0,0 UV-I 0 W/m -0,6 C 2,7 C 0,0 km/h (0 Bft)
12.05.2020 23:02 2,8 C -0,6 C 79 % 1017,5 hPa 0,0 l/m 0,0 km/h (0 Bft) N-NW 348 0 min 0,0 UV-I 0 W/m -0,5 C 2,8 C 0,0 km/h (0 Bft)
12.05.2020 23:04 2,8 C -0,6 C 79 % 1017,5 hPa 0,0 l/m 0,0 km/h (0 Bft) N-NW 348 0 min 0,0 UV-I 0 W/m -0,5 C 2,8 C 0,0 km/h (0 Bft)
12.05.2020 23:06 2,8 C -0,6 C 79 % 1017,6 hPa 0,0 l/m 0,0 km/h (0 Bft) N-NW 348 0 min 0,0 UV-I 0 W/m -0,5 C 2,8 C 0,0 km/h (0 Bft)
12.05.2020 23:08 2,8 C -0,6 C 78 % 1017,5 hPa 0,0 l/m 0,0 km/h (0 Bft) N-NW 348 0 min 0,0 UV-I 0 W/m -0,6 C 2,8 C 0,0 km/h (0 Bft)
12.05.2020 23:10 2,5 C -0,6 C 79 % 1017,4 hPa 0,0 l/m 0,0 km/h (0 Bft) N-NW 348 0 min 0,0 UV-I 0 W/m -0,8 C 2,5 C 0,0 km/h (0 Bft)
12.05.2020 23:12 2,3 C -0,6 C 80 % 1017,5 hPa 0,0 l/m 0,0 km/h (0 Bft) N-NW 348 0 min 0,0 UV-I 0 W/m -0,8 C 2,3 C 0,0 km/h (0 Bft)
12.05.2020 23:14 2,3 C -0,6 C 81 % 1017,4 hPa 0,0 l/m 0,0 km/h (0 Bft) N-NW 348 0 min 0,0 UV-I 0 W/m -0,6 C 2,3 C 0,0 km/h (0 Bft)
12.05.2020 23:16 2,3 C -0,6 C 81 % 1017,4 hPa 0,0 l/m 0,0 km/h (0 Bft) N-NW 348 0 min 0,0 UV-I 0 W/m -0,6 C 2,3 C 0,0 km/h (0 Bft)
12.05.2020 23:18 2,3 C -0,6 C 81 % 1017,5 hPa 0,0 l/m 0,0 km/h (0 Bft) N-NW 348 0 min 0,0 UV-I 0 W/m -0,6 C 2,3 C 0,0 km/h (0 Bft)
12.05.2020 23:20 2,3 C -0,6 C 81 % 1017,4 hPa 0,0 l/m 0,0 km/h (0 Bft) N-NW 348 0 min 0,0 UV-I 0 W/m -0,6 C 2,3 C 0,0 km/h (0 Bft)
12.05.2020 23:22 2,3 C -0,6 C 81 % 1017,7 hPa 0,0 l/m 0,0 km/h (0 Bft) N-NW 348 0 min 0,0 UV-I 0 W/m -0,6 C 2,3 C 0,0 km/h (0 Bft)
12.05.2020 23:24 2,3 C -0,6 C 81 % 1017,5 hPa 0,0 l/m 0,0 km/h (0 Bft) N-NW 348 0 min 0,0 UV-I 0 W/m -0,6 C 2,3 C 0,0 km/h (0 Bft)
12.05.2020 23:26 2,3 C -0,6 C 82 % 1017,6 hPa 0,0 l/m 0,0 km/h (0 Bft) N-NW 348 0 min 0,0 UV-I 0 W/m -0,4 C 2,3 C 0,0 km/h (0 Bft)
12.05.2020 23:28 2,2 C -0,6 C 82 % 1017,6 hPa 0,0 l/m 0,0 km/h (0 Bft) N-NW 348 0 min 0,0 UV-I 0 W/m -0,5 C 2,2 C 0,0 km/h (0 Bft)
12.05.2020 23:30 2,2 C -0,6 C 82 % 1017,5 hPa 0,0 l/m 0,0 km/h (0 Bft) N-NW 348 0 min 0,0 UV-I 0 W/m -0,5 C 2,2 C 0,0 km/h (0 Bft)
12.05.2020 23:32 2,2 C -0,6 C 82 % 1017,5 hPa 0,0 l/m 0,0 km/h (0 Bft) N-NW 348 0 min 0,0 UV-I 0 W/m -0,5 C 2,2 C 0,0 km/h (0 Bft)
12.05.2020 23:34 2,2 C -0,6 C 81 % 1017,6 hPa 0,0 l/m 0,0 km/h (0 Bft) N-NW 348 0 min 0,0 UV-I 0 W/m -0,7 C 2,2 C 0,0 km/h (0 Bft)
12.05.2020 23:36 2,0 C -0,6 C 82 % 1017,6 hPa 0,0 l/m 0,0 km/h (0 Bft) N-NW 348 0 min 0,0 UV-I 0 W/m -0,7 C 2,0 C 0,0 km/h (0 Bft)
12.05.2020 23:38 1,9 C -0,6 C 82 % 1017,5 hPa 0,0 l/m 0,0 km/h (0 Bft) N-NW 348 0 min 0,0 UV-I 0 W/m -0,8 C 1,9 C 0,0 km/h (0 Bft)
12.05.2020 23:40 1,9 C -0,6 C 83 % 1017,6 hPa 0,0 l/m 0,0 km/h (0 Bft) N-NW 348 0 min 0,0 UV-I 0 W/m -0,7 C 1,9 C 0,0 km/h (0 Bft)
12.05.2020 23:42 1,9 C -0,6 C 82 % 1017,5 hPa 0,0 l/m 0,0 km/h (0 Bft) N-NW 348 0 min 0,0 UV-I 0 W/m -0,8 C 1,9 C 0,0 km/h (0 Bft)
12.05.2020 23:44 1,8 C -0,6 C 82 % 1017,5 hPa 0,0 l/m 0,0 km/h (0 Bft) N-NW 348 0 min 0,0 UV-I 0 W/m -0,9 C 1,8 C 0,0 km/h (0 Bft)
12.05.2020 23:46 1,6 C -0,6 C 82 % 1017,5 hPa 0,0 l/m 0,0 km/h (0 Bft) N-NW 348 0 min 0,0 UV-I 0 W/m -1,1 C 1,6 C 0,0 km/h (0 Bft)
12.05.2020 23:48 1,6 C -1,1 C 83 % 1017,5 hPa 0,0 l/m 0,0 km/h (0 Bft) N-NW 348 0 min 0,0 UV-I 0 W/m -1,0 C 1,6 C 0,0 km/h (0 Bft)
12.05.2020 23:50 1,6 C -1,1 C 83 % 1017,4 hPa 0,0 l/m 0,0 km/h (0 Bft) N-NW 348 0 min 0,0 UV-I 0 W/m -1,0 C 1,6 C 0,0 km/h (0 Bft)
12.05.2020 23:52 1,6 C -1,1 C 83 % 1017,4 hPa 0,0 l/m 0,0 km/h (0 Bft) N-NW 348 0 min 0,0 UV-I 0 W/m -1,0 C 1,6 C 0,0 km/h (0 Bft)
12.05.2020 23:54 1,5 C -1,1 C 83 % 1017,4 hPa 0,0 l/m 0,0 km/h (0 Bft) N-NW 348 0 min 0,0 UV-I 0 W/m -1,1 C 1,5 C 0,0 km/h (0 Bft)
12.05.2020 23:56 1,4 C -1,1 C 84 % 1017,3 hPa 0,0 l/m 0,0 km/h (0 Bft) N-NW 348 0 min 0,0 UV-I 0 W/m -1,0 C 1,4 C 0,0 km/h (0 Bft)
12.05.2020 23:58 1,6 C -1,1 C 84 % 1017,4 hPa 0,0 l/m 0,0 km/h (0 Bft) N-NW 348 0 min 0,0 UV-I 0 W/m -0,8 C 1,6 C 0,0 km/h (0 Bft)
12.05.2020 23:59 1,6 C -1,1 C 83 % 1017,4 hPa 0,0 l/m 0,0 km/h (0 Bft) N 0 0 min 0,0 UV-I 0 W/m -1,0 C 1,6 C 0,0 km/h (0 Bft)
_ Min-Zeit 06:10 05:36 12:44 20:12 - 03:58 - - - - - 06:03 00:36 04:02
Minimum _ -3,0 C -5,0 C 46 % 1017,0 hPa - 0,0 km/h (0 Bft) - - - - - -4,8 C -5,9 C 0,0 km/h (0 Bft)
_ Max-Zeit 14:12 14:14 06:04 09:06 00:00 00:02 - - 10:16 13:24 13:24 14:12 14:12 14:50
Maximum _ 11,1 C 22,2 C 88 % 1022,3 hPa 0,0 l/m 17,7 km/h
N (3 Bft)
- - 2 min 7,0 UV-I 1169 W/m 3,2 C 11,1 C 25,7 km/h
N-NO (4 Bft)
Durchschnitt _ 4,6 C 6,0 C 68 % 1019,8 hPa #0,0 l/m 5,8 km/h (2 Bft) N - #4:06 h 3,0 UV-I 415 W/m -1,1 C 3,6 C 9,2 km/h (2 Bft)